<?xml version='1.0' encoding='UTF-8'?>
<gpx version="1.1" creator="https://www.komoot.de" xmlns="http://www.topografix.com/GPX/1/1" xmlns:xsi="http://www.w3.org/2001/XMLSchema-instance" xsi:schemaLocation="http://www.topografix.com/GPX/1/1 http://www.topografix.com/GPX/1/1/gpx.xsd">
  <metadata>
    <name>53_870HottingenRuetteEgg</name>
    <author>
      <link href="https://www.komoot.de">
        <text>komoot</text>
        <type>text/html</type>
      </link>
    </author>
  </metadata>
  <trk>
    <name>53_870HottingenRuetteEgg</name>
    <trkseg>
      <trkpt lat="47.541149" lon="7.871008">
        <ele>340.511816</ele>
        <time>2021-11-13T15:25:05.633Z</time>
      </trkpt>
      <trkpt lat="47.541410" lon="7.870791">
        <ele>340.511816</ele>
        <time>2021-11-13T15:25:10.699Z</time>
      </trkpt>
      <trkpt lat="47.541576" lon="7.870664">
        <ele>340.511816</ele>
        <time>2021-11-13T15:25:14.821Z</time>
      </trkpt>
      <trkpt lat="47.541796" lon="7.871042">
        <ele>340.511816</ele>
        <time>2021-11-13T15:25:22.005Z</time>
      </trkpt>
      <trkpt lat="47.541953" lon="7.871286">
        <ele>341.022111</ele>
        <time>2021-11-13T15:25:26.771Z</time>
      </trkpt>
      <trkpt lat="47.542039" lon="7.871556">
        <ele>341.701948</ele>
        <time>2021-11-13T15:25:31.255Z</time>
      </trkpt>
      <trkpt lat="47.542067" lon="7.871664">
        <ele>341.965394</ele>
        <time>2021-11-13T15:25:32.831Z</time>
      </trkpt>
      <trkpt lat="47.542091" lon="7.871721">
        <ele>342.118370</ele>
        <time>2021-11-13T15:25:33.431Z</time>
      </trkpt>
      <trkpt lat="47.542218" lon="7.871866">
        <ele>342.659257</ele>
        <time>2021-11-13T15:25:38.644Z</time>
      </trkpt>
      <trkpt lat="47.542394" lon="7.872341">
        <ele>343.893125</ele>
        <time>2021-11-13T15:25:48.720Z</time>
      </trkpt>
      <trkpt lat="47.542436" lon="7.872494">
        <ele>344.269232</ele>
        <time>2021-11-13T15:25:52.051Z</time>
      </trkpt>
      <trkpt lat="47.542537" lon="7.872430">
        <ele>344.639797</ele>
        <time>2021-11-13T15:25:54.087Z</time>
      </trkpt>
      <trkpt lat="47.542714" lon="7.872334">
        <ele>345.275633</ele>
        <time>2021-11-13T15:26:01.199Z</time>
      </trkpt>
      <trkpt lat="47.542814" lon="7.872280">
        <ele>345.634677</ele>
        <time>2021-11-13T15:26:04.077Z</time>
      </trkpt>
      <trkpt lat="47.542919" lon="7.872226">
        <ele>346.009612</ele>
        <time>2021-11-13T15:26:07.917Z</time>
      </trkpt>
      <trkpt lat="47.543013" lon="7.872182">
        <ele>346.342156</ele>
        <time>2021-11-13T15:26:11.547Z</time>
      </trkpt>
      <trkpt lat="47.543233" lon="7.872082">
        <ele>347.560044</ele>
        <time>2021-11-13T15:26:18.645Z</time>
      </trkpt>
      <trkpt lat="47.543251" lon="7.872152">
        <ele>347.870305</ele>
        <time>2021-11-13T15:26:22.060Z</time>
      </trkpt>
      <trkpt lat="47.543332" lon="7.872237">
        <ele>348.479377</ele>
        <time>2021-11-13T15:26:25.470Z</time>
      </trkpt>
      <trkpt lat="47.544390" lon="7.872423">
        <ele>355.016730</ele>
        <time>2021-11-13T15:27:07.101Z</time>
      </trkpt>
      <trkpt lat="47.544883" lon="7.872555">
        <ele>358.138311</ele>
        <time>2021-11-13T15:27:29.444Z</time>
      </trkpt>
      <trkpt lat="47.545131" lon="7.872664">
        <ele>359.884446</ele>
        <time>2021-11-13T15:27:40.448Z</time>
      </trkpt>
      <trkpt lat="47.545375" lon="7.872836">
        <ele>361.708407</ele>
        <time>2021-11-13T15:27:51.389Z</time>
      </trkpt>
      <trkpt lat="47.545478" lon="7.872968">
        <ele>362.627704</ele>
        <time>2021-11-13T15:27:58.196Z</time>
      </trkpt>
      <trkpt lat="47.545515" lon="7.873015">
        <ele>362.956696</ele>
        <time>2021-11-13T15:28:00.153Z</time>
      </trkpt>
      <trkpt lat="47.545746" lon="7.873302">
        <ele>364.991712</ele>
        <time>2021-11-13T15:28:13.352Z</time>
      </trkpt>
      <trkpt lat="47.545934" lon="7.873549">
        <ele>366.687863</ele>
        <time>2021-11-13T15:28:23.453Z</time>
      </trkpt>
      <trkpt lat="47.546077" lon="7.873763">
        <ele>368.059882</ele>
        <time>2021-11-13T15:28:32.649Z</time>
      </trkpt>
      <trkpt lat="47.546135" lon="7.873859">
        <ele>368.646905</ele>
        <time>2021-11-13T15:28:35.888Z</time>
      </trkpt>
      <trkpt lat="47.546309" lon="7.874154">
        <ele>370.188861</ele>
        <time>2021-11-13T15:28:47.002Z</time>
      </trkpt>
      <trkpt lat="47.547126" lon="7.875801">
        <ele>376.150767</ele>
        <time>2021-11-13T15:29:32.764Z</time>
      </trkpt>
      <trkpt lat="47.547574" lon="7.876801">
        <ele>377.474274</ele>
        <time>2021-11-13T15:29:51.759Z</time>
      </trkpt>
      <trkpt lat="47.547992" lon="7.877974">
        <ele>377.374327</ele>
        <time>2021-11-13T15:30:04.560Z</time>
      </trkpt>
      <trkpt lat="47.548234" lon="7.878638">
        <ele>376.946835</ele>
        <time>2021-11-13T15:30:09.872Z</time>
      </trkpt>
      <trkpt lat="47.548422" lon="7.878959">
        <ele>375.820768</ele>
        <time>2021-11-13T15:30:12.715Z</time>
      </trkpt>
      <trkpt lat="47.548718" lon="7.879258">
        <ele>374.414440</ele>
        <time>2021-11-13T15:30:16.253Z</time>
      </trkpt>
      <trkpt lat="47.549140" lon="7.879391">
        <ele>372.720805</ele>
        <time>2021-11-13T15:30:20.440Z</time>
      </trkpt>
      <trkpt lat="47.549318" lon="7.879398">
        <ele>372.021816</ele>
        <time>2021-11-13T15:30:22.067Z</time>
      </trkpt>
      <trkpt lat="47.549327" lon="7.879547">
        <ele>371.625456</ele>
        <time>2021-11-13T15:30:23.053Z</time>
      </trkpt>
      <trkpt lat="47.549726" lon="7.880786">
        <ele>368.087181</ele>
        <time>2021-11-13T15:30:31.988Z</time>
      </trkpt>
      <trkpt lat="47.549927" lon="7.881490">
        <ele>366.149867</ele>
        <time>2021-11-13T15:30:37.020Z</time>
      </trkpt>
      <trkpt lat="47.550234" lon="7.883221">
        <ele>361.459106</ele>
        <time>2021-11-13T15:30:49.421Z</time>
      </trkpt>
      <trkpt lat="47.550332" lon="7.884727">
        <ele>357.312278</ele>
        <time>2021-11-13T15:30:59.265Z</time>
      </trkpt>
      <trkpt lat="47.550391" lon="7.885109">
        <ele>356.238220</ele>
        <time>2021-11-13T15:31:01.797Z</time>
      </trkpt>
      <trkpt lat="47.550548" lon="7.885799">
        <ele>353.544286</ele>
        <time>2021-11-13T15:31:06.402Z</time>
      </trkpt>
      <trkpt lat="47.550677" lon="7.886476">
        <ele>350.931970</ele>
        <time>2021-11-13T15:31:10.832Z</time>
      </trkpt>
      <trkpt lat="47.550758" lon="7.887295">
        <ele>347.858130</ele>
        <time>2021-11-13T15:31:15.974Z</time>
      </trkpt>
      <trkpt lat="47.550789" lon="7.887816">
        <ele>345.860957</ele>
        <time>2021-11-13T15:31:19.206Z</time>
      </trkpt>
      <trkpt lat="47.550831" lon="7.888611">
        <ele>342.490726</ele>
        <time>2021-11-13T15:31:24.162Z</time>
      </trkpt>
      <trkpt lat="47.550833" lon="7.889069">
        <ele>340.555015</ele>
        <time>2021-11-13T15:31:26.972Z</time>
      </trkpt>
      <trkpt lat="47.550915" lon="7.890600">
        <ele>334.309202</ele>
        <time>2021-11-13T15:31:36.365Z</time>
      </trkpt>
      <trkpt lat="47.550904" lon="7.891725">
        <ele>330.735143</ele>
        <time>2021-11-13T15:31:43.369Z</time>
      </trkpt>
      <trkpt lat="47.550892" lon="7.893176">
        <ele>326.445769</ele>
        <time>2021-11-13T15:31:52.981Z</time>
      </trkpt>
      <trkpt lat="47.550908" lon="7.894308">
        <ele>325.353536</ele>
        <time>2021-11-13T15:32:02.186Z</time>
      </trkpt>
      <trkpt lat="47.550878" lon="7.895158">
        <ele>324.532455</ele>
        <time>2021-11-13T15:32:09.371Z</time>
      </trkpt>
      <trkpt lat="47.550838" lon="7.895509">
        <ele>324.189067</ele>
        <time>2021-11-13T15:32:12.535Z</time>
      </trkpt>
      <trkpt lat="47.550660" lon="7.896255">
        <ele>323.060482</ele>
        <time>2021-11-13T15:32:19.023Z</time>
      </trkpt>
      <trkpt lat="47.550639" lon="7.896345">
        <ele>322.911639</ele>
        <time>2021-11-13T15:32:20.211Z</time>
      </trkpt>
      <trkpt lat="47.550648" lon="7.896481">
        <ele>322.698045</ele>
        <time>2021-11-13T15:32:21.166Z</time>
      </trkpt>
      <trkpt lat="47.550819" lon="7.898109">
        <ele>320.122782</ele>
        <time>2021-11-13T15:32:32.914Z</time>
      </trkpt>
      <trkpt lat="47.550801" lon="7.900244">
        <ele>314.278264</ele>
        <time>2021-11-13T15:32:46.751Z</time>
      </trkpt>
      <trkpt lat="47.550769" lon="7.901362">
        <ele>311.238438</ele>
        <time>2021-11-13T15:32:54.023Z</time>
      </trkpt>
      <trkpt lat="47.550757" lon="7.901591">
        <ele>310.663514</ele>
        <time>2021-11-13T15:32:56.159Z</time>
      </trkpt>
      <trkpt lat="47.550688" lon="7.902451">
        <ele>308.495730</ele>
        <time>2021-11-13T15:33:04.593Z</time>
      </trkpt>
      <trkpt lat="47.550498" lon="7.903445">
        <ele>305.909832</ele>
        <time>2021-11-13T15:33:14.843Z</time>
      </trkpt>
      <trkpt lat="47.550302" lon="7.904164">
        <ele>303.932380</ele>
        <time>2021-11-13T15:33:22.103Z</time>
      </trkpt>
      <trkpt lat="47.550025" lon="7.904774">
        <ele>302.051043</ele>
        <time>2021-11-13T15:33:29.028Z</time>
      </trkpt>
      <trkpt lat="47.549868" lon="7.905010">
        <ele>301.203100</ele>
        <time>2021-11-13T15:33:32.160Z</time>
      </trkpt>
      <trkpt lat="47.549867" lon="7.905155">
        <ele>300.832036</ele>
        <time>2021-11-13T15:33:33.556Z</time>
      </trkpt>
      <trkpt lat="47.550067" lon="7.905245">
        <ele>300.039572</ele>
        <time>2021-11-13T15:33:36.482Z</time>
      </trkpt>
      <trkpt lat="47.550283" lon="7.905413">
        <ele>299.114671</ele>
        <time>2021-11-13T15:33:39.932Z</time>
      </trkpt>
      <trkpt lat="47.550497" lon="7.905558">
        <ele>298.406802</ele>
        <time>2021-11-13T15:33:43.290Z</time>
      </trkpt>
      <trkpt lat="47.549539" lon="7.908625">
        <ele>293.225845</ele>
        <time>2021-11-13T15:34:07.722Z</time>
      </trkpt>
      <trkpt lat="47.549520" lon="7.908678">
        <ele>293.163479</ele>
        <time>2021-11-13T15:34:08.231Z</time>
      </trkpt>
      <trkpt lat="47.549404" lon="7.909062">
        <ele>292.726268</ele>
        <time>2021-11-13T15:34:11.655Z</time>
      </trkpt>
      <trkpt lat="47.549329" lon="7.909310">
        <ele>292.443849</ele>
        <time>2021-11-13T15:34:13.883Z</time>
      </trkpt>
      <trkpt lat="47.549195" lon="7.909756">
        <ele>291.936503</ele>
        <time>2021-11-13T15:34:17.877Z</time>
      </trkpt>
      <trkpt lat="47.549102" lon="7.910058">
        <ele>291.591530</ele>
        <time>2021-11-13T15:34:20.562Z</time>
      </trkpt>
      <trkpt lat="47.549012" lon="7.910340">
        <ele>291.310078</ele>
        <time>2021-11-13T15:34:23.086Z</time>
      </trkpt>
      <trkpt lat="47.548412" lon="7.912168">
        <ele>289.759697</ele>
        <time>2021-11-13T15:34:39.432Z</time>
      </trkpt>
      <trkpt lat="47.548027" lon="7.913334">
        <ele>289.143116</ele>
        <time>2021-11-13T15:34:50.193Z</time>
      </trkpt>
      <trkpt lat="47.547994" lon="7.913433">
        <ele>289.109162</ele>
        <time>2021-11-13T15:34:51.114Z</time>
      </trkpt>
      <trkpt lat="47.547423" lon="7.915080">
        <ele>288.608705</ele>
        <time>2021-11-13T15:35:08.602Z</time>
      </trkpt>
      <trkpt lat="47.547113" lon="7.915971">
        <ele>288.887755</ele>
        <time>2021-11-13T15:35:19.240Z</time>
      </trkpt>
      <trkpt lat="47.547091" lon="7.916039">
        <ele>288.908747</ele>
        <time>2021-11-13T15:35:20.290Z</time>
      </trkpt>
      <trkpt lat="47.547032" lon="7.916218">
        <ele>288.964201</ele>
        <time>2021-11-13T15:35:22.561Z</time>
      </trkpt>
      <trkpt lat="47.546821" lon="7.916867">
        <ele>289.164737</ele>
        <time>2021-11-13T15:35:30.976Z</time>
      </trkpt>
      <trkpt lat="47.546262" lon="7.919081">
        <ele>289.802774</ele>
        <time>2021-11-13T15:35:58.637Z</time>
      </trkpt>
      <trkpt lat="47.546128" lon="7.919617">
        <ele>289.955589</ele>
        <time>2021-11-13T15:36:04.065Z</time>
      </trkpt>
      <trkpt lat="47.545973" lon="7.920313">
        <ele>290.292750</ele>
        <time>2021-11-13T15:36:11.485Z</time>
      </trkpt>
      <trkpt lat="47.545913" lon="7.920765">
        <ele>290.559222</ele>
        <time>2021-11-13T15:36:16.242Z</time>
      </trkpt>
      <trkpt lat="47.545881" lon="7.921096">
        <ele>290.752647</ele>
        <time>2021-11-13T15:36:20.209Z</time>
      </trkpt>
      <trkpt lat="47.545810" lon="7.921755">
        <ele>291.138678</ele>
        <time>2021-11-13T15:36:28.819Z</time>
      </trkpt>
      <trkpt lat="47.545778" lon="7.921947">
        <ele>291.253079</ele>
        <time>2021-11-13T15:36:31.773Z</time>
      </trkpt>
      <trkpt lat="47.545714" lon="7.922249">
        <ele>291.436182</ele>
        <time>2021-11-13T15:36:35.626Z</time>
      </trkpt>
      <trkpt lat="47.545699" lon="7.922325">
        <ele>291.481986</ele>
        <time>2021-11-13T15:36:36.824Z</time>
      </trkpt>
      <trkpt lat="47.545690" lon="7.922369">
        <ele>291.508581</ele>
        <time>2021-11-13T15:36:37.895Z</time>
      </trkpt>
      <trkpt lat="47.545641" lon="7.922610">
        <ele>291.887619</ele>
        <time>2021-11-13T15:36:41.251Z</time>
      </trkpt>
      <trkpt lat="47.545587" lon="7.922895">
        <ele>292.542796</ele>
        <time>2021-11-13T15:36:46.083Z</time>
      </trkpt>
      <trkpt lat="47.545553" lon="7.923142">
        <ele>293.100740</ele>
        <time>2021-11-13T15:36:49.693Z</time>
      </trkpt>
      <trkpt lat="47.545536" lon="7.923407">
        <ele>293.689915</ele>
        <time>2021-11-13T15:36:54.569Z</time>
      </trkpt>
      <trkpt lat="47.545521" lon="7.923709">
        <ele>294.360147</ele>
        <time>2021-11-13T15:36:59.736Z</time>
      </trkpt>
      <trkpt lat="47.545481" lon="7.924396">
        <ele>295.886351</ele>
        <time>2021-11-13T15:37:14.339Z</time>
      </trkpt>
      <trkpt lat="47.545466" lon="7.924880">
        <ele>296.958732</ele>
        <time>2021-11-13T15:37:25.646Z</time>
      </trkpt>
      <trkpt lat="47.545446" lon="7.925350">
        <ele>297.935118</ele>
        <time>2021-11-13T15:37:36.021Z</time>
      </trkpt>
      <trkpt lat="47.545417" lon="7.925848">
        <ele>298.904252</ele>
        <time>2021-11-13T15:37:46.500Z</time>
      </trkpt>
      <trkpt lat="47.545409" lon="7.926773">
        <ele>300.697837</ele>
        <time>2021-11-13T15:38:03.701Z</time>
      </trkpt>
      <trkpt lat="47.545407" lon="7.927001">
        <ele>301.139932</ele>
        <time>2021-11-13T15:38:07.510Z</time>
      </trkpt>
      <trkpt lat="47.545406" lon="7.927306">
        <ele>301.731289</ele>
        <time>2021-11-13T15:38:12.114Z</time>
      </trkpt>
      <trkpt lat="47.545421" lon="7.927686">
        <ele>302.469311</ele>
        <time>2021-11-13T15:38:17.650Z</time>
      </trkpt>
      <trkpt lat="47.545475" lon="7.928419">
        <ele>302.240242</ele>
        <time>2021-11-13T15:38:26.967Z</time>
      </trkpt>
      <trkpt lat="47.545563" lon="7.929641">
        <ele>301.494485</ele>
        <time>2021-11-13T15:38:36.847Z</time>
      </trkpt>
      <trkpt lat="47.545661" lon="7.930955">
        <ele>300.444897</ele>
        <time>2021-11-13T15:38:46.242Z</time>
      </trkpt>
      <trkpt lat="47.545696" lon="7.931497">
        <ele>299.864091</ele>
        <time>2021-11-13T15:38:50.211Z</time>
      </trkpt>
      <trkpt lat="47.545721" lon="7.931992">
        <ele>299.334585</ele>
        <time>2021-11-13T15:38:54.004Z</time>
      </trkpt>
      <trkpt lat="47.545724" lon="7.932758">
        <ele>298.517459</ele>
        <time>2021-11-13T15:39:00.213Z</time>
      </trkpt>
      <trkpt lat="47.545702" lon="7.933290">
        <ele>298.266099</ele>
        <time>2021-11-13T15:39:04.856Z</time>
      </trkpt>
      <trkpt lat="47.545674" lon="7.933625">
        <ele>298.408526</ele>
        <time>2021-11-13T15:39:08.056Z</time>
      </trkpt>
      <trkpt lat="47.545457" lon="7.935110">
        <ele>299.049611</ele>
        <time>2021-11-13T15:39:26.191Z</time>
      </trkpt>
      <trkpt lat="47.545074" lon="7.936484">
        <ele>300.317957</ele>
        <time>2021-11-13T15:39:47.719Z</time>
      </trkpt>
      <trkpt lat="47.544903" lon="7.936917">
        <ele>300.890218</ele>
        <time>2021-11-13T15:39:55.035Z</time>
      </trkpt>
      <trkpt lat="47.544705" lon="7.937395">
        <ele>301.529970</ele>
        <time>2021-11-13T15:40:03.219Z</time>
      </trkpt>
      <trkpt lat="47.544472" lon="7.937932">
        <ele>302.258184</ele>
        <time>2021-11-13T15:40:12.626Z</time>
      </trkpt>
      <trkpt lat="47.543826" lon="7.939433">
        <ele>304.365811</ele>
        <time>2021-11-13T15:40:39.508Z</time>
      </trkpt>
      <trkpt lat="47.543435" lon="7.940670">
        <ele>305.735977</ele>
        <time>2021-11-13T15:40:59.468Z</time>
      </trkpt>
      <trkpt lat="47.543161" lon="7.942213">
        <ele>306.656116</ele>
        <time>2021-11-13T15:41:20.318Z</time>
      </trkpt>
      <trkpt lat="47.543007" lon="7.943867">
        <ele>306.126240</ele>
        <time>2021-11-13T15:41:35.862Z</time>
      </trkpt>
      <trkpt lat="47.542913" lon="7.945267">
        <ele>304.858788</ele>
        <time>2021-11-13T15:41:46.627Z</time>
      </trkpt>
      <trkpt lat="47.542872" lon="7.945781">
        <ele>304.168679</ele>
        <time>2021-11-13T15:41:50.222Z</time>
      </trkpt>
      <trkpt lat="47.542875" lon="7.946089">
        <ele>303.636060</ele>
        <time>2021-11-13T15:41:52.349Z</time>
      </trkpt>
      <trkpt lat="47.542902" lon="7.946514">
        <ele>302.897945</ele>
        <time>2021-11-13T15:41:55.217Z</time>
      </trkpt>
      <trkpt lat="47.542943" lon="7.946806">
        <ele>302.382241</ele>
        <time>2021-11-13T15:41:57.238Z</time>
      </trkpt>
      <trkpt lat="47.542974" lon="7.946965">
        <ele>302.096077</ele>
        <time>2021-11-13T15:41:58.478Z</time>
      </trkpt>
      <trkpt lat="47.542979" lon="7.946989">
        <ele>302.052647</ele>
        <time>2021-11-13T15:41:58.634Z</time>
      </trkpt>
      <trkpt lat="47.543007" lon="7.947104">
        <ele>301.841262</ele>
        <time>2021-11-13T15:41:59.501Z</time>
      </trkpt>
      <trkpt lat="47.543087" lon="7.947317">
        <ele>301.419794</ele>
        <time>2021-11-13T15:42:01.200Z</time>
      </trkpt>
      <trkpt lat="47.543191" lon="7.947615">
        <ele>300.839735</ele>
        <time>2021-11-13T15:42:03.708Z</time>
      </trkpt>
      <trkpt lat="47.543191" lon="7.947615">
        <ele>300.839735</ele>
        <time>2021-11-13T15:42:03.713Z</time>
      </trkpt>
      <trkpt lat="47.543242" lon="7.947745">
        <ele>300.579749</ele>
        <time>2021-11-13T15:42:04.843Z</time>
      </trkpt>
      <trkpt lat="47.543273" lon="7.947816">
        <ele>300.433542</ele>
        <time>2021-11-13T15:42:05.478Z</time>
      </trkpt>
      <trkpt lat="47.543358" lon="7.947967">
        <ele>300.093580</ele>
        <time>2021-11-13T15:42:06.963Z</time>
      </trkpt>
      <trkpt lat="47.543455" lon="7.948127">
        <ele>299.971347</ele>
        <time>2021-11-13T15:42:08.573Z</time>
      </trkpt>
      <trkpt lat="47.543532" lon="7.948214">
        <ele>299.924944</ele>
        <time>2021-11-13T15:42:09.667Z</time>
      </trkpt>
      <trkpt lat="47.543579" lon="7.948287">
        <ele>299.892314</ele>
        <time>2021-11-13T15:42:10.458Z</time>
      </trkpt>
      <trkpt lat="47.543760" lon="7.948548">
        <ele>299.771282</ele>
        <time>2021-11-13T15:42:13.306Z</time>
      </trkpt>
      <trkpt lat="47.543864" lon="7.948694">
        <ele>299.702627</ele>
        <time>2021-11-13T15:42:15.048Z</time>
      </trkpt>
      <trkpt lat="47.544239" lon="7.949202">
        <ele>299.459139</ele>
        <time>2021-11-13T15:42:22.246Z</time>
      </trkpt>
      <trkpt lat="47.544521" lon="7.949558">
        <ele>299.281607</ele>
        <time>2021-11-13T15:42:28.420Z</time>
      </trkpt>
      <trkpt lat="47.544901" lon="7.950044">
        <ele>299.261206</ele>
        <time>2021-11-13T15:42:37.578Z</time>
      </trkpt>
      <trkpt lat="47.545166" lon="7.950366">
        <ele>299.384198</ele>
        <time>2021-11-13T15:42:43.908Z</time>
      </trkpt>
      <trkpt lat="47.545434" lon="7.950668">
        <ele>299.505030</ele>
        <time>2021-11-13T15:42:49.692Z</time>
      </trkpt>
      <trkpt lat="47.545542" lon="7.950842">
        <ele>299.562288</ele>
        <time>2021-11-13T15:42:52.176Z</time>
      </trkpt>
      <trkpt lat="47.545667" lon="7.950979">
        <ele>299.618085</ele>
        <time>2021-11-13T15:42:54.712Z</time>
      </trkpt>
      <trkpt lat="47.545737" lon="7.951055">
        <ele>299.649229</ele>
        <time>2021-11-13T15:42:55.985Z</time>
      </trkpt>
      <trkpt lat="47.545876" lon="7.951233">
        <ele>299.715161</ele>
        <time>2021-11-13T15:42:58.728Z</time>
      </trkpt>
      <trkpt lat="47.546112" lon="7.951485">
        <ele>299.804605</ele>
        <time>2021-11-13T15:43:02.861Z</time>
      </trkpt>
      <trkpt lat="47.546164" lon="7.951520">
        <ele>299.782379</ele>
        <time>2021-11-13T15:43:03.700Z</time>
      </trkpt>
      <trkpt lat="47.546212" lon="7.951535">
        <ele>299.763289</ele>
        <time>2021-11-13T15:43:04.414Z</time>
      </trkpt>
      <trkpt lat="47.546231" lon="7.951558">
        <ele>299.753740</ele>
        <time>2021-11-13T15:43:04.732Z</time>
      </trkpt>
      <trkpt lat="47.546421" lon="7.951793">
        <ele>299.657422</ele>
        <time>2021-11-13T15:43:08.036Z</time>
      </trkpt>
      <trkpt lat="47.546634" lon="7.952024">
        <ele>299.554698</ele>
        <time>2021-11-13T15:43:11.465Z</time>
      </trkpt>
      <trkpt lat="47.546695" lon="7.952091">
        <ele>299.525148</ele>
        <time>2021-11-13T15:43:12.429Z</time>
      </trkpt>
      <trkpt lat="47.546776" lon="7.952185">
        <ele>299.485108</ele>
        <time>2021-11-13T15:43:13.779Z</time>
      </trkpt>
      <trkpt lat="47.546935" lon="7.952372">
        <ele>299.406106</ele>
        <time>2021-11-13T15:43:16.427Z</time>
      </trkpt>
      <trkpt lat="47.547090" lon="7.952543">
        <ele>299.330902</ele>
        <time>2021-11-13T15:43:19.038Z</time>
      </trkpt>
      <trkpt lat="47.547400" lon="7.952910">
        <ele>299.176481</ele>
        <time>2021-11-13T15:43:24.442Z</time>
      </trkpt>
      <trkpt lat="47.547458" lon="7.952975">
        <ele>299.148180</ele>
        <time>2021-11-13T15:43:25.430Z</time>
      </trkpt>
      <trkpt lat="47.547550" lon="7.953078">
        <ele>299.098542</ele>
        <time>2021-11-13T15:43:27.040Z</time>
      </trkpt>
      <trkpt lat="47.547624" lon="7.953160">
        <ele>299.043837</ele>
        <time>2021-11-13T15:43:28.296Z</time>
      </trkpt>
      <trkpt lat="47.547797" lon="7.953355">
        <ele>298.915151</ele>
        <time>2021-11-13T15:43:31.301Z</time>
      </trkpt>
      <trkpt lat="47.547871" lon="7.953437">
        <ele>298.860445</ele>
        <time>2021-11-13T15:43:32.596Z</time>
      </trkpt>
      <trkpt lat="47.547994" lon="7.953584">
        <ele>298.766892</ele>
        <time>2021-11-13T15:43:34.776Z</time>
      </trkpt>
      <trkpt lat="47.548115" lon="7.953729">
        <ele>298.674762</ele>
        <time>2021-11-13T15:43:36.926Z</time>
      </trkpt>
      <trkpt lat="47.548251" lon="7.953895">
        <ele>298.570447</ele>
        <time>2021-11-13T15:43:39.327Z</time>
      </trkpt>
      <trkpt lat="47.548335" lon="7.953779">
        <ele>298.502467</ele>
        <time>2021-11-13T15:43:41.232Z</time>
      </trkpt>
      <trkpt lat="47.548893" lon="7.953482">
        <ele>298.151465</ele>
        <time>2021-11-13T15:43:52.103Z</time>
      </trkpt>
      <trkpt lat="47.549296" lon="7.953268">
        <ele>297.627395</ele>
        <time>2021-11-13T15:43:59.573Z</time>
      </trkpt>
      <trkpt lat="47.549442" lon="7.953195">
        <ele>297.371185</ele>
        <time>2021-11-13T15:44:02.125Z</time>
      </trkpt>
      <trkpt lat="47.549640" lon="7.953086">
        <ele>297.019971</ele>
        <time>2021-11-13T15:44:05.838Z</time>
      </trkpt>
      <trkpt lat="47.549673" lon="7.953076">
        <ele>296.963965</ele>
        <time>2021-11-13T15:44:06.397Z</time>
      </trkpt>
      <trkpt lat="47.549687" lon="7.953071">
        <ele>296.940020</ele>
        <time>2021-11-13T15:44:06.588Z</time>
      </trkpt>
      <trkpt lat="47.550567" lon="7.953069">
        <ele>295.476811</ele>
        <time>2021-11-13T15:44:20.763Z</time>
      </trkpt>
      <trkpt lat="47.550656" lon="7.953072">
        <ele>295.328790</ele>
        <time>2021-11-13T15:44:22.079Z</time>
      </trkpt>
      <trkpt lat="47.550967" lon="7.953063">
        <ele>294.755935</ele>
        <time>2021-11-13T15:44:26.843Z</time>
      </trkpt>
      <trkpt lat="47.551254" lon="7.952986">
        <ele>294.161006</ele>
        <time>2021-11-13T15:44:31.232Z</time>
      </trkpt>
      <trkpt lat="47.551295" lon="7.952900">
        <ele>294.016053</ele>
        <time>2021-11-13T15:44:32.295Z</time>
      </trkpt>
      <trkpt lat="47.551334" lon="7.952777">
        <ele>293.828965</ele>
        <time>2021-11-13T15:44:34.970Z</time>
      </trkpt>
      <trkpt lat="47.551339" lon="7.952761">
        <ele>293.804691</ele>
        <time>2021-11-13T15:44:35.341Z</time>
      </trkpt>
      <trkpt lat="47.551381" lon="7.952341">
        <ele>293.220170</ele>
        <time>2021-11-13T15:44:44.122Z</time>
      </trkpt>
      <trkpt lat="47.551506" lon="7.950255">
        <ele>291.195385</ele>
        <time>2021-11-13T15:45:29.659Z</time>
      </trkpt>
      <trkpt lat="47.551525" lon="7.950027">
        <ele>291.137366</ele>
        <time>2021-11-13T15:45:35.120Z</time>
      </trkpt>
      <trkpt lat="47.551581" lon="7.949830">
        <ele>291.083381</ele>
        <time>2021-11-13T15:45:40.272Z</time>
      </trkpt>
      <trkpt lat="47.551673" lon="7.949634">
        <ele>291.023087</ele>
        <time>2021-11-13T15:45:46.358Z</time>
      </trkpt>
      <trkpt lat="47.551794" lon="7.949387">
        <ele>290.946008</ele>
        <time>2021-11-13T15:45:53.920Z</time>
      </trkpt>
      <trkpt lat="47.552010" lon="7.949039">
        <ele>290.826606</ele>
        <time>2021-11-13T15:46:06.107Z</time>
      </trkpt>
      <trkpt lat="47.552049" lon="7.948982">
        <ele>290.806108</ele>
        <time>2021-11-13T15:46:08.269Z</time>
      </trkpt>
      <trkpt lat="47.552094" lon="7.948926">
        <ele>290.784118</ele>
        <time>2021-11-13T15:46:10.614Z</time>
      </trkpt>
      <trkpt lat="47.552202" lon="7.949003">
        <ele>290.739270</ele>
        <time>2021-11-13T15:46:15.324Z</time>
      </trkpt>
      <trkpt lat="47.552351" lon="7.949099">
        <ele>290.709220</ele>
        <time>2021-11-13T15:46:21.743Z</time>
      </trkpt>
      <trkpt lat="47.552382" lon="7.949119">
        <ele>290.707167</ele>
        <time>2021-11-13T15:46:23.176Z</time>
      </trkpt>
      <trkpt lat="47.552518" lon="7.949236">
        <ele>290.697620</ele>
        <time>2021-11-13T15:46:29.512Z</time>
      </trkpt>
      <trkpt lat="47.552953" lon="7.948775">
        <ele>290.665151</ele>
        <time>2021-11-13T15:46:50.533Z</time>
      </trkpt>
      <trkpt lat="47.553004" lon="7.948726">
        <ele>290.661461</ele>
        <time>2021-11-13T15:46:52.928Z</time>
      </trkpt>
      <trkpt lat="47.553197" lon="7.948543">
        <ele>290.647550</ele>
        <time>2021-11-13T15:47:01.272Z</time>
      </trkpt>
      <trkpt lat="47.553243" lon="7.948595">
        <ele>290.644038</ele>
        <time>2021-11-13T15:47:03.329Z</time>
      </trkpt>
      <trkpt lat="47.553488" lon="7.949175">
        <ele>290.616002</ele>
        <time>2021-11-13T15:47:19.522Z</time>
      </trkpt>
      <trkpt lat="47.553669" lon="7.949729">
        <ele>290.324252</ele>
        <time>2021-11-13T15:47:33.555Z</time>
      </trkpt>
      <trkpt lat="47.553699" lon="7.949840">
        <ele>290.233423</ele>
        <time>2021-11-13T15:47:36.143Z</time>
      </trkpt>
      <trkpt lat="47.553747" lon="7.950009">
        <ele>290.094142</ele>
        <time>2021-11-13T15:47:40.219Z</time>
      </trkpt>
      <trkpt lat="47.553836" lon="7.950173">
        <ele>289.934284</ele>
        <time>2021-11-13T15:47:45.050Z</time>
      </trkpt>
      <trkpt lat="47.553918" lon="7.950361">
        <ele>289.764247</ele>
        <time>2021-11-13T15:47:49.896Z</time>
      </trkpt>
      <trkpt lat="47.554036" lon="7.950322">
        <ele>289.628169</ele>
        <time>2021-11-13T15:47:53.879Z</time>
      </trkpt>
      <trkpt lat="47.554130" lon="7.950301">
        <ele>289.521172</ele>
        <time>2021-11-13T15:47:57.180Z</time>
      </trkpt>
      <trkpt lat="47.554192" lon="7.950296">
        <ele>289.451285</ele>
        <time>2021-11-13T15:47:59.138Z</time>
      </trkpt>
      <trkpt lat="47.554240" lon="7.950300">
        <ele>289.397174</ele>
        <time>2021-11-13T15:48:00.696Z</time>
      </trkpt>
      <trkpt lat="47.554303" lon="7.950312">
        <ele>289.325681</ele>
        <time>2021-11-13T15:48:01.434Z</time>
      </trkpt>
      <trkpt lat="47.554392" lon="7.950331">
        <ele>289.224474</ele>
        <time>2021-11-13T15:48:02.508Z</time>
      </trkpt>
      <trkpt lat="47.554652" lon="7.950448">
        <ele>288.918635</ele>
        <time>2021-11-13T15:48:05.721Z</time>
      </trkpt>
      <trkpt lat="47.554759" lon="7.950515">
        <ele>288.787890</ele>
        <time>2021-11-13T15:48:07.127Z</time>
      </trkpt>
      <trkpt lat="47.554954" lon="7.950665">
        <ele>288.573840</ele>
        <time>2021-11-13T15:48:09.761Z</time>
      </trkpt>
      <trkpt lat="47.555474" lon="7.951144">
        <ele>288.444319</ele>
        <time>2021-11-13T15:48:17.645Z</time>
      </trkpt>
      <trkpt lat="47.555687" lon="7.951449">
        <ele>288.381661</ele>
        <time>2021-11-13T15:48:21.729Z</time>
      </trkpt>
      <trkpt lat="47.556339" lon="7.952382">
        <ele>288.232419</ele>
        <time>2021-11-13T15:48:35.792Z</time>
      </trkpt>
      <trkpt lat="47.556386" lon="7.952449">
        <ele>288.271280</ele>
        <time>2021-11-13T15:48:36.960Z</time>
      </trkpt>
      <trkpt lat="47.556400" lon="7.952468">
        <ele>288.282592</ele>
        <time>2021-11-13T15:48:37.272Z</time>
      </trkpt>
      <trkpt lat="47.557120" lon="7.953536">
        <ele>288.889636</ele>
        <time>2021-11-13T15:48:55.300Z</time>
      </trkpt>
      <trkpt lat="47.557517" lon="7.954117">
        <ele>289.222117</ele>
        <time>2021-11-13T15:49:05.146Z</time>
      </trkpt>
      <trkpt lat="47.557687" lon="7.954371">
        <ele>289.293612</ele>
        <time>2021-11-13T15:49:09.260Z</time>
      </trkpt>
      <trkpt lat="47.557874" lon="7.954579">
        <ele>289.324731</ele>
        <time>2021-11-13T15:49:12.987Z</time>
      </trkpt>
      <trkpt lat="47.557899" lon="7.954581">
        <ele>289.328063</ele>
        <time>2021-11-13T15:49:13.484Z</time>
      </trkpt>
      <trkpt lat="47.557935" lon="7.954571">
        <ele>289.332937</ele>
        <time>2021-11-13T15:49:14.134Z</time>
      </trkpt>
      <trkpt lat="47.558070" lon="7.954468">
        <ele>289.353146</ele>
        <time>2021-11-13T15:49:16.504Z</time>
      </trkpt>
      <trkpt lat="47.558107" lon="7.954410">
        <ele>289.360314</ele>
        <time>2021-11-13T15:49:17.433Z</time>
      </trkpt>
      <trkpt lat="47.558161" lon="7.954466">
        <ele>289.369085</ele>
        <time>2021-11-13T15:49:18.425Z</time>
      </trkpt>
      <trkpt lat="47.558201" lon="7.954539">
        <ele>289.377531</ele>
        <time>2021-11-13T15:49:19.507Z</time>
      </trkpt>
      <trkpt lat="47.558360" lon="7.955074">
        <ele>289.430033</ele>
        <time>2021-11-13T15:49:25.712Z</time>
      </trkpt>
      <trkpt lat="47.558659" lon="7.956055">
        <ele>289.451560</ele>
        <time>2021-11-13T15:49:36.012Z</time>
      </trkpt>
      <trkpt lat="47.558756" lon="7.956469">
        <ele>289.287344</ele>
        <time>2021-11-13T15:49:39.905Z</time>
      </trkpt>
      <trkpt lat="47.559224" lon="7.958738">
        <ele>288.545755</ele>
        <time>2021-11-13T15:50:00.349Z</time>
      </trkpt>
      <trkpt lat="47.559324" lon="7.959601">
        <ele>288.637808</ele>
        <time>2021-11-13T15:50:08.707Z</time>
      </trkpt>
      <trkpt lat="47.559346" lon="7.959868">
        <ele>288.666086</ele>
        <time>2021-11-13T15:50:11.801Z</time>
      </trkpt>
      <trkpt lat="47.559406" lon="7.960730">
        <ele>288.757188</ele>
        <time>2021-11-13T15:50:21.284Z</time>
      </trkpt>
      <trkpt lat="47.559408" lon="7.961845">
        <ele>289.165785</ele>
        <time>2021-11-13T15:50:35.049Z</time>
      </trkpt>
      <trkpt lat="47.559368" lon="7.962709">
        <ele>289.585332</ele>
        <time>2021-11-13T15:50:46.291Z</time>
      </trkpt>
      <trkpt lat="47.559232" lon="7.963800">
        <ele>290.082443</ele>
        <time>2021-11-13T15:50:58.883Z</time>
      </trkpt>
      <trkpt lat="47.559029" lon="7.964894">
        <ele>290.047247</ele>
        <time>2021-11-13T15:51:10.586Z</time>
      </trkpt>
      <trkpt lat="47.558949" lon="7.965326">
        <ele>290.033351</ele>
        <time>2021-11-13T15:51:14.822Z</time>
      </trkpt>
      <trkpt lat="47.558732" lon="7.966356">
        <ele>290.024705</ele>
        <time>2021-11-13T15:51:24.767Z</time>
      </trkpt>
      <trkpt lat="47.558606" lon="7.966985">
        <ele>290.222751</ele>
        <time>2021-11-13T15:51:31.282Z</time>
      </trkpt>
      <trkpt lat="47.558448" lon="7.967701">
        <ele>290.450130</ele>
        <time>2021-11-13T15:51:38.891Z</time>
      </trkpt>
      <trkpt lat="47.558430" lon="7.967788">
        <ele>290.477597</ele>
        <time>2021-11-13T15:51:39.987Z</time>
      </trkpt>
      <trkpt lat="47.558361" lon="7.968001">
        <ele>290.548913</ele>
        <time>2021-11-13T15:51:43.013Z</time>
      </trkpt>
      <trkpt lat="47.558327" lon="7.968108">
        <ele>290.584612</ele>
        <time>2021-11-13T15:51:44.249Z</time>
      </trkpt>
      <trkpt lat="47.558313" lon="7.968259">
        <ele>290.630618</ele>
        <time>2021-11-13T15:51:45.904Z</time>
      </trkpt>
      <trkpt lat="47.558366" lon="7.968291">
        <ele>290.656216</ele>
        <time>2021-11-13T15:51:47.256Z</time>
      </trkpt>
      <trkpt lat="47.558617" lon="7.968374">
        <ele>290.771245</ele>
        <time>2021-11-13T15:51:51.885Z</time>
      </trkpt>
      <trkpt lat="47.558761" lon="7.968396">
        <ele>290.941287</ele>
        <time>2021-11-13T15:51:55.136Z</time>
      </trkpt>
      <trkpt lat="47.559255" lon="7.968471">
        <ele>291.961483</ele>
        <time>2021-11-13T15:52:05.100Z</time>
      </trkpt>
      <trkpt lat="47.559532" lon="7.968492">
        <ele>292.531302</ele>
        <time>2021-11-13T15:52:11.627Z</time>
      </trkpt>
      <trkpt lat="47.559774" lon="7.968514">
        <ele>293.029406</ele>
        <time>2021-11-13T15:52:17.671Z</time>
      </trkpt>
      <trkpt lat="47.559955" lon="7.968562">
        <ele>293.407164</ele>
        <time>2021-11-13T15:52:21.909Z</time>
      </trkpt>
      <trkpt lat="47.560859" lon="7.968941">
        <ele>296.295783</ele>
        <time>2021-11-13T15:52:45.309Z</time>
      </trkpt>
      <trkpt lat="47.561059" lon="7.969025">
        <ele>297.212866</ele>
        <time>2021-11-13T15:52:51.375Z</time>
      </trkpt>
      <trkpt lat="47.561113" lon="7.969048">
        <ele>297.460740</ele>
        <time>2021-11-13T15:52:53.054Z</time>
      </trkpt>
      <trkpt lat="47.561101" lon="7.969103">
        <ele>297.632821</ele>
        <time>2021-11-13T15:52:54.179Z</time>
      </trkpt>
      <trkpt lat="47.561075" lon="7.969222">
        <ele>298.005190</ele>
        <time>2021-11-13T15:52:56.565Z</time>
      </trkpt>
      <trkpt lat="47.561012" lon="7.969521">
        <ele>298.937697</ele>
        <time>2021-11-13T15:53:04.468Z</time>
      </trkpt>
      <trkpt lat="47.561077" lon="7.969584">
        <ele>299.280342</ele>
        <time>2021-11-13T15:53:06.797Z</time>
      </trkpt>
      <trkpt lat="47.561207" lon="7.969794">
        <ele>300.128726</ele>
        <time>2021-11-13T15:53:14.087Z</time>
      </trkpt>
      <trkpt lat="47.561250" lon="7.969992">
        <ele>300.747945</ele>
        <time>2021-11-13T15:53:19.039Z</time>
      </trkpt>
      <trkpt lat="47.561300" lon="7.970209">
        <ele>301.430573</ele>
        <time>2021-11-13T15:53:23.364Z</time>
      </trkpt>
      <trkpt lat="47.561319" lon="7.970293">
        <ele>301.694315</ele>
        <time>2021-11-13T15:53:26.923Z</time>
      </trkpt>
      <trkpt lat="47.561534" lon="7.970899">
        <ele>304.940782</ele>
        <time>2021-11-13T15:53:44.451Z</time>
      </trkpt>
      <trkpt lat="47.561682" lon="7.971192">
        <ele>307.046403</ele>
        <time>2021-11-13T15:53:54.866Z</time>
      </trkpt>
      <trkpt lat="47.561716" lon="7.971255">
        <ele>307.510510</ele>
        <time>2021-11-13T15:53:57.946Z</time>
      </trkpt>
      <trkpt lat="47.561856" lon="7.971566">
        <ele>309.661322</ele>
        <time>2021-11-13T15:54:08.939Z</time>
      </trkpt>
      <trkpt lat="47.561959" lon="7.971806">
        <ele>311.297660</ele>
        <time>2021-11-13T15:54:19.640Z</time>
      </trkpt>
      <trkpt lat="47.561984" lon="7.972078">
        <ele>312.876952</ele>
        <time>2021-11-13T15:54:29.450Z</time>
      </trkpt>
      <trkpt lat="47.562063" lon="7.972426">
        <ele>314.989285</ele>
        <time>2021-11-13T15:54:44.103Z</time>
      </trkpt>
      <trkpt lat="47.562247" lon="7.972843">
        <ele>317.866557</ele>
        <time>2021-11-13T15:55:02.458Z</time>
      </trkpt>
      <trkpt lat="47.562270" lon="7.972880">
        <ele>318.193371</ele>
        <time>2021-11-13T15:55:05.140Z</time>
      </trkpt>
      <trkpt lat="47.562391" lon="7.972987">
        <ele>319.549907</ele>
        <time>2021-11-13T15:55:12.763Z</time>
      </trkpt>
      <trkpt lat="47.562482" lon="7.973084">
        <ele>320.629081</ele>
        <time>2021-11-13T15:55:19.350Z</time>
      </trkpt>
      <trkpt lat="47.562624" lon="7.973211">
        <ele>322.225827</ele>
        <time>2021-11-13T15:55:28.339Z</time>
      </trkpt>
      <trkpt lat="47.562835" lon="7.973351">
        <ele>324.451499</ele>
        <time>2021-11-13T15:55:40.551Z</time>
      </trkpt>
      <trkpt lat="47.563057" lon="7.973484">
        <ele>326.756802</ele>
        <time>2021-11-13T15:55:53.599Z</time>
      </trkpt>
      <trkpt lat="47.563140" lon="7.973536">
        <ele>327.624341</ele>
        <time>2021-11-13T15:55:58.149Z</time>
      </trkpt>
      <trkpt lat="47.563511" lon="7.973794">
        <ele>331.569771</ele>
        <time>2021-11-13T15:56:19.982Z</time>
      </trkpt>
      <trkpt lat="47.564852" lon="7.975095">
        <ele>346.613514</ele>
        <time>2021-11-13T15:57:40.666Z</time>
      </trkpt>
      <trkpt lat="47.565200" lon="7.975372">
        <ele>350.292976</ele>
        <time>2021-11-13T15:58:02.952Z</time>
      </trkpt>
      <trkpt lat="47.565867" lon="7.975381">
        <ele>357.627807</ele>
        <time>2021-11-13T15:58:38.851Z</time>
      </trkpt>
      <trkpt lat="47.565964" lon="7.975378">
        <ele>358.748843</ele>
        <time>2021-11-13T15:58:45.978Z</time>
      </trkpt>
      <trkpt lat="47.566200" lon="7.975405">
        <ele>361.483830</ele>
        <time>2021-11-13T15:58:57.746Z</time>
      </trkpt>
      <trkpt lat="47.566542" lon="7.975527">
        <ele>365.548343</ele>
        <time>2021-11-13T15:59:17.519Z</time>
      </trkpt>
      <trkpt lat="47.566673" lon="7.975768">
        <ele>367.961093</ele>
        <time>2021-11-13T15:59:31.474Z</time>
      </trkpt>
      <trkpt lat="47.566852" lon="7.976458">
        <ele>373.927851</ele>
        <time>2021-11-13T16:00:08.403Z</time>
      </trkpt>
      <trkpt lat="47.566939" lon="7.976573">
        <ele>375.523906</ele>
        <time>2021-11-13T16:00:16.707Z</time>
      </trkpt>
      <trkpt lat="47.567134" lon="7.976669">
        <ele>378.337127</ele>
        <time>2021-11-13T16:00:34.049Z</time>
      </trkpt>
      <trkpt lat="47.567340" lon="7.976629">
        <ele>381.181616</ele>
        <time>2021-11-13T16:00:46.143Z</time>
      </trkpt>
      <trkpt lat="47.567627" lon="7.976382">
        <ele>385.725429</ele>
        <time>2021-11-13T16:01:10.926Z</time>
      </trkpt>
      <trkpt lat="47.567801" lon="7.976285">
        <ele>388.270644</ele>
        <time>2021-11-13T16:01:25.679Z</time>
      </trkpt>
      <trkpt lat="47.567987" lon="7.976370">
        <ele>390.935513</ele>
        <time>2021-11-13T16:01:37.077Z</time>
      </trkpt>
      <trkpt lat="47.568107" lon="7.976469">
        <ele>392.815838</ele>
        <time>2021-11-13T16:01:48.020Z</time>
      </trkpt>
      <trkpt lat="47.568316" lon="7.976569">
        <ele>395.822712</ele>
        <time>2021-11-13T16:02:00.125Z</time>
      </trkpt>
      <trkpt lat="47.568519" lon="7.976515">
        <ele>398.200377</ele>
        <time>2021-11-13T16:02:15.185Z</time>
      </trkpt>
      <trkpt lat="47.568748" lon="7.976336">
        <ele>400.613024</ele>
        <time>2021-11-13T16:02:30.551Z</time>
      </trkpt>
      <trkpt lat="47.568939" lon="7.976270">
        <ele>402.440686</ele>
        <time>2021-11-13T16:02:43.412Z</time>
      </trkpt>
      <trkpt lat="47.569048" lon="7.976403">
        <ele>403.756396</ele>
        <time>2021-11-13T16:02:51.333Z</time>
      </trkpt>
      <trkpt lat="47.568987" lon="7.976683">
        <ele>405.606408</ele>
        <time>2021-11-13T16:03:04.520Z</time>
      </trkpt>
      <trkpt lat="47.568951" lon="7.976729">
        <ele>406.049354</ele>
        <time>2021-11-13T16:03:06.482Z</time>
      </trkpt>
      <trkpt lat="47.568704" lon="7.977054">
        <ele>409.127334</ele>
        <time>2021-11-13T16:03:23.109Z</time>
      </trkpt>
      <trkpt lat="47.568631" lon="7.977178">
        <ele>410.162061</ele>
        <time>2021-11-13T16:03:25.802Z</time>
      </trkpt>
      <trkpt lat="47.568567" lon="7.977498">
        <ele>412.260625</ele>
        <time>2021-11-13T16:03:35.942Z</time>
      </trkpt>
      <trkpt lat="47.568118" lon="7.978684">
        <ele>418.024207</ele>
        <time>2021-11-13T16:04:07.115Z</time>
      </trkpt>
      <trkpt lat="47.568061" lon="7.979013">
        <ele>419.284572</ele>
        <time>2021-11-13T16:04:15.346Z</time>
      </trkpt>
      <trkpt lat="47.567985" lon="7.980685">
        <ele>425.627176</ele>
        <time>2021-11-13T16:04:58.568Z</time>
      </trkpt>
      <trkpt lat="47.567933" lon="7.980942">
        <ele>426.700231</ele>
        <time>2021-11-13T16:05:05.446Z</time>
      </trkpt>
      <trkpt lat="47.567665" lon="7.981438">
        <ele>429.241596</ele>
        <time>2021-11-13T16:05:21.662Z</time>
      </trkpt>
      <trkpt lat="47.567624" lon="7.981800">
        <ele>430.709626</ele>
        <time>2021-11-13T16:05:31.042Z</time>
      </trkpt>
      <trkpt lat="47.567696" lon="7.982527">
        <ele>433.648328</ele>
        <time>2021-11-13T16:05:50.133Z</time>
      </trkpt>
      <trkpt lat="47.567683" lon="7.983121">
        <ele>436.542647</ele>
        <time>2021-11-13T16:06:06.132Z</time>
      </trkpt>
      <trkpt lat="47.567590" lon="7.984165">
        <ele>442.245688</ele>
        <time>2021-11-13T16:06:35.285Z</time>
      </trkpt>
      <trkpt lat="47.567629" lon="7.984321">
        <ele>443.146664</ele>
        <time>2021-11-13T16:06:40.071Z</time>
      </trkpt>
      <trkpt lat="47.568880" lon="7.985270">
        <ele>457.235453</ele>
        <time>2021-11-13T16:07:59.044Z</time>
      </trkpt>
      <trkpt lat="47.569224" lon="7.985557">
        <ele>462.044220</ele>
        <time>2021-11-13T16:08:25.788Z</time>
      </trkpt>
      <trkpt lat="47.569441" lon="7.985823">
        <ele>465.474560</ele>
        <time>2021-11-13T16:08:43.904Z</time>
      </trkpt>
      <trkpt lat="47.569544" lon="7.985948">
        <ele>467.096214</ele>
        <time>2021-11-13T16:08:54.483Z</time>
      </trkpt>
      <trkpt lat="47.569720" lon="7.986239">
        <ele>470.308187</ele>
        <time>2021-11-13T16:09:11.910Z</time>
      </trkpt>
      <trkpt lat="47.569899" lon="7.986324">
        <ele>472.604832</ele>
        <time>2021-11-13T16:09:25.200Z</time>
      </trkpt>
      <trkpt lat="47.570188" lon="7.985852">
        <ele>477.865014</ele>
        <time>2021-11-13T16:09:54.592Z</time>
      </trkpt>
      <trkpt lat="47.570598" lon="7.985658">
        <ele>483.129439</ele>
        <time>2021-11-13T16:10:25.592Z</time>
      </trkpt>
      <trkpt lat="47.571104" lon="7.985841">
        <ele>489.500356</ele>
        <time>2021-11-13T16:11:00.065Z</time>
      </trkpt>
      <trkpt lat="47.571694" lon="7.985779">
        <ele>494.429453</ele>
        <time>2021-11-13T16:11:27.761Z</time>
      </trkpt>
      <trkpt lat="47.571967" lon="7.986077">
        <ele>496.075325</ele>
        <time>2021-11-13T16:11:41.866Z</time>
      </trkpt>
      <trkpt lat="47.572042" lon="7.986160">
        <ele>496.529695</ele>
        <time>2021-11-13T16:11:46.015Z</time>
      </trkpt>
      <trkpt lat="47.571928" lon="7.986370">
        <ele>497.412474</ele>
        <time>2021-11-13T16:11:51.909Z</time>
      </trkpt>
      <trkpt lat="47.571904" lon="7.986414">
        <ele>497.597785</ele>
        <time>2021-11-13T16:11:52.948Z</time>
      </trkpt>
      <trkpt lat="47.571515" lon="7.986697">
        <ele>499.701373</ele>
        <time>2021-11-13T16:12:05.343Z</time>
      </trkpt>
      <trkpt lat="47.571268" lon="7.987105">
        <ele>501.496739</ele>
        <time>2021-11-13T16:12:13.970Z</time>
      </trkpt>
      <trkpt lat="47.571168" lon="7.987874">
        <ele>501.422929</ele>
        <time>2021-11-13T16:12:22.692Z</time>
      </trkpt>
      <trkpt lat="47.571180" lon="7.987989">
        <ele>501.388144</ele>
        <time>2021-11-13T16:12:23.518Z</time>
      </trkpt>
      <trkpt lat="47.571208" lon="7.988246">
        <ele>501.310325</ele>
        <time>2021-11-13T16:12:25.500Z</time>
      </trkpt>
      <trkpt lat="47.571580" lon="7.989167">
        <ele>500.989450</ele>
        <time>2021-11-13T16:12:34.064Z</time>
      </trkpt>
      <trkpt lat="47.571711" lon="7.989669">
        <ele>500.850547</ele>
        <time>2021-11-13T16:12:38.524Z</time>
      </trkpt>
      <trkpt lat="47.571710" lon="7.989958">
        <ele>500.868815</ele>
        <time>2021-11-13T16:12:40.943Z</time>
      </trkpt>
      <trkpt lat="47.571712" lon="7.990384">
        <ele>500.895742</ele>
        <time>2021-11-13T16:12:44.837Z</time>
      </trkpt>
      <trkpt lat="47.571883" lon="7.992565">
        <ele>501.037132</ele>
        <time>2021-11-13T16:13:09.782Z</time>
      </trkpt>
      <trkpt lat="47.571990" lon="7.993258">
        <ele>501.088128</ele>
        <time>2021-11-13T16:13:17.846Z</time>
      </trkpt>
      <trkpt lat="47.572062" lon="7.993506">
        <ele>501.107496</ele>
        <time>2021-11-13T16:13:20.891Z</time>
      </trkpt>
      <trkpt lat="47.572207" lon="7.993915">
        <ele>501.140639</ele>
        <time>2021-11-13T16:13:25.572Z</time>
      </trkpt>
      <trkpt lat="47.572249" lon="7.994022">
        <ele>501.149519</ele>
        <time>2021-11-13T16:13:26.824Z</time>
      </trkpt>
      <trkpt lat="47.572368" lon="7.994372">
        <ele>501.177633</ele>
        <time>2021-11-13T16:13:30.539Z</time>
      </trkpt>
      <trkpt lat="47.572460" lon="7.995058">
        <ele>500.953970</ele>
        <time>2021-11-13T16:13:36.909Z</time>
      </trkpt>
      <trkpt lat="47.572468" lon="7.995163">
        <ele>500.864299</ele>
        <time>2021-11-13T16:13:37.819Z</time>
      </trkpt>
      <trkpt lat="47.572559" lon="7.996184">
        <ele>499.990333</ele>
        <time>2021-11-13T16:13:46.400Z</time>
      </trkpt>
      <trkpt lat="47.572807" lon="7.998270">
        <ele>497.581896</ele>
        <time>2021-11-13T16:14:02.324Z</time>
      </trkpt>
      <trkpt lat="47.572796" lon="7.998352">
        <ele>497.453245</ele>
        <time>2021-11-13T16:14:02.881Z</time>
      </trkpt>
      <trkpt lat="47.572763" lon="7.998535">
        <ele>497.161759</ele>
        <time>2021-11-13T16:14:04.140Z</time>
      </trkpt>
      <trkpt lat="47.572708" lon="7.998779">
        <ele>496.765889</ele>
        <time>2021-11-13T16:14:06.124Z</time>
      </trkpt>
      <trkpt lat="47.572664" lon="7.998959">
        <ele>496.471285</ele>
        <time>2021-11-13T16:14:07.398Z</time>
      </trkpt>
      <trkpt lat="47.572701" lon="7.999118">
        <ele>496.212470</ele>
        <time>2021-11-13T16:14:08.547Z</time>
      </trkpt>
      <trkpt lat="47.572737" lon="7.999234">
        <ele>496.015989</ele>
        <time>2021-11-13T16:14:09.647Z</time>
      </trkpt>
      <trkpt lat="47.572684" lon="7.999259">
        <ele>495.889129</ele>
        <time>2021-11-13T16:14:10.239Z</time>
      </trkpt>
      <trkpt lat="47.572623" lon="7.999326">
        <ele>495.715959</ele>
        <time>2021-11-13T16:14:11.006Z</time>
      </trkpt>
      <trkpt lat="47.572588" lon="7.999397">
        <ele>495.580646</ele>
        <time>2021-11-13T16:14:11.572Z</time>
      </trkpt>
      <trkpt lat="47.572560" lon="7.999471">
        <ele>495.450088</ele>
        <time>2021-11-13T16:14:12.172Z</time>
      </trkpt>
      <trkpt lat="47.572543" lon="7.999708">
        <ele>495.083336</ele>
        <time>2021-11-13T16:14:14.089Z</time>
      </trkpt>
      <trkpt lat="47.572611" lon="8.000059">
        <ele>494.714516</ele>
        <time>2021-11-13T16:14:16.663Z</time>
      </trkpt>
      <trkpt lat="47.572662" lon="8.000300">
        <ele>494.560294</ele>
        <time>2021-11-13T16:14:18.682Z</time>
      </trkpt>
      <trkpt lat="47.572747" lon="8.000534">
        <ele>494.398022</ele>
        <time>2021-11-13T16:14:20.568Z</time>
      </trkpt>
      <trkpt lat="47.572824" lon="8.000753">
        <ele>494.247233</ele>
        <time>2021-11-13T16:14:22.888Z</time>
      </trkpt>
      <trkpt lat="47.572887" lon="8.000996">
        <ele>494.088281</ele>
        <time>2021-11-13T16:14:24.782Z</time>
      </trkpt>
      <trkpt lat="47.572935" lon="8.001208">
        <ele>493.951741</ele>
        <time>2021-11-13T16:14:26.857Z</time>
      </trkpt>
      <trkpt lat="47.572943" lon="8.001367">
        <ele>493.854387</ele>
        <time>2021-11-13T16:14:28.069Z</time>
      </trkpt>
      <trkpt lat="47.572940" lon="8.001742">
        <ele>493.625400</ele>
        <time>2021-11-13T16:14:31.665Z</time>
      </trkpt>
      <trkpt lat="47.572938" lon="8.001919">
        <ele>493.517311</ele>
        <time>2021-11-13T16:14:33.059Z</time>
      </trkpt>
      <trkpt lat="47.573026" lon="8.001932">
        <ele>493.437272</ele>
        <time>2021-11-13T16:14:34.063Z</time>
      </trkpt>
      <trkpt lat="47.573126" lon="8.002031">
        <ele>493.328438</ele>
        <time>2021-11-13T16:14:36.410Z</time>
      </trkpt>
      <trkpt lat="47.573400" lon="8.002344">
        <ele>493.602338</ele>
        <time>2021-11-13T16:14:42.295Z</time>
      </trkpt>
      <trkpt lat="47.573502" lon="8.002634">
        <ele>493.993590</ele>
        <time>2021-11-13T16:14:46.792Z</time>
      </trkpt>
      <trkpt lat="47.573643" lon="8.002920">
        <ele>494.417358</ele>
        <time>2021-11-13T16:14:52.944Z</time>
      </trkpt>
      <trkpt lat="47.573679" lon="8.003065">
        <ele>494.602198</ele>
        <time>2021-11-13T16:14:55.145Z</time>
      </trkpt>
      <trkpt lat="47.573718" lon="8.003157">
        <ele>494.732183</ele>
        <time>2021-11-13T16:14:57.160Z</time>
      </trkpt>
      <trkpt lat="47.573800" lon="8.003256">
        <ele>494.919721</ele>
        <time>2021-11-13T16:15:00.398Z</time>
      </trkpt>
      <trkpt lat="47.574217" lon="8.003704">
        <ele>495.832971</ele>
        <time>2021-11-13T16:15:11.987Z</time>
      </trkpt>
      <trkpt lat="47.574305" lon="8.003732">
        <ele>495.992573</ele>
        <time>2021-11-13T16:15:14.258Z</time>
      </trkpt>
      <trkpt lat="47.574392" lon="8.003728">
        <ele>496.146921</ele>
        <time>2021-11-13T16:15:16.930Z</time>
      </trkpt>
      <trkpt lat="47.574686" lon="8.003684">
        <ele>496.386138</ele>
        <time>2021-11-13T16:15:23.046Z</time>
      </trkpt>
      <trkpt lat="47.574764" lon="8.003762">
        <ele>496.375521</ele>
        <time>2021-11-13T16:15:25.536Z</time>
      </trkpt>
      <trkpt lat="47.575168" lon="8.004892">
        <ele>496.278168</ele>
        <time>2021-11-13T16:15:41.327Z</time>
      </trkpt>
      <trkpt lat="47.575411" lon="8.005256">
        <ele>496.239186</ele>
        <time>2021-11-13T16:15:46.005Z</time>
      </trkpt>
      <trkpt lat="47.575508" lon="8.005404">
        <ele>496.223478</ele>
        <time>2021-11-13T16:15:47.558Z</time>
      </trkpt>
      <trkpt lat="47.575531" lon="8.005431">
        <ele>496.220167</ele>
        <time>2021-11-13T16:15:47.852Z</time>
      </trkpt>
      <trkpt lat="47.575756" lon="8.005585">
        <ele>495.862555</ele>
        <time>2021-11-13T16:15:50.397Z</time>
      </trkpt>
      <trkpt lat="47.575892" lon="8.005591">
        <ele>495.215780</ele>
        <time>2021-11-13T16:15:51.751Z</time>
      </trkpt>
      <trkpt lat="47.576902" lon="8.005070">
        <ele>490.132255</ele>
        <time>2021-11-13T16:16:01.822Z</time>
      </trkpt>
      <trkpt lat="47.577375" lon="8.004938">
        <ele>487.844309</ele>
        <time>2021-11-13T16:16:06.230Z</time>
      </trkpt>
      <trkpt lat="47.577792" lon="8.005044">
        <ele>486.416453</ele>
        <time>2021-11-13T16:16:10.130Z</time>
      </trkpt>
      <trkpt lat="47.578086" lon="8.005441">
        <ele>485.132873</ele>
        <time>2021-11-13T16:16:13.921Z</time>
      </trkpt>
      <trkpt lat="47.578325" lon="8.005530">
        <ele>484.337517</ele>
        <time>2021-11-13T16:16:16.365Z</time>
      </trkpt>
      <trkpt lat="47.578736" lon="8.005500">
        <ele>483.009377</ele>
        <time>2021-11-13T16:16:20.743Z</time>
      </trkpt>
      <trkpt lat="47.579228" lon="8.005324">
        <ele>481.921505</ele>
        <time>2021-11-13T16:16:27.349Z</time>
      </trkpt>
      <trkpt lat="47.579909" lon="8.004868">
        <ele>482.315094</ele>
        <time>2021-11-13T16:16:42.247Z</time>
      </trkpt>
      <trkpt lat="47.580305" lon="8.004384">
        <ele>482.585423</ele>
        <time>2021-11-13T16:16:53.771Z</time>
      </trkpt>
      <trkpt lat="47.580693" lon="8.003731">
        <ele>481.952924</ele>
        <time>2021-11-13T16:17:03.359Z</time>
      </trkpt>
      <trkpt lat="47.581433" lon="8.002768">
        <ele>477.696566</ele>
        <time>2021-11-13T16:17:13.340Z</time>
      </trkpt>
      <trkpt lat="47.581538" lon="8.002492">
        <ele>476.772636</ele>
        <time>2021-11-13T16:17:15.267Z</time>
      </trkpt>
      <trkpt lat="47.581587" lon="8.002199">
        <ele>475.892443</ele>
        <time>2021-11-13T16:17:17.119Z</time>
      </trkpt>
      <trkpt lat="47.581843" lon="8.001622">
        <ele>473.106855</ele>
        <time>2021-11-13T16:17:21.135Z</time>
      </trkpt>
      <trkpt lat="47.582003" lon="8.001392">
        <ele>471.490460</ele>
        <time>2021-11-13T16:17:23.050Z</time>
      </trkpt>
      <trkpt lat="47.582718" lon="8.001131">
        <ele>466.149856</ele>
        <time>2021-11-13T16:17:29.450Z</time>
      </trkpt>
      <trkpt lat="47.582884" lon="8.001201">
        <ele>464.898143</ele>
        <time>2021-11-13T16:17:31.161Z</time>
      </trkpt>
      <trkpt lat="47.583038" lon="8.001422">
        <ele>463.343655</ele>
        <time>2021-11-13T16:17:33.043Z</time>
      </trkpt>
      <trkpt lat="47.583129" lon="8.001600">
        <ele>462.251001</ele>
        <time>2021-11-13T16:17:36.462Z</time>
      </trkpt>
      <trkpt lat="47.583138" lon="8.001749">
        <ele>462.043814</ele>
        <time>2021-11-13T16:17:37.366Z</time>
      </trkpt>
      <trkpt lat="47.582770" lon="8.002301">
        <ele>462.642914</ele>
        <time>2021-11-13T16:17:43.039Z</time>
      </trkpt>
      <trkpt lat="47.582722" lon="8.002476">
        <ele>462.788743</ele>
        <time>2021-11-13T16:17:46.344Z</time>
      </trkpt>
      <trkpt lat="47.582735" lon="8.002783">
        <ele>463.026191</ele>
        <time>2021-11-13T16:17:48.521Z</time>
      </trkpt>
      <trkpt lat="47.582779" lon="8.003036">
        <ele>463.227875</ele>
        <time>2021-11-13T16:17:53.969Z</time>
      </trkpt>
      <trkpt lat="47.582789" lon="8.003167">
        <ele>463.329643</ele>
        <time>2021-11-13T16:17:54.897Z</time>
      </trkpt>
      <trkpt lat="47.582781" lon="8.003305">
        <ele>463.436562</ele>
        <time>2021-11-13T16:17:56.921Z</time>
      </trkpt>
      <trkpt lat="47.582727" lon="8.003464">
        <ele>463.573978</ele>
        <time>2021-11-13T16:18:03.220Z</time>
      </trkpt>
      <trkpt lat="47.582604" lon="8.004164">
        <ele>464.690554</ele>
        <time>2021-11-13T16:18:20.928Z</time>
      </trkpt>
      <trkpt lat="47.582510" lon="8.004377">
        <ele>465.965683</ele>
        <time>2021-11-13T16:18:28.218Z</time>
      </trkpt>
      <trkpt lat="47.582188" lon="8.004718">
        <ele>468.904591</ele>
        <time>2021-11-13T16:18:45.784Z</time>
      </trkpt>
      <trkpt lat="47.581764" lon="8.005054">
        <ele>472.475211</ele>
        <time>2021-11-13T16:19:07.588Z</time>
      </trkpt>
      <trkpt lat="47.581321" lon="8.006142">
        <ele>479.059466</ele>
        <time>2021-11-13T16:19:47.536Z</time>
      </trkpt>
      <trkpt lat="47.581140" lon="8.006991">
        <ele>484.188464</ele>
        <time>2021-11-13T16:20:19.570Z</time>
      </trkpt>
      <trkpt lat="47.580912" lon="8.007336">
        <ele>486.970632</ele>
        <time>2021-11-13T16:20:36.796Z</time>
      </trkpt>
      <trkpt lat="47.579923" lon="8.008040">
        <ele>494.804201</ele>
        <time>2021-11-13T16:21:27.854Z</time>
      </trkpt>
      <trkpt lat="47.579619" lon="8.008172">
        <ele>496.352717</ele>
        <time>2021-11-13T16:21:39.987Z</time>
      </trkpt>
      <trkpt lat="47.578864" lon="8.008842">
        <ele>500.654234</ele>
        <time>2021-11-13T16:22:06.922Z</time>
      </trkpt>
      <trkpt lat="47.578332" lon="8.009223">
        <ele>501.977148</ele>
        <time>2021-11-13T16:22:20.092Z</time>
      </trkpt>
      <trkpt lat="47.578269" lon="8.009376">
        <ele>502.105917</ele>
        <time>2021-11-13T16:22:22.526Z</time>
      </trkpt>
      <trkpt lat="47.578275" lon="8.009410">
        <ele>502.131164</ele>
        <time>2021-11-13T16:22:22.737Z</time>
      </trkpt>
      <trkpt lat="47.578339" lon="8.009582">
        <ele>502.272274</ele>
        <time>2021-11-13T16:22:25.723Z</time>
      </trkpt>
      <trkpt lat="47.578506" lon="8.009815">
        <ele>502.516495</ele>
        <time>2021-11-13T16:22:29.312Z</time>
      </trkpt>
      <trkpt lat="47.578802" lon="8.010247">
        <ele>502.958839</ele>
        <time>2021-11-13T16:22:36.666Z</time>
      </trkpt>
      <trkpt lat="47.578877" lon="8.010552">
        <ele>503.192043</ele>
        <time>2021-11-13T16:22:40.724Z</time>
      </trkpt>
      <trkpt lat="47.578994" lon="8.011565">
        <ele>503.679639</ele>
        <time>2021-11-13T16:22:51.958Z</time>
      </trkpt>
      <trkpt lat="47.579083" lon="8.012800">
        <ele>504.099726</ele>
        <time>2021-11-13T16:23:05.585Z</time>
      </trkpt>
      <trkpt lat="47.579303" lon="8.013994">
        <ele>504.414917</ele>
        <time>2021-11-13T16:23:20.329Z</time>
      </trkpt>
      <trkpt lat="47.579390" lon="8.014221">
        <ele>504.446113</ele>
        <time>2021-11-13T16:23:22.882Z</time>
      </trkpt>
      <trkpt lat="47.579476" lon="8.014445">
        <ele>504.476909</ele>
        <time>2021-11-13T16:23:26.429Z</time>
      </trkpt>
      <trkpt lat="47.579677" lon="8.015285">
        <ele>504.583406</ele>
        <time>2021-11-13T16:23:36.059Z</time>
      </trkpt>
      <trkpt lat="47.579693" lon="8.015395">
        <ele>504.596851</ele>
        <time>2021-11-13T16:23:37.723Z</time>
      </trkpt>
      <trkpt lat="47.579782" lon="8.016013">
        <ele>504.672358</ele>
        <time>2021-11-13T16:23:43.324Z</time>
      </trkpt>
      <trkpt lat="47.579807" lon="8.016479">
        <ele>504.696606</ele>
        <time>2021-11-13T16:23:47.127Z</time>
      </trkpt>
      <trkpt lat="47.579770" lon="8.017313">
        <ele>504.734831</ele>
        <time>2021-11-13T16:23:54.113Z</time>
      </trkpt>
      <trkpt lat="47.579800" lon="8.017631">
        <ele>504.749515</ele>
        <time>2021-11-13T16:23:58.814Z</time>
      </trkpt>
      <trkpt lat="47.579827" lon="8.017916">
        <ele>504.762678</ele>
        <time>2021-11-13T16:24:01.450Z</time>
      </trkpt>
      <trkpt lat="47.579890" lon="8.018812">
        <ele>504.898603</ele>
        <time>2021-11-13T16:24:13.159Z</time>
      </trkpt>
      <trkpt lat="47.579943" lon="8.018927">
        <ele>505.027438</ele>
        <time>2021-11-13T16:24:14.306Z</time>
      </trkpt>
      <trkpt lat="47.580093" lon="8.019071">
        <ele>505.272496</ele>
        <time>2021-11-13T16:24:18.292Z</time>
      </trkpt>
      <trkpt lat="47.580282" lon="8.019086">
        <ele>505.532042</ele>
        <time>2021-11-13T16:24:20.682Z</time>
      </trkpt>
      <trkpt lat="47.580628" lon="8.018939">
        <ele>506.025611</ele>
        <time>2021-11-13T16:24:26.975Z</time>
      </trkpt>
      <trkpt lat="47.580782" lon="8.018916">
        <ele>506.237859</ele>
        <time>2021-11-13T16:24:31.611Z</time>
      </trkpt>
      <trkpt lat="47.580830" lon="8.018918">
        <ele>506.303708</ele>
        <time>2021-11-13T16:24:33.113Z</time>
      </trkpt>
      <trkpt lat="47.580916" lon="8.019035">
        <ele>506.463772</ele>
        <time>2021-11-13T16:24:35.502Z</time>
      </trkpt>
      <trkpt lat="47.580948" lon="8.019213">
        <ele>506.634170</ele>
        <time>2021-11-13T16:24:39.446Z</time>
      </trkpt>
      <trkpt lat="47.580955" lon="8.019317">
        <ele>506.730849</ele>
        <time>2021-11-13T16:24:41.574Z</time>
      </trkpt>
      <trkpt lat="47.581039" lon="8.019934">
        <ele>507.329059</ele>
        <time>2021-11-13T16:25:01.775Z</time>
      </trkpt>
      <trkpt lat="47.581122" lon="8.020572">
        <ele>508.131536</ele>
        <time>2021-11-13T16:25:21.302Z</time>
      </trkpt>
      <trkpt lat="47.581460" lon="8.022287">
        <ele>510.338178</ele>
        <time>2021-11-13T16:26:13.170Z</time>
      </trkpt>
      <trkpt lat="47.581487" lon="8.022614">
        <ele>510.857618</ele>
        <time>2021-11-13T16:26:23.246Z</time>
      </trkpt>
      <trkpt lat="47.581513" lon="8.022860">
        <ele>511.350813</ele>
        <time>2021-11-13T16:26:28.325Z</time>
      </trkpt>
      <trkpt lat="47.581748" lon="8.024404">
        <ele>514.485873</ele>
        <time>2021-11-13T16:27:01.494Z</time>
      </trkpt>
      <trkpt lat="47.581899" lon="8.025089">
        <ele>515.955614</ele>
        <time>2021-11-13T16:27:18.782Z</time>
      </trkpt>
      <trkpt lat="47.582058" lon="8.025575">
        <ele>517.644649</ele>
        <time>2021-11-13T16:27:32.209Z</time>
      </trkpt>
      <trkpt lat="47.582102" lon="8.025700">
        <ele>518.085542</ele>
        <time>2021-11-13T16:27:36.608Z</time>
      </trkpt>
      <trkpt lat="47.582199" lon="8.025829">
        <ele>518.689627</ele>
        <time>2021-11-13T16:27:40.714Z</time>
      </trkpt>
      <trkpt lat="47.582289" lon="8.025933">
        <ele>519.218617</ele>
        <time>2021-11-13T16:27:44.363Z</time>
      </trkpt>
      <trkpt lat="47.582388" lon="8.025991">
        <ele>519.712095</ele>
        <time>2021-11-13T16:27:49.552Z</time>
      </trkpt>
      <trkpt lat="47.582723" lon="8.026030">
        <ele>521.269859</ele>
        <time>2021-11-13T16:28:02.435Z</time>
      </trkpt>
      <trkpt lat="47.582993" lon="8.025956">
        <ele>522.542727</ele>
        <time>2021-11-13T16:28:12.078Z</time>
      </trkpt>
      <trkpt lat="47.583073" lon="8.025933">
        <ele>522.920498</ele>
        <time>2021-11-13T16:28:16.060Z</time>
      </trkpt>
      <trkpt lat="47.583464" lon="8.025921">
        <ele>524.825206</ele>
        <time>2021-11-13T16:28:32.784Z</time>
      </trkpt>
      <trkpt lat="47.583871" lon="8.026235">
        <ele>527.303491</ele>
        <time>2021-11-13T16:28:52.894Z</time>
      </trkpt>
      <trkpt lat="47.583918" lon="8.026237">
        <ele>527.557468</ele>
        <time>2021-11-13T16:28:55.806Z</time>
      </trkpt>
      <trkpt lat="47.583982" lon="8.026498">
        <ele>528.569282</ele>
        <time>2021-11-13T16:29:03.064Z</time>
      </trkpt>
      <trkpt lat="47.584046" lon="8.026676">
        <ele>529.304190</ele>
        <time>2021-11-13T16:29:08.958Z</time>
      </trkpt>
      <trkpt lat="47.584080" lon="8.026751">
        <ele>529.633425</ele>
        <time>2021-11-13T16:29:12.158Z</time>
      </trkpt>
      <trkpt lat="47.584134" lon="8.026675">
        <ele>530.035608</ele>
        <time>2021-11-13T16:29:14.975Z</time>
      </trkpt>
      <trkpt lat="47.584228" lon="8.026533">
        <ele>530.760499</ele>
        <time>2021-11-13T16:29:20.154Z</time>
      </trkpt>
      <trkpt lat="47.584244" lon="8.026509">
        <ele>530.883442</ele>
        <time>2021-11-13T16:29:21.130Z</time>
      </trkpt>
      <trkpt lat="47.584323" lon="8.026391">
        <ele>531.489182</ele>
        <time>2021-11-13T16:29:26.723Z</time>
      </trkpt>
      <trkpt lat="47.585609" lon="8.024292">
        <ele>540.778334</ele>
        <time>2021-11-13T16:30:41.050Z</time>
      </trkpt>
      <trkpt lat="47.586233" lon="8.023109">
        <ele>545.328881</ele>
        <time>2021-11-13T16:31:20.292Z</time>
      </trkpt>
      <trkpt lat="47.586478" lon="8.022754">
        <ele>546.834750</ele>
        <time>2021-11-13T16:31:33.370Z</time>
      </trkpt>
      <trkpt lat="47.586795" lon="8.022396">
        <ele>548.586408</ele>
        <time>2021-11-13T16:31:48.156Z</time>
      </trkpt>
      <trkpt lat="47.587072" lon="8.021950">
        <ele>550.381681</ele>
        <time>2021-11-13T16:32:03.215Z</time>
      </trkpt>
      <trkpt lat="47.587257" lon="8.021642">
        <ele>551.585528</ele>
        <time>2021-11-13T16:32:13.380Z</time>
      </trkpt>
      <trkpt lat="47.587557" lon="8.021107">
        <ele>553.616351</ele>
        <time>2021-11-13T16:32:30.243Z</time>
      </trkpt>
      <trkpt lat="47.587801" lon="8.021555">
        <ele>555.297133</ele>
        <time>2021-11-13T16:32:43.418Z</time>
      </trkpt>
      <trkpt lat="47.587981" lon="8.021848">
        <ele>556.453956</ele>
        <time>2021-11-13T16:32:52.281Z</time>
      </trkpt>
      <trkpt lat="47.588224" lon="8.022086">
        <ele>557.714324</ele>
        <time>2021-11-13T16:33:05.109Z</time>
      </trkpt>
      <trkpt lat="47.588772" lon="8.022285">
        <ele>561.796154</ele>
        <time>2021-11-13T16:33:30.232Z</time>
      </trkpt>
      <trkpt lat="47.588947" lon="8.022297">
        <ele>563.137093</ele>
        <time>2021-11-13T16:33:38.766Z</time>
      </trkpt>
      <trkpt lat="47.589256" lon="8.022150">
        <ele>565.621042</ele>
        <time>2021-11-13T16:33:54.385Z</time>
      </trkpt>
      <trkpt lat="47.589392" lon="8.022010">
        <ele>566.888323</ele>
        <time>2021-11-13T16:34:01.302Z</time>
      </trkpt>
      <trkpt lat="47.589430" lon="8.021956">
        <ele>567.291205</ele>
        <time>2021-11-13T16:34:04.821Z</time>
      </trkpt>
      <trkpt lat="47.589615" lon="8.021880">
        <ele>568.760603</ele>
        <time>2021-11-13T16:34:14.892Z</time>
      </trkpt>
      <trkpt lat="47.589748" lon="8.021891">
        <ele>569.780211</ele>
        <time>2021-11-13T16:34:23.732Z</time>
      </trkpt>
      <trkpt lat="47.589843" lon="8.021945">
        <ele>570.558975</ele>
        <time>2021-11-13T16:34:30.796Z</time>
      </trkpt>
      <trkpt lat="47.590116" lon="8.022103">
        <ele>573.025203</ele>
        <time>2021-11-13T16:34:49.162Z</time>
      </trkpt>
      <trkpt lat="47.590395" lon="8.022117">
        <ele>575.632725</ele>
        <time>2021-11-13T16:35:04.936Z</time>
      </trkpt>
      <trkpt lat="47.590755" lon="8.022031">
        <ele>579.038708</ele>
        <time>2021-11-13T16:35:28.995Z</time>
      </trkpt>
      <trkpt lat="47.591072" lon="8.022076">
        <ele>582.013220</ele>
        <time>2021-11-13T16:35:48.311Z</time>
      </trkpt>
      <trkpt lat="47.591115" lon="8.022129">
        <ele>582.535513</ele>
        <time>2021-11-13T16:35:53.530Z</time>
      </trkpt>
      <trkpt lat="47.591140" lon="8.022229">
        <ele>583.207348</ele>
        <time>2021-11-13T16:35:58.833Z</time>
      </trkpt>
      <trkpt lat="47.591210" lon="8.023119">
        <ele>588.723717</ele>
        <time>2021-11-13T16:36:25.292Z</time>
      </trkpt>
      <trkpt lat="47.591205" lon="8.023265">
        <ele>589.193774</ele>
        <time>2021-11-13T16:36:33.033Z</time>
      </trkpt>
      <trkpt lat="47.591738" lon="8.023957">
        <ele>592.571438</ele>
        <time>2021-11-13T16:37:03.279Z</time>
      </trkpt>
      <trkpt lat="47.592067" lon="8.024331">
        <ele>594.547947</ele>
        <time>2021-11-13T16:37:16.961Z</time>
      </trkpt>
      <trkpt lat="47.592360" lon="8.024239">
        <ele>595.975868</ele>
        <time>2021-11-13T16:37:27.300Z</time>
      </trkpt>
      <trkpt lat="47.592875" lon="8.023855">
        <ele>598.675972</ele>
        <time>2021-11-13T16:37:44.520Z</time>
      </trkpt>
      <trkpt lat="47.593000" lon="8.023757">
        <ele>599.329250</ele>
        <time>2021-11-13T16:37:50.399Z</time>
      </trkpt>
      <trkpt lat="47.594098" lon="8.023267">
        <ele>604.626981</ele>
        <time>2021-11-13T16:38:37.427Z</time>
      </trkpt>
      <trkpt lat="47.594377" lon="8.023068">
        <ele>605.904631</ele>
        <time>2021-11-13T16:38:50.948Z</time>
      </trkpt>
      <trkpt lat="47.594831" lon="8.022718">
        <ele>607.647994</ele>
        <time>2021-11-13T16:39:10.738Z</time>
      </trkpt>
      <trkpt lat="47.595091" lon="8.022990">
        <ele>608.732095</ele>
        <time>2021-11-13T16:39:19.819Z</time>
      </trkpt>
      <trkpt lat="47.595671" lon="8.023213">
        <ele>610.773540</ele>
        <time>2021-11-13T16:39:35.248Z</time>
      </trkpt>
      <trkpt lat="47.596051" lon="8.023223">
        <ele>611.933051</ele>
        <time>2021-11-13T16:39:43.789Z</time>
      </trkpt>
      <trkpt lat="47.596148" lon="8.023345">
        <ele>612.240152</ele>
        <time>2021-11-13T16:39:46.141Z</time>
      </trkpt>
      <trkpt lat="47.596208" lon="8.023630">
        <ele>612.726282</ele>
        <time>2021-11-13T16:39:49.425Z</time>
      </trkpt>
      <trkpt lat="47.596116" lon="8.024152">
        <ele>613.604760</ele>
        <time>2021-11-13T16:39:55.963Z</time>
      </trkpt>
      <trkpt lat="47.596100" lon="8.024844">
        <ele>614.732150</ele>
        <time>2021-11-13T16:40:06.618Z</time>
      </trkpt>
      <trkpt lat="47.596129" lon="8.025134">
        <ele>615.209498</ele>
        <time>2021-11-13T16:40:12.251Z</time>
      </trkpt>
      <trkpt lat="47.596247" lon="8.025584">
        <ele>616.065313</ele>
        <time>2021-11-13T16:40:22.630Z</time>
      </trkpt>
      <trkpt lat="47.596374" lon="8.025833">
        <ele>617.295015</ele>
        <time>2021-11-13T16:40:30.117Z</time>
      </trkpt>
      <trkpt lat="47.596403" lon="8.026009">
        <ele>618.008641</ele>
        <time>2021-11-13T16:40:34.499Z</time>
      </trkpt>
      <trkpt lat="47.597018" lon="8.025786">
        <ele>621.706635</ele>
        <time>2021-11-13T16:41:02.110Z</time>
      </trkpt>
      <trkpt lat="47.597223" lon="8.025669">
        <ele>622.989642</ele>
        <time>2021-11-13T16:41:12.229Z</time>
      </trkpt>
      <trkpt lat="47.597401" lon="8.025846">
        <ele>624.241430</ele>
        <time>2021-11-13T16:41:21.833Z</time>
      </trkpt>
      <trkpt lat="47.597487" lon="8.026052">
        <ele>625.195716</ele>
        <time>2021-11-13T16:41:30.290Z</time>
      </trkpt>
      <trkpt lat="47.597698" lon="8.026355">
        <ele>626.898072</ele>
        <time>2021-11-13T16:41:44.057Z</time>
      </trkpt>
      <trkpt lat="47.597834" lon="8.026546">
        <ele>627.960634</ele>
        <time>2021-11-13T16:41:52.759Z</time>
      </trkpt>
      <trkpt lat="47.598023" lon="8.026853">
        <ele>629.550810</ele>
        <time>2021-11-13T16:42:05.847Z</time>
      </trkpt>
      <trkpt lat="47.598245" lon="8.026958">
        <ele>630.872665</ele>
        <time>2021-11-13T16:42:16.049Z</time>
      </trkpt>
      <trkpt lat="47.598365" lon="8.026975">
        <ele>631.556497</ele>
        <time>2021-11-13T16:42:21.674Z</time>
      </trkpt>
      <trkpt lat="47.598361" lon="8.027263">
        <ele>632.658412</ele>
        <time>2021-11-13T16:42:29.124Z</time>
      </trkpt>
      <trkpt lat="47.598472" lon="8.027302">
        <ele>633.305521</ele>
        <time>2021-11-13T16:42:33.587Z</time>
      </trkpt>
      <trkpt lat="47.598707" lon="8.027358">
        <ele>634.655723</ele>
        <time>2021-11-13T16:42:41.065Z</time>
      </trkpt>
      <trkpt lat="47.598821" lon="8.027385">
        <ele>635.310614</ele>
        <time>2021-11-13T16:42:45.659Z</time>
      </trkpt>
      <trkpt lat="47.599102" lon="8.027378">
        <ele>636.926099</ele>
        <time>2021-11-13T16:42:54.319Z</time>
      </trkpt>
      <trkpt lat="47.599389" lon="8.027316">
        <ele>638.711342</ele>
        <time>2021-11-13T16:43:03.582Z</time>
      </trkpt>
      <trkpt lat="47.599613" lon="8.027185">
        <ele>640.193489</ele>
        <time>2021-11-13T16:43:14.422Z</time>
      </trkpt>
      <trkpt lat="47.599844" lon="8.026999">
        <ele>641.811449</ele>
        <time>2021-11-13T16:43:23.612Z</time>
      </trkpt>
      <trkpt lat="47.600101" lon="8.026650">
        <ele>643.956407</ele>
        <time>2021-11-13T16:43:37.691Z</time>
      </trkpt>
      <trkpt lat="47.600516" lon="8.025753">
        <ele>648.537139</ele>
        <time>2021-11-13T16:44:08.461Z</time>
      </trkpt>
      <trkpt lat="47.600550" lon="8.025678">
        <ele>648.945276</ele>
        <time>2021-11-13T16:44:12.089Z</time>
      </trkpt>
      <trkpt lat="47.600581" lon="8.025609">
        <ele>649.319718</ele>
        <time>2021-11-13T16:44:15.808Z</time>
      </trkpt>
      <trkpt lat="47.601301" lon="8.024297">
        <ele>656.959070</ele>
        <time>2021-11-13T16:45:04.221Z</time>
      </trkpt>
      <trkpt lat="47.601427" lon="8.024003">
        <ele>658.532264</ele>
        <time>2021-11-13T16:45:13.759Z</time>
      </trkpt>
      <trkpt lat="47.601526" lon="8.023755">
        <ele>659.813750</ele>
        <time>2021-11-13T16:45:22.158Z</time>
      </trkpt>
      <trkpt lat="47.601889" lon="8.022433">
        <ele>664.124669</ele>
        <time>2021-11-13T16:45:52.564Z</time>
      </trkpt>
      <trkpt lat="47.602034" lon="8.021886">
        <ele>665.899729</ele>
        <time>2021-11-13T16:46:05.088Z</time>
      </trkpt>
      <trkpt lat="47.602462" lon="8.021174">
        <ele>668.676352</ele>
        <time>2021-11-13T16:46:24.550Z</time>
      </trkpt>
      <trkpt lat="47.602662" lon="8.020843">
        <ele>669.871697</ele>
        <time>2021-11-13T16:46:34.265Z</time>
      </trkpt>
      <trkpt lat="47.603104" lon="8.020091">
        <ele>672.554691</ele>
        <time>2021-11-13T16:46:56.402Z</time>
      </trkpt>
      <trkpt lat="47.603225" lon="8.019699">
        <ele>673.714163</ele>
        <time>2021-11-13T16:47:05.270Z</time>
      </trkpt>
      <trkpt lat="47.603538" lon="8.018606">
        <ele>675.792550</ele>
        <time>2021-11-13T16:47:27.647Z</time>
      </trkpt>
      <trkpt lat="47.603564" lon="8.018549">
        <ele>675.869231</ele>
        <time>2021-11-13T16:47:28.871Z</time>
      </trkpt>
      <trkpt lat="47.603949" lon="8.017906">
        <ele>676.827421</ele>
        <time>2021-11-13T16:47:42.153Z</time>
      </trkpt>
      <trkpt lat="47.604386" lon="8.017343">
        <ele>677.784013</ele>
        <time>2021-11-13T16:47:50.796Z</time>
      </trkpt>
      <trkpt lat="47.604931" lon="8.016761">
        <ele>678.290372</ele>
        <time>2021-11-13T16:48:00.553Z</time>
      </trkpt>
      <trkpt lat="47.605303" lon="8.016420">
        <ele>678.537906</ele>
        <time>2021-11-13T16:48:07.105Z</time>
      </trkpt>
      <trkpt lat="47.605349" lon="8.016390">
        <ele>678.566349</ele>
        <time>2021-11-13T16:48:07.882Z</time>
      </trkpt>
      <trkpt lat="47.605617" lon="8.016217">
        <ele>678.731790</ele>
        <time>2021-11-13T16:48:12.890Z</time>
      </trkpt>
      <trkpt lat="47.605788" lon="8.016160">
        <ele>678.830996</ele>
        <time>2021-11-13T16:48:16.294Z</time>
      </trkpt>
      <trkpt lat="47.607499" lon="8.015932">
        <ele>681.130875</ele>
        <time>2021-11-13T16:48:53.792Z</time>
      </trkpt>
      <trkpt lat="47.607936" lon="8.015773">
        <ele>681.542724</ele>
        <time>2021-11-13T16:49:02.565Z</time>
      </trkpt>
      <trkpt lat="47.607997" lon="8.015736">
        <ele>681.429370</ele>
        <time>2021-11-13T16:49:04.236Z</time>
      </trkpt>
      <trkpt lat="47.608546" lon="8.015408">
        <ele>680.411373</ele>
        <time>2021-11-13T16:49:13.935Z</time>
      </trkpt>
      <trkpt lat="47.608990" lon="8.015226">
        <ele>679.619073</ele>
        <time>2021-11-13T16:49:19.283Z</time>
      </trkpt>
      <trkpt lat="47.609093" lon="8.015216">
        <ele>679.441536</ele>
        <time>2021-11-13T16:49:20.331Z</time>
      </trkpt>
      <trkpt lat="47.609541" lon="8.015211">
        <ele>678.670960</ele>
        <time>2021-11-13T16:49:24.647Z</time>
      </trkpt>
      <trkpt lat="47.609987" lon="8.015356">
        <ele>676.638270</ele>
        <time>2021-11-13T16:49:28.818Z</time>
      </trkpt>
      <trkpt lat="47.610061" lon="8.015390">
        <ele>676.268566</ele>
        <time>2021-11-13T16:49:29.501Z</time>
      </trkpt>
      <trkpt lat="47.610254" lon="8.015477">
        <ele>675.305918</ele>
        <time>2021-11-13T16:49:31.355Z</time>
      </trkpt>
      <trkpt lat="47.611129" lon="8.015861">
        <ele>670.951225</ele>
        <time>2021-11-13T16:49:39.877Z</time>
      </trkpt>
      <trkpt lat="47.611516" lon="8.016031">
        <ele>670.420458</ele>
        <time>2021-11-13T16:49:43.949Z</time>
      </trkpt>
      <trkpt lat="47.611716" lon="8.016114">
        <ele>670.840857</ele>
        <time>2021-11-13T16:49:46.203Z</time>
      </trkpt>
      <trkpt lat="47.613333" lon="8.016808">
        <ele>675.085467</ele>
        <time>2021-11-13T16:50:37.079Z</time>
      </trkpt>
      <trkpt lat="47.613550" lon="8.016884">
        <ele>676.163845</ele>
        <time>2021-11-13T16:50:46.399Z</time>
      </trkpt>
      <trkpt lat="47.613763" lon="8.016931">
        <ele>677.205356</ele>
        <time>2021-11-13T16:50:54.935Z</time>
      </trkpt>
      <trkpt lat="47.614276" lon="8.016874">
        <ele>679.693436</ele>
        <time>2021-11-13T16:51:13.816Z</time>
      </trkpt>
      <trkpt lat="47.614450" lon="8.016786">
        <ele>680.582553</ele>
        <time>2021-11-13T16:51:20.253Z</time>
      </trkpt>
      <trkpt lat="47.614507" lon="8.016749">
        <ele>680.883473</ele>
        <time>2021-11-13T16:51:22.587Z</time>
      </trkpt>
      <trkpt lat="47.614952" lon="8.016327">
        <ele>682.879735</ele>
        <time>2021-11-13T16:51:39.193Z</time>
      </trkpt>
      <trkpt lat="47.615823" lon="8.015017">
        <ele>685.815023</ele>
        <time>2021-11-13T16:52:08.623Z</time>
      </trkpt>
      <trkpt lat="47.616313" lon="8.014507">
        <ele>687.006015</ele>
        <time>2021-11-13T16:52:19.462Z</time>
      </trkpt>
      <trkpt lat="47.616676" lon="8.014297">
        <ele>687.598037</ele>
        <time>2021-11-13T16:52:27.234Z</time>
      </trkpt>
      <trkpt lat="47.617120" lon="8.014238">
        <ele>688.275380</ele>
        <time>2021-11-13T16:52:36.421Z</time>
      </trkpt>
      <trkpt lat="47.617298" lon="8.014271">
        <ele>688.547949</ele>
        <time>2021-11-13T16:52:39.709Z</time>
      </trkpt>
      <trkpt lat="47.617593" lon="8.014382">
        <ele>689.010384</ele>
        <time>2021-11-13T16:52:46.156Z</time>
      </trkpt>
      <trkpt lat="47.617609" lon="8.014390">
        <ele>689.036039</ele>
        <time>2021-11-13T16:52:46.440Z</time>
      </trkpt>
      <trkpt lat="47.617879" lon="8.014526">
        <ele>689.623757</ele>
        <time>2021-11-13T16:52:52.861Z</time>
      </trkpt>
      <trkpt lat="47.618468" lon="8.014944">
        <ele>691.751926</ele>
        <time>2021-11-13T16:53:10.425Z</time>
      </trkpt>
      <trkpt lat="47.619151" lon="8.015995">
        <ele>694.959409</ele>
        <time>2021-11-13T16:53:40.742Z</time>
      </trkpt>
      <trkpt lat="47.619261" lon="8.016064">
        <ele>695.277583</ele>
        <time>2021-11-13T16:53:44.387Z</time>
      </trkpt>
      <trkpt lat="47.619394" lon="8.016117">
        <ele>695.516076</ele>
        <time>2021-11-13T16:53:48.336Z</time>
      </trkpt>
      <trkpt lat="47.619688" lon="8.016135">
        <ele>696.025656</ele>
        <time>2021-11-13T16:53:56.121Z</time>
      </trkpt>
      <trkpt lat="47.620051" lon="8.015912">
        <ele>696.706061</ele>
        <time>2021-11-13T16:54:05.801Z</time>
      </trkpt>
      <trkpt lat="47.620186" lon="8.015747">
        <ele>697.008972</ele>
        <time>2021-11-13T16:54:09.929Z</time>
      </trkpt>
      <trkpt lat="47.620283" lon="8.015578">
        <ele>697.268077</ele>
        <time>2021-11-13T16:54:12.935Z</time>
      </trkpt>
      <trkpt lat="47.620364" lon="8.015366">
        <ele>697.552537</ele>
        <time>2021-11-13T16:54:16.200Z</time>
      </trkpt>
      <trkpt lat="47.620435" lon="8.014947">
        <ele>698.056853</ele>
        <time>2021-11-13T16:54:21.730Z</time>
      </trkpt>
      <trkpt lat="47.620496" lon="8.014586">
        <ele>698.019602</ele>
        <time>2021-11-13T16:54:24.729Z</time>
      </trkpt>
      <trkpt lat="47.620546" lon="8.013967">
        <ele>696.834212</ele>
        <time>2021-11-13T16:54:29.457Z</time>
      </trkpt>
      <trkpt lat="47.620555" lon="8.012850">
        <ele>694.710194</ele>
        <time>2021-11-13T16:54:37.108Z</time>
      </trkpt>
      <trkpt lat="47.620492" lon="8.011288">
        <ele>691.256986</ele>
        <time>2021-11-13T16:54:47.224Z</time>
      </trkpt>
      <trkpt lat="47.620487" lon="8.010965">
        <ele>690.447358</ele>
        <time>2021-11-13T16:54:49.366Z</time>
      </trkpt>
      <trkpt lat="47.620490" lon="8.010580">
        <ele>689.482512</ele>
        <time>2021-11-13T16:54:51.902Z</time>
      </trkpt>
      <trkpt lat="47.620496" lon="8.010474">
        <ele>689.215949</ele>
        <time>2021-11-13T16:54:52.619Z</time>
      </trkpt>
      <trkpt lat="47.620507" lon="8.010219">
        <ele>688.575631</ele>
        <time>2021-11-13T16:54:54.305Z</time>
      </trkpt>
      <trkpt lat="47.620556" lon="8.009809">
        <ele>687.532177</ele>
        <time>2021-11-13T16:54:57.189Z</time>
      </trkpt>
      <trkpt lat="47.620573" lon="8.009731">
        <ele>687.326751</ele>
        <time>2021-11-13T16:54:57.714Z</time>
      </trkpt>
      <trkpt lat="47.620672" lon="8.009286">
        <ele>686.400393</ele>
        <time>2021-11-13T16:55:01.012Z</time>
      </trkpt>
      <trkpt lat="47.620681" lon="8.009249">
        <ele>686.363131</ele>
        <time>2021-11-13T16:55:01.263Z</time>
      </trkpt>
      <trkpt lat="47.620699" lon="8.009176">
        <ele>686.289498</ele>
        <time>2021-11-13T16:55:01.776Z</time>
      </trkpt>
      <trkpt lat="47.620734" lon="8.009059">
        <ele>686.168242</ele>
        <time>2021-11-13T16:55:02.694Z</time>
      </trkpt>
      <trkpt lat="47.620862" lon="8.008648">
        <ele>685.739362</ele>
        <time>2021-11-13T16:55:05.927Z</time>
      </trkpt>
      <trkpt lat="47.620954" lon="8.008357">
        <ele>685.434889</ele>
        <time>2021-11-13T16:55:08.506Z</time>
      </trkpt>
      <trkpt lat="47.621081" lon="8.008034">
        <ele>685.080667</ele>
        <time>2021-11-13T16:55:11.480Z</time>
      </trkpt>
      <trkpt lat="47.621140" lon="8.007875">
        <ele>684.908736</ele>
        <time>2021-11-13T16:55:13.217Z</time>
      </trkpt>
      <trkpt lat="47.621254" lon="8.007569">
        <ele>684.577541</ele>
        <time>2021-11-13T16:55:16.111Z</time>
      </trkpt>
      <trkpt lat="47.621308" lon="8.007429">
        <ele>684.424745</ele>
        <time>2021-11-13T16:55:17.711Z</time>
      </trkpt>
      <trkpt lat="47.621359" lon="8.007338">
        <ele>684.312639</ele>
        <time>2021-11-13T16:55:18.804Z</time>
      </trkpt>
      <trkpt lat="47.621359" lon="8.007338">
        <ele>684.312639</ele>
        <time>2021-11-13T16:55:18.806Z</time>
      </trkpt>
      <trkpt lat="47.621433" lon="8.007225">
        <ele>684.163396</ele>
        <time>2021-11-13T16:55:20.235Z</time>
      </trkpt>
      <trkpt lat="47.621752" lon="8.006948">
        <ele>684.084224</ele>
        <time>2021-11-13T16:55:25.784Z</time>
      </trkpt>
      <trkpt lat="47.622836" lon="8.006672">
        <ele>684.332432</ele>
        <time>2021-11-13T16:55:42.846Z</time>
      </trkpt>
      <trkpt lat="47.623040" lon="8.006578">
        <ele>684.380639</ele>
        <time>2021-11-13T16:55:46.664Z</time>
      </trkpt>
      <trkpt lat="47.623146" lon="8.006521">
        <ele>684.406084</ele>
        <time>2021-11-13T16:55:48.451Z</time>
      </trkpt>
      <trkpt lat="47.623316" lon="8.006410">
        <ele>684.446929</ele>
        <time>2021-11-13T16:55:51.927Z</time>
      </trkpt>
      <trkpt lat="47.623482" lon="8.006277">
        <ele>684.487079</ele>
        <time>2021-11-13T16:55:55.458Z</time>
      </trkpt>
      <trkpt lat="47.623496" lon="8.006267">
        <ele>684.490385</ele>
        <time>2021-11-13T16:55:55.866Z</time>
      </trkpt>
      <trkpt lat="47.624181" lon="8.005412">
        <ele>684.680890</ele>
        <time>2021-11-13T16:56:09.795Z</time>
      </trkpt>
      <trkpt lat="47.624476" lon="8.005261">
        <ele>684.747302</ele>
        <time>2021-11-13T16:56:14.013Z</time>
      </trkpt>
      <trkpt lat="47.624714" lon="8.005192">
        <ele>684.798911</ele>
        <time>2021-11-13T16:56:17.325Z</time>
      </trkpt>
      <trkpt lat="47.624772" lon="8.005176">
        <ele>684.811465</ele>
        <time>2021-11-13T16:56:18.153Z</time>
      </trkpt>
      <trkpt lat="47.624929" lon="8.005099">
        <ele>685.137375</ele>
        <time>2021-11-13T16:56:20.556Z</time>
      </trkpt>
      <trkpt lat="47.625082" lon="8.004976">
        <ele>685.485046</ele>
        <time>2021-11-13T16:56:23.164Z</time>
      </trkpt>
      <trkpt lat="47.625170" lon="8.004881">
        <ele>685.702477</ele>
        <time>2021-11-13T16:56:24.958Z</time>
      </trkpt>
      <trkpt lat="47.625244" lon="8.004783">
        <ele>685.900650</ele>
        <time>2021-11-13T16:56:26.632Z</time>
      </trkpt>
      <trkpt lat="47.625294" lon="8.004699">
        <ele>686.051559</ele>
        <time>2021-11-13T16:56:28.472Z</time>
      </trkpt>
      <trkpt lat="47.625325" lon="8.004642">
        <ele>686.150185</ele>
        <time>2021-11-13T16:56:29.087Z</time>
      </trkpt>
      <trkpt lat="47.625393" lon="8.004515">
        <ele>686.368595</ele>
        <time>2021-11-13T16:56:30.975Z</time>
      </trkpt>
      <trkpt lat="47.625461" lon="8.004337">
        <ele>686.644108</ele>
        <time>2021-11-13T16:56:33.511Z</time>
      </trkpt>
      <trkpt lat="47.625506" lon="8.004231">
        <ele>686.812798</ele>
        <time>2021-11-13T16:56:35.912Z</time>
      </trkpt>
      <trkpt lat="47.625525" lon="8.004123">
        <ele>686.963099</ele>
        <time>2021-11-13T16:56:37.452Z</time>
      </trkpt>
      <trkpt lat="47.625607" lon="8.003576">
        <ele>687.717661</ele>
        <time>2021-11-13T16:56:47.850Z</time>
      </trkpt>
      <trkpt lat="47.625654" lon="8.003373">
        <ele>688.006690</ele>
        <time>2021-11-13T16:56:51.220Z</time>
      </trkpt>
      <trkpt lat="47.625600" lon="8.003335">
        <ele>688.126097</ele>
        <time>2021-11-13T16:56:52.626Z</time>
      </trkpt>
      <trkpt lat="47.625584" lon="8.003324">
        <ele>688.161329</ele>
        <time>2021-11-13T16:56:53.472Z</time>
      </trkpt>
      <trkpt lat="47.625516" lon="8.003226">
        <ele>688.350727</ele>
        <time>2021-11-13T16:56:56.142Z</time>
      </trkpt>
      <trkpt lat="47.625460" lon="8.003067">
        <ele>689.138891</ele>
        <time>2021-11-13T16:57:01.190Z</time>
      </trkpt>
      <trkpt lat="47.625445" lon="8.003025">
        <ele>689.390237</ele>
        <time>2021-11-13T16:57:01.833Z</time>
      </trkpt>
      <trkpt lat="47.625434" lon="8.002984">
        <ele>689.623587</ele>
        <time>2021-11-13T16:57:02.473Z</time>
      </trkpt>
      <trkpt lat="47.625363" lon="8.002731">
        <ele>691.072764</ele>
        <time>2021-11-13T16:57:09.063Z</time>
      </trkpt>
      <trkpt lat="47.625298" lon="8.002451">
        <ele>692.638743</ele>
        <time>2021-11-13T16:57:17.627Z</time>
      </trkpt>
      <trkpt lat="47.625267" lon="8.002292">
        <ele>693.513992</ele>
        <time>2021-11-13T16:57:23.027Z</time>
      </trkpt>
      <trkpt lat="47.625257" lon="8.002056">
        <ele>694.764402</ele>
        <time>2021-11-13T16:57:31.572Z</time>
      </trkpt>
      <trkpt lat="47.625266" lon="8.001860">
        <ele>695.803234</ele>
        <time>2021-11-13T16:57:36.984Z</time>
      </trkpt>
      <trkpt lat="47.625264" lon="8.001765">
        <ele>696.305830</ele>
        <time>2021-11-13T16:57:40.610Z</time>
      </trkpt>
      <trkpt lat="47.625250" lon="8.001673">
        <ele>696.804563</ele>
        <time>2021-11-13T16:57:43.485Z</time>
      </trkpt>
      <trkpt lat="47.625243" lon="8.001627">
        <ele>697.053930</ele>
        <time>2021-11-13T16:57:46.800Z</time>
      </trkpt>
      <trkpt lat="47.625081" lon="8.000955">
        <ele>700.827882</ele>
        <time>2021-11-13T16:58:11.172Z</time>
      </trkpt>
      <trkpt lat="47.624825" lon="7.999740">
        <ele>708.143011</ele>
        <time>2021-11-13T16:58:57.741Z</time>
      </trkpt>
      <trkpt lat="47.624804" lon="7.999651">
        <ele>708.699368</ele>
        <time>2021-11-13T16:59:01.099Z</time>
      </trkpt>
      <trkpt lat="47.624766" lon="7.999435">
        <ele>710.016485</ele>
        <time>2021-11-13T16:59:09.313Z</time>
      </trkpt>
      <trkpt lat="47.624755" lon="7.999366">
        <ele>710.434824</ele>
        <time>2021-11-13T16:59:11.724Z</time>
      </trkpt>
      <trkpt lat="47.624735" lon="7.999119">
        <ele>711.902625</ele>
        <time>2021-11-13T16:59:20.344Z</time>
      </trkpt>
      <trkpt lat="47.624755" lon="7.998076">
        <ele>718.058903</ele>
        <time>2021-11-13T16:59:52.514Z</time>
      </trkpt>
      <trkpt lat="47.624920" lon="7.996906">
        <ele>722.789264</ele>
        <time>2021-11-13T17:00:26.791Z</time>
      </trkpt>
      <trkpt lat="47.624885" lon="7.996580">
        <ele>724.076526</ele>
        <time>2021-11-13T17:00:35.359Z</time>
      </trkpt>
      <trkpt lat="47.624698" lon="7.995870">
        <ele>727.049065</ele>
        <time>2021-11-13T17:00:52.147Z</time>
      </trkpt>
      <trkpt lat="47.624673" lon="7.995663">
        <ele>727.869121</ele>
        <time>2021-11-13T17:00:57.620Z</time>
      </trkpt>
      <trkpt lat="47.624628" lon="7.995481">
        <ele>728.625082</ele>
        <time>2021-11-13T17:01:01.406Z</time>
      </trkpt>
      <trkpt lat="47.624294" lon="7.994823">
        <ele>730.752767</ele>
        <time>2021-11-13T17:01:18.564Z</time>
      </trkpt>
      <trkpt lat="47.624185" lon="7.994374">
        <ele>731.976685</ele>
        <time>2021-11-13T17:01:27.855Z</time>
      </trkpt>
      <trkpt lat="47.624157" lon="7.994038">
        <ele>732.844950</ele>
        <time>2021-11-13T17:01:34.484Z</time>
      </trkpt>
      <trkpt lat="47.624143" lon="7.993701">
        <ele>733.710859</ele>
        <time>2021-11-13T17:01:41.755Z</time>
      </trkpt>
      <trkpt lat="47.624155" lon="7.993221">
        <ele>734.942710</ele>
        <time>2021-11-13T17:01:50.671Z</time>
      </trkpt>
      <trkpt lat="47.624186" lon="7.992743">
        <ele>736.267005</ele>
        <time>2021-11-13T17:01:59.966Z</time>
      </trkpt>
      <trkpt lat="47.624193" lon="7.992632">
        <ele>736.593045</ele>
        <time>2021-11-13T17:02:02.017Z</time>
      </trkpt>
      <trkpt lat="47.624211" lon="7.992346">
        <ele>737.433095</ele>
        <time>2021-11-13T17:02:08.032Z</time>
      </trkpt>
      <trkpt lat="47.624184" lon="7.991951">
        <ele>738.594205</ele>
        <time>2021-11-13T17:02:16.120Z</time>
      </trkpt>
      <trkpt lat="47.624171" lon="7.991894">
        <ele>738.770188</ele>
        <time>2021-11-13T17:02:17.804Z</time>
      </trkpt>
      <trkpt lat="47.624027" lon="7.991299">
        <ele>740.619061</ele>
        <time>2021-11-13T17:02:32.218Z</time>
      </trkpt>
      <trkpt lat="47.624009" lon="7.991173">
        <ele>740.995738</ele>
        <time>2021-11-13T17:02:35.127Z</time>
      </trkpt>
      <trkpt lat="47.624056" lon="7.991139">
        <ele>741.222625</ele>
        <time>2021-11-13T17:02:37.099Z</time>
      </trkpt>
      <trkpt lat="47.624345" lon="7.990933">
        <ele>742.613837</ele>
        <time>2021-11-13T17:02:49.906Z</time>
      </trkpt>
      <trkpt lat="47.624439" lon="7.990867">
        <ele>743.065078</ele>
        <time>2021-11-13T17:02:53.801Z</time>
      </trkpt>
      <trkpt lat="47.624542" lon="7.990796">
        <ele>743.537869</ele>
        <time>2021-11-13T17:02:58.603Z</time>
      </trkpt>
      <trkpt lat="47.624679" lon="7.990702">
        <ele>744.138205</ele>
        <time>2021-11-13T17:03:04.235Z</time>
      </trkpt>
      <trkpt lat="47.624768" lon="7.990641">
        <ele>744.528129</ele>
        <time>2021-11-13T17:03:07.876Z</time>
      </trkpt>
      <trkpt lat="47.624845" lon="7.990574">
        <ele>744.883162</ele>
        <time>2021-11-13T17:03:11.544Z</time>
      </trkpt>
      <trkpt lat="47.625039" lon="7.990407">
        <ele>745.775222</ele>
        <time>2021-11-13T17:03:20.004Z</time>
      </trkpt>
      <trkpt lat="47.625126" lon="7.990317">
        <ele>746.197050</ele>
        <time>2021-11-13T17:03:24.044Z</time>
      </trkpt>
      <trkpt lat="47.625165" lon="7.990242">
        <ele>746.450980</ele>
        <time>2021-11-13T17:03:26.262Z</time>
      </trkpt>
      <trkpt lat="47.625484" lon="7.990308">
        <ele>747.732020</ele>
        <time>2021-11-13T17:03:36.105Z</time>
      </trkpt>
      <trkpt lat="47.625865" lon="7.990306">
        <ele>749.247387</ele>
        <time>2021-11-13T17:03:46.970Z</time>
      </trkpt>
      <trkpt lat="47.626001" lon="7.990279">
        <ele>749.793122</ele>
        <time>2021-11-13T17:03:50.648Z</time>
      </trkpt>
      <trkpt lat="47.626059" lon="7.990262">
        <ele>750.028265</ele>
        <time>2021-11-13T17:03:52.431Z</time>
      </trkpt>
      <trkpt lat="47.626285" lon="7.990191">
        <ele>750.872438</ele>
        <time>2021-11-13T17:03:58.937Z</time>
      </trkpt>
      <trkpt lat="47.626641" lon="7.990055">
        <ele>752.105051</ele>
        <time>2021-11-13T17:04:09.176Z</time>
      </trkpt>
      <trkpt lat="47.626890" lon="7.989948">
        <ele>752.974267</ele>
        <time>2021-11-13T17:04:16.338Z</time>
      </trkpt>
      <trkpt lat="47.627037" lon="7.989869">
        <ele>753.498499</ele>
        <time>2021-11-13T17:04:20.569Z</time>
      </trkpt>
      <trkpt lat="47.627368" lon="7.989707">
        <ele>754.667174</ele>
        <time>2021-11-13T17:04:30.321Z</time>
      </trkpt>
      <trkpt lat="47.627745" lon="7.989499">
        <ele>756.015829</ele>
        <time>2021-11-13T17:04:42.021Z</time>
      </trkpt>
      <trkpt lat="47.627783" lon="7.989478">
        <ele>756.151795</ele>
        <time>2021-11-13T17:04:43.241Z</time>
      </trkpt>
      <trkpt lat="47.628500" lon="7.989076">
        <ele>758.699083</ele>
        <time>2021-11-13T17:05:05.738Z</time>
      </trkpt>
      <trkpt lat="47.630656" lon="7.987791">
        <ele>766.186223</ele>
        <time>2021-11-13T17:06:09.568Z</time>
      </trkpt>
      <trkpt lat="47.631277" lon="7.987638">
        <ele>768.164919</ele>
        <time>2021-11-13T17:06:26.096Z</time>
      </trkpt>
      <trkpt lat="47.631642" lon="7.987687">
        <ele>769.483093</ele>
        <time>2021-11-13T17:06:36.624Z</time>
      </trkpt>
      <trkpt lat="47.632056" lon="7.987880">
        <ele>771.043899</ele>
        <time>2021-11-13T17:06:49.470Z</time>
      </trkpt>
      <trkpt lat="47.632243" lon="7.988006">
        <ele>771.782579</ele>
        <time>2021-11-13T17:06:55.308Z</time>
      </trkpt>
      <trkpt lat="47.632324" lon="7.988059">
        <ele>772.100980</ele>
        <time>2021-11-13T17:06:57.779Z</time>
      </trkpt>
      <trkpt lat="47.632441" lon="7.987837">
        <ele>772.784077</ele>
        <time>2021-11-13T17:07:03.528Z</time>
      </trkpt>
      <trkpt lat="47.632525" lon="7.987674">
        <ele>773.281436</ele>
        <time>2021-11-13T17:07:07.497Z</time>
      </trkpt>
      <trkpt lat="47.632525" lon="7.987674">
        <ele>773.281436</ele>
        <time>2021-11-13T17:07:07.603Z</time>
      </trkpt>
      <trkpt lat="47.632525" lon="7.987674">
        <ele>773.281436</ele>
        <time>2021-11-13T17:07:07.621Z</time>
      </trkpt>
      <trkpt lat="47.632587" lon="7.987560">
        <ele>773.636509</ele>
        <time>2021-11-13T17:07:10.893Z</time>
      </trkpt>
      <trkpt lat="47.633007" lon="7.986924">
        <ele>775.993629</ele>
        <time>2021-11-13T17:07:28.934Z</time>
      </trkpt>
      <trkpt lat="47.633442" lon="7.986219">
        <ele>778.686904</ele>
        <time>2021-11-13T17:07:49.628Z</time>
      </trkpt>
      <trkpt lat="47.633741" lon="7.985722">
        <ele>780.564082</ele>
        <time>2021-11-13T17:08:05.023Z</time>
      </trkpt>
      <trkpt lat="47.634382" lon="7.984814">
        <ele>783.404213</ele>
        <time>2021-11-13T17:08:31.581Z</time>
      </trkpt>
      <trkpt lat="47.634468" lon="7.984733">
        <ele>783.660929</ele>
        <time>2021-11-13T17:08:34.916Z</time>
      </trkpt>
      <trkpt lat="47.634506" lon="7.984696">
        <ele>783.775476</ele>
        <time>2021-11-13T17:08:36.453Z</time>
      </trkpt>
      <trkpt lat="47.634638" lon="7.984601">
        <ele>784.145216</ele>
        <time>2021-11-13T17:08:39.369Z</time>
      </trkpt>
      <trkpt lat="47.634817" lon="7.984495">
        <ele>784.630944</ele>
        <time>2021-11-13T17:08:44.970Z</time>
      </trkpt>
      <trkpt lat="47.635138" lon="7.984322">
        <ele>785.491663</ele>
        <time>2021-11-13T17:08:52.444Z</time>
      </trkpt>
      <trkpt lat="47.635311" lon="7.984184">
        <ele>785.986674</ele>
        <time>2021-11-13T17:08:55.807Z</time>
      </trkpt>
      <trkpt lat="47.635363" lon="7.984125">
        <ele>786.151646</ele>
        <time>2021-11-13T17:08:57.316Z</time>
      </trkpt>
      <trkpt lat="47.635550" lon="7.983913">
        <ele>786.631130</ele>
        <time>2021-11-13T17:09:01.986Z</time>
      </trkpt>
      <trkpt lat="47.636114" lon="7.983467">
        <ele>786.717030</ele>
        <time>2021-11-13T17:09:12.992Z</time>
      </trkpt>
      <trkpt lat="47.636167" lon="7.983425">
        <ele>786.725106</ele>
        <time>2021-11-13T17:09:13.649Z</time>
      </trkpt>
      <trkpt lat="47.636362" lon="7.983140">
        <ele>786.761893</ele>
        <time>2021-11-13T17:09:17.154Z</time>
      </trkpt>
      <trkpt lat="47.636470" lon="7.982623">
        <ele>786.810917</ele>
        <time>2021-11-13T17:09:21.361Z</time>
      </trkpt>
      <trkpt lat="47.636685" lon="7.980585">
        <ele>788.724660</ele>
        <time>2021-11-13T17:09:46.403Z</time>
      </trkpt>
      <trkpt lat="47.636717" lon="7.980417">
        <ele>788.948505</ele>
        <time>2021-11-13T17:09:49.232Z</time>
      </trkpt>
      <trkpt lat="47.636749" lon="7.980255">
        <ele>789.164957</ele>
        <time>2021-11-13T17:09:52.660Z</time>
      </trkpt>
      <trkpt lat="47.636898" lon="7.979438">
        <ele>790.250176</ele>
        <time>2021-11-13T17:10:07.984Z</time>
      </trkpt>
      <trkpt lat="47.636860" lon="7.978383">
        <ele>793.330562</ele>
        <time>2021-11-13T17:10:30.742Z</time>
      </trkpt>
      <trkpt lat="47.637178" lon="7.977129">
        <ele>797.301624</ele>
        <time>2021-11-13T17:11:02.070Z</time>
      </trkpt>
      <trkpt lat="47.637166" lon="7.976669">
        <ele>798.663888</ele>
        <time>2021-11-13T17:11:12.162Z</time>
      </trkpt>
      <trkpt lat="47.637104" lon="7.976387">
        <ele>799.539087</ele>
        <time>2021-11-13T17:11:18.305Z</time>
      </trkpt>
      <trkpt lat="47.636964" lon="7.975901">
        <ele>801.098554</ele>
        <time>2021-11-13T17:11:29.417Z</time>
      </trkpt>
      <trkpt lat="47.636945" lon="7.975599">
        <ele>801.993471</ele>
        <time>2021-11-13T17:11:35.869Z</time>
      </trkpt>
      <trkpt lat="47.637015" lon="7.975296">
        <ele>802.938548</ele>
        <time>2021-11-13T17:11:42.517Z</time>
      </trkpt>
      <trkpt lat="47.637047" lon="7.975237">
        <ele>803.162011</ele>
        <time>2021-11-13T17:11:44.362Z</time>
      </trkpt>
      <trkpt lat="47.637233" lon="7.974898">
        <ele>804.451863</ele>
        <time>2021-11-13T17:11:53.780Z</time>
      </trkpt>
      <trkpt lat="47.638035" lon="7.974142">
        <ele>808.513110</ele>
        <time>2021-11-13T17:12:25.998Z</time>
      </trkpt>
      <trkpt lat="47.638252" lon="7.973962">
        <ele>809.559154</ele>
        <time>2021-11-13T17:12:33.487Z</time>
      </trkpt>
      <trkpt lat="47.638636" lon="7.973699">
        <ele>811.338722</ele>
        <time>2021-11-13T17:12:46.078Z</time>
      </trkpt>
      <trkpt lat="47.638659" lon="7.973682">
        <ele>811.446841</ele>
        <time>2021-11-13T17:12:47.215Z</time>
      </trkpt>
      <trkpt lat="47.638981" lon="7.973418">
        <ele>812.994766</ele>
        <time>2021-11-13T17:12:58.435Z</time>
      </trkpt>
      <trkpt lat="47.639090" lon="7.973306">
        <ele>813.552617</ele>
        <time>2021-11-13T17:13:02.461Z</time>
      </trkpt>
      <trkpt lat="47.639276" lon="7.972938">
        <ele>814.743724</ele>
        <time>2021-11-13T17:13:12.097Z</time>
      </trkpt>
      <trkpt lat="47.639406" lon="7.972397">
        <ele>816.220210</ele>
        <time>2021-11-13T17:13:24.178Z</time>
      </trkpt>
      <trkpt lat="47.639559" lon="7.972018">
        <ele>817.355944</ele>
        <time>2021-11-13T17:13:32.991Z</time>
      </trkpt>
      <trkpt lat="47.640091" lon="7.971291">
        <ele>820.114907</ele>
        <time>2021-11-13T17:13:52.833Z</time>
      </trkpt>
      <trkpt lat="47.640810" lon="7.969935">
        <ele>825.863574</ele>
        <time>2021-11-13T17:14:32.119Z</time>
      </trkpt>
      <trkpt lat="47.640891" lon="7.969731">
        <ele>826.669871</ele>
        <time>2021-11-13T17:14:38.612Z</time>
      </trkpt>
      <trkpt lat="47.640944" lon="7.969376">
        <ele>827.908017</ele>
        <time>2021-11-13T17:14:46.766Z</time>
      </trkpt>
      <trkpt lat="47.640935" lon="7.969224">
        <ele>828.427594</ele>
        <time>2021-11-13T17:14:51.610Z</time>
      </trkpt>
      <trkpt lat="47.640883" lon="7.969015">
        <ele>829.186241</ele>
        <time>2021-11-13T17:14:56.893Z</time>
      </trkpt>
      <trkpt lat="47.640375" lon="7.968035">
        <ele>834.423472</ele>
        <time>2021-11-13T17:15:29.647Z</time>
      </trkpt>
      <trkpt lat="47.640078" lon="7.967066">
        <ele>839.027945</ele>
        <time>2021-11-13T17:16:00.025Z</time>
      </trkpt>
      <trkpt lat="47.639789" lon="7.965749">
        <ele>844.100084</ele>
        <time>2021-11-13T17:16:38.601Z</time>
      </trkpt>
      <trkpt lat="47.639729" lon="7.964910">
        <ele>846.884434</ele>
        <time>2021-11-13T17:16:59.589Z</time>
      </trkpt>
      <trkpt lat="47.639730" lon="7.964417">
        <ele>848.511401</ele>
        <time>2021-11-13T17:17:09.670Z</time>
      </trkpt>
      <trkpt lat="47.639767" lon="7.964127">
        <ele>849.485442</ele>
        <time>2021-11-13T17:17:14.787Z</time>
      </trkpt>
      <trkpt lat="47.639823" lon="7.963883">
        <ele>849.884232</ele>
        <time>2021-11-13T17:17:19.234Z</time>
      </trkpt>
      <trkpt lat="47.639889" lon="7.963688">
        <ele>849.757151</ele>
        <time>2021-11-13T17:17:22.502Z</time>
      </trkpt>
      <trkpt lat="47.639917" lon="7.963604">
        <ele>849.702574</ele>
        <time>2021-11-13T17:17:23.882Z</time>
      </trkpt>
      <trkpt lat="47.640083" lon="7.963229">
        <ele>849.441279</ele>
        <time>2021-11-13T17:17:29.115Z</time>
      </trkpt>
      <trkpt lat="47.640149" lon="7.963092">
        <ele>849.343201</ele>
        <time>2021-11-13T17:17:31.209Z</time>
      </trkpt>
      <trkpt lat="47.640333" lon="7.962705">
        <ele>849.067372</ele>
        <time>2021-11-13T17:17:35.159Z</time>
      </trkpt>
      <trkpt lat="47.640559" lon="7.962232">
        <ele>848.729693</ele>
        <time>2021-11-13T17:17:39.321Z</time>
      </trkpt>
      <trkpt lat="47.640752" lon="7.961642">
        <ele>848.162135</ele>
        <time>2021-11-13T17:17:43.732Z</time>
      </trkpt>
      <trkpt lat="47.640767" lon="7.961523">
        <ele>847.828274</ele>
        <time>2021-11-13T17:17:44.510Z</time>
      </trkpt>
      <trkpt lat="47.640787" lon="7.961359">
        <ele>847.368662</ele>
        <time>2021-11-13T17:17:45.531Z</time>
      </trkpt>
      <trkpt lat="47.640808" lon="7.961104">
        <ele>846.660213</ele>
        <time>2021-11-13T17:17:47.302Z</time>
      </trkpt>
      <trkpt lat="47.640798" lon="7.960852">
        <ele>845.964067</ele>
        <time>2021-11-13T17:17:48.862Z</time>
      </trkpt>
      <trkpt lat="47.640720" lon="7.960375">
        <ele>844.610454</ele>
        <time>2021-11-13T17:17:52.118Z</time>
      </trkpt>
      <trkpt lat="47.640711" lon="7.960295">
        <ele>844.386783</ele>
        <time>2021-11-13T17:17:52.594Z</time>
      </trkpt>
      <trkpt lat="47.640685" lon="7.960045">
        <ele>843.689190</ele>
        <time>2021-11-13T17:17:54.469Z</time>
      </trkpt>
      <trkpt lat="47.640685" lon="7.959821">
        <ele>843.071463</ele>
        <time>2021-11-13T17:17:55.880Z</time>
      </trkpt>
      <trkpt lat="47.640685" lon="7.959768">
        <ele>842.925304</ele>
        <time>2021-11-13T17:17:56.192Z</time>
      </trkpt>
      <trkpt lat="47.640717" lon="7.959400">
        <ele>841.902049</ele>
        <time>2021-11-13T17:17:58.779Z</time>
      </trkpt>
      <trkpt lat="47.640762" lon="7.959173">
        <ele>841.249516</ele>
        <time>2021-11-13T17:18:00.269Z</time>
      </trkpt>
      <trkpt lat="47.640856" lon="7.958970">
        <ele>840.652076</ele>
        <time>2021-11-13T17:18:02.034Z</time>
      </trkpt>
      <trkpt lat="47.640871" lon="7.958934">
        <ele>840.555869</ele>
        <time>2021-11-13T17:18:02.296Z</time>
      </trkpt>
      <trkpt lat="47.640964" lon="7.958802">
        <ele>840.121771</ele>
        <time>2021-11-13T17:18:03.447Z</time>
      </trkpt>
      <trkpt lat="47.641188" lon="7.958634">
        <ele>839.275124</ele>
        <time>2021-11-13T17:18:06.062Z</time>
      </trkpt>
      <trkpt lat="47.641294" lon="7.958578">
        <ele>838.895564</ele>
        <time>2021-11-13T17:18:07.081Z</time>
      </trkpt>
      <trkpt lat="47.641418" lon="7.958516">
        <ele>838.454160</ele>
        <time>2021-11-13T17:18:08.612Z</time>
      </trkpt>
      <trkpt lat="47.641574" lon="7.958423">
        <ele>837.887041</ele>
        <time>2021-11-13T17:18:10.247Z</time>
      </trkpt>
      <trkpt lat="47.641842" lon="7.958150">
        <ele>836.790514</ele>
        <time>2021-11-13T17:18:13.573Z</time>
      </trkpt>
      <trkpt lat="47.641947" lon="7.957833">
        <ele>835.987650</ele>
        <time>2021-11-13T17:18:16.075Z</time>
      </trkpt>
      <trkpt lat="47.641955" lon="7.957683">
        <ele>835.645652</ele>
        <time>2021-11-13T17:18:17.079Z</time>
      </trkpt>
      <trkpt lat="47.641947" lon="7.957536">
        <ele>835.310450</ele>
        <time>2021-11-13T17:18:18.021Z</time>
      </trkpt>
      <trkpt lat="47.641798" lon="7.957096">
        <ele>834.762175</ele>
        <time>2021-11-13T17:18:21.564Z</time>
      </trkpt>
      <trkpt lat="47.641550" lon="7.956851">
        <ele>834.495725</ele>
        <time>2021-11-13T17:18:24.869Z</time>
      </trkpt>
      <trkpt lat="47.641084" lon="7.956545">
        <ele>834.039970</ele>
        <time>2021-11-13T17:18:30.533Z</time>
      </trkpt>
      <trkpt lat="47.640991" lon="7.956380">
        <ele>833.910336</ele>
        <time>2021-11-13T17:18:32.633Z</time>
      </trkpt>
      <trkpt lat="47.640998" lon="7.956247">
        <ele>833.829944</ele>
        <time>2021-11-13T17:18:33.700Z</time>
      </trkpt>
      <trkpt lat="47.641056" lon="7.956097">
        <ele>833.725724</ele>
        <time>2021-11-13T17:18:35.038Z</time>
      </trkpt>
      <trkpt lat="47.640501" lon="7.955695">
        <ele>833.897686</ele>
        <time>2021-11-13T17:18:48.635Z</time>
      </trkpt>
      <trkpt lat="47.640167" lon="7.955381">
        <ele>834.920202</ele>
        <time>2021-11-13T17:18:57.816Z</time>
      </trkpt>
      <trkpt lat="47.639795" lon="7.954985">
        <ele>836.104167</ele>
        <time>2021-11-13T17:19:09.089Z</time>
      </trkpt>
      <trkpt lat="47.639696" lon="7.954882">
        <ele>836.416848</ele>
        <time>2021-11-13T17:19:12.689Z</time>
      </trkpt>
      <trkpt lat="47.639497" lon="7.954714">
        <ele>837.008946</ele>
        <time>2021-11-13T17:19:18.949Z</time>
      </trkpt>
      <trkpt lat="47.639207" lon="7.954547">
        <ele>837.813432</ele>
        <time>2021-11-13T17:19:27.881Z</time>
      </trkpt>
      <trkpt lat="47.638760" lon="7.954525">
        <ele>839.392840</ele>
        <time>2021-11-13T17:19:40.855Z</time>
      </trkpt>
      <trkpt lat="47.637932" lon="7.954791">
        <ele>842.549718</ele>
        <time>2021-11-13T17:20:05.935Z</time>
      </trkpt>
      <trkpt lat="47.637714" lon="7.954725">
        <ele>843.378794</ele>
        <time>2021-11-13T17:20:12.216Z</time>
      </trkpt>
      <trkpt lat="47.637492" lon="7.954483">
        <ele>844.405225</ele>
        <time>2021-11-13T17:20:20.074Z</time>
      </trkpt>
      <trkpt lat="47.637400" lon="7.954079">
        <ele>845.775931</ele>
        <time>2021-11-13T17:20:28.825Z</time>
      </trkpt>
      <trkpt lat="47.637300" lon="7.951504">
        <ele>854.640663</ele>
        <time>2021-11-13T17:21:33.218Z</time>
      </trkpt>
      <trkpt lat="47.637306" lon="7.951326">
        <ele>855.131189</ele>
        <time>2021-11-13T17:21:38.500Z</time>
      </trkpt>
      <trkpt lat="47.637337" lon="7.951149">
        <ele>855.634537</ele>
        <time>2021-11-13T17:21:42.639Z</time>
      </trkpt>
      <trkpt lat="47.637383" lon="7.950993">
        <ele>856.103212</ele>
        <time>2021-11-13T17:21:45.922Z</time>
      </trkpt>
      <trkpt lat="47.637451" lon="7.950859">
        <ele>856.564915</ele>
        <time>2021-11-13T17:21:50.611Z</time>
      </trkpt>
      <trkpt lat="47.637598" lon="7.950642">
        <ele>857.411816</ele>
        <time>2021-11-13T17:21:56.896Z</time>
      </trkpt>
      <trkpt lat="47.637813" lon="7.950431">
        <ele>858.464663</ele>
        <time>2021-11-13T17:22:05.569Z</time>
      </trkpt>
      <trkpt lat="47.638433" lon="7.949786">
        <ele>861.408583</ele>
        <time>2021-11-13T17:22:26.906Z</time>
      </trkpt>
      <trkpt lat="47.638845" lon="7.949151">
        <ele>861.546563</ele>
        <time>2021-11-13T17:22:38.593Z</time>
      </trkpt>
      <trkpt lat="47.639038" lon="7.948758">
        <ele>861.622681</ele>
        <time>2021-11-13T17:22:43.487Z</time>
      </trkpt>
      <trkpt lat="47.639170" lon="7.948455">
        <ele>861.679157</ele>
        <time>2021-11-13T17:22:46.751Z</time>
      </trkpt>
      <trkpt lat="47.639254" lon="7.948202">
        <ele>861.723303</ele>
        <time>2021-11-13T17:22:49.300Z</time>
      </trkpt>
      <trkpt lat="47.639305" lon="7.947792">
        <ele>861.788562</ele>
        <time>2021-11-13T17:22:52.623Z</time>
      </trkpt>
      <trkpt lat="47.639245" lon="7.947417">
        <ele>861.612496</ele>
        <time>2021-11-13T17:22:55.577Z</time>
      </trkpt>
      <trkpt lat="47.639171" lon="7.947230">
        <ele>861.391361</ele>
        <time>2021-11-13T17:22:57.425Z</time>
      </trkpt>
      <trkpt lat="47.639079" lon="7.947097">
        <ele>861.196998</ele>
        <time>2021-11-13T17:22:58.686Z</time>
      </trkpt>
      <trkpt lat="47.638801" lon="7.946735">
        <ele>860.637306</ele>
        <time>2021-11-13T17:23:02.779Z</time>
      </trkpt>
      <trkpt lat="47.638633" lon="7.946522">
        <ele>860.302920</ele>
        <time>2021-11-13T17:23:05.526Z</time>
      </trkpt>
      <trkpt lat="47.638601" lon="7.946470">
        <ele>860.231109</ele>
        <time>2021-11-13T17:23:06.080Z</time>
      </trkpt>
      <trkpt lat="47.638490" lon="7.946296">
        <ele>859.986776</ele>
        <time>2021-11-13T17:23:07.747Z</time>
      </trkpt>
      <trkpt lat="47.638187" lon="7.945494">
        <ele>859.085651</ele>
        <time>2021-11-13T17:23:15.256Z</time>
      </trkpt>
      <trkpt lat="47.638180" lon="7.945471">
        <ele>859.080197</ele>
        <time>2021-11-13T17:23:15.398Z</time>
      </trkpt>
      <trkpt lat="47.638087" lon="7.945165">
        <ele>859.007664</ele>
        <time>2021-11-13T17:23:18.355Z</time>
      </trkpt>
      <trkpt lat="47.637977" lon="7.944887">
        <ele>858.938003</ele>
        <time>2021-11-13T17:23:20.822Z</time>
      </trkpt>
      <trkpt lat="47.637846" lon="7.944700">
        <ele>858.879716</ele>
        <time>2021-11-13T17:23:23.531Z</time>
      </trkpt>
      <trkpt lat="47.637690" lon="7.944520">
        <ele>858.816350</ele>
        <time>2021-11-13T17:23:26.066Z</time>
      </trkpt>
      <trkpt lat="47.637583" lon="7.944404">
        <ele>858.773857</ele>
        <time>2021-11-13T17:23:28.249Z</time>
      </trkpt>
      <trkpt lat="47.637442" lon="7.944256">
        <ele>858.718476</ele>
        <time>2021-11-13T17:23:30.808Z</time>
      </trkpt>
      <trkpt lat="47.637316" lon="7.944402">
        <ele>858.667213</ele>
        <time>2021-11-13T17:23:33.648Z</time>
      </trkpt>
      <trkpt lat="47.636926" lon="7.944520">
        <ele>858.539576</ele>
        <time>2021-11-13T17:23:39.948Z</time>
      </trkpt>
      <trkpt lat="47.636517" lon="7.944381">
        <ele>858.472539</ele>
        <time>2021-11-13T17:23:46.751Z</time>
      </trkpt>
      <trkpt lat="47.636440" lon="7.944352">
        <ele>858.462198</ele>
        <time>2021-11-13T17:23:48.204Z</time>
      </trkpt>
      <trkpt lat="47.636341" lon="7.944314">
        <ele>858.448888</ele>
        <time>2021-11-13T17:23:49.955Z</time>
      </trkpt>
      <trkpt lat="47.636224" lon="7.944307">
        <ele>858.433645</ele>
        <time>2021-11-13T17:23:51.442Z</time>
      </trkpt>
      <trkpt lat="47.636029" lon="7.944437">
        <ele>858.405819</ele>
        <time>2021-11-13T17:23:54.677Z</time>
      </trkpt>
      <trkpt lat="47.635520" lon="7.945990">
        <ele>858.471724</ele>
        <time>2021-11-13T17:24:10.286Z</time>
      </trkpt>
      <trkpt lat="47.635305" lon="7.946397">
        <ele>858.752869</ele>
        <time>2021-11-13T17:24:14.795Z</time>
      </trkpt>
      <trkpt lat="47.634967" lon="7.946762">
        <ele>859.090110</ele>
        <time>2021-11-13T17:24:20.453Z</time>
      </trkpt>
      <trkpt lat="47.634941" lon="7.946767">
        <ele>859.111262</ele>
        <time>2021-11-13T17:24:20.865Z</time>
      </trkpt>
      <trkpt lat="47.634741" lon="7.946805">
        <ele>859.273932</ele>
        <time>2021-11-13T17:24:25.188Z</time>
      </trkpt>
      <trkpt lat="47.634598" lon="7.946753">
        <ele>859.392713</ele>
        <time>2021-11-13T17:24:28.399Z</time>
      </trkpt>
      <trkpt lat="47.634437" lon="7.946594">
        <ele>859.548735</ele>
        <time>2021-11-13T17:24:33.441Z</time>
      </trkpt>
      <trkpt lat="47.634304" lon="7.946352">
        <ele>859.718505</ele>
        <time>2021-11-13T17:24:38.577Z</time>
      </trkpt>
      <trkpt lat="47.633987" lon="7.945419">
        <ele>862.038017</ele>
        <time>2021-11-13T17:24:58.593Z</time>
      </trkpt>
      <trkpt lat="47.633902" lon="7.945296">
        <ele>862.438295</ele>
        <time>2021-11-13T17:25:01.630Z</time>
      </trkpt>
      <trkpt lat="47.633818" lon="7.945221">
        <ele>862.768816</ele>
        <time>2021-11-13T17:25:05.972Z</time>
      </trkpt>
      <trkpt lat="47.633720" lon="7.945173">
        <ele>863.116760</ele>
        <time>2021-11-13T17:25:08.356Z</time>
      </trkpt>
      <trkpt lat="47.633664" lon="7.945157">
        <ele>863.309034</ele>
        <time>2021-11-13T17:25:09.525Z</time>
      </trkpt>
      <trkpt lat="47.633591" lon="7.945179">
        <ele>863.560182</ele>
        <time>2021-11-13T17:25:11.481Z</time>
      </trkpt>
      <trkpt lat="47.633498" lon="7.945219">
        <ele>863.886641</ele>
        <time>2021-11-13T17:25:15.519Z</time>
      </trkpt>
      <trkpt lat="47.632250" lon="7.946421">
        <ele>867.068196</ele>
        <time>2021-11-13T17:25:56.748Z</time>
      </trkpt>
      <trkpt lat="47.632015" lon="7.946574">
        <ele>867.421847</ele>
        <time>2021-11-13T17:26:00.531Z</time>
      </trkpt>
      <trkpt lat="47.631252" lon="7.946953">
        <ele>867.822046</ele>
        <time>2021-11-13T17:26:10.973Z</time>
      </trkpt>
      <trkpt lat="47.630971" lon="7.947084">
        <ele>867.087128</ele>
        <time>2021-11-13T17:26:14.411Z</time>
      </trkpt>
      <trkpt lat="47.630672" lon="7.947236">
        <ele>866.298520</ele>
        <time>2021-11-13T17:26:17.944Z</time>
      </trkpt>
      <trkpt lat="47.629991" lon="7.947744">
        <ele>864.396711</ele>
        <time>2021-11-13T17:26:25.637Z</time>
      </trkpt>
      <trkpt lat="47.629363" lon="7.948362">
        <ele>861.535931</ele>
        <time>2021-11-13T17:26:32.996Z</time>
      </trkpt>
      <trkpt lat="47.629285" lon="7.948439">
        <ele>861.122288</ele>
        <time>2021-11-13T17:26:33.870Z</time>
      </trkpt>
      <trkpt lat="47.629252" lon="7.948471">
        <ele>860.948231</ele>
        <time>2021-11-13T17:26:34.256Z</time>
      </trkpt>
      <trkpt lat="47.629112" lon="7.948574">
        <ele>860.258284</ele>
        <time>2021-11-13T17:26:35.797Z</time>
      </trkpt>
      <trkpt lat="47.629018" lon="7.948689">
        <ele>859.720373</ele>
        <time>2021-11-13T17:26:36.961Z</time>
      </trkpt>
      <trkpt lat="47.628909" lon="7.948921">
        <ele>858.878841</ele>
        <time>2021-11-13T17:26:38.789Z</time>
      </trkpt>
      <trkpt lat="47.628855" lon="7.948997">
        <ele>858.550226</ele>
        <time>2021-11-13T17:26:39.478Z</time>
      </trkpt>
      <trkpt lat="47.628255" lon="7.949609">
        <ele>855.437665</ele>
        <time>2021-11-13T17:26:46.313Z</time>
      </trkpt>
      <trkpt lat="47.628154" lon="7.949804">
        <ele>854.851370</ele>
        <time>2021-11-13T17:26:47.916Z</time>
      </trkpt>
      <trkpt lat="47.628018" lon="7.949775">
        <ele>854.365354</ele>
        <time>2021-11-13T17:26:49.310Z</time>
      </trkpt>
      <trkpt lat="47.627819" lon="7.949787">
        <ele>853.660848</ele>
        <time>2021-11-13T17:26:51.274Z</time>
      </trkpt>
      <trkpt lat="47.627702" lon="7.949801">
        <ele>853.245639</ele>
        <time>2021-11-13T17:26:52.582Z</time>
      </trkpt>
      <trkpt lat="47.627472" lon="7.949828">
        <ele>852.429515</ele>
        <time>2021-11-13T17:26:54.874Z</time>
      </trkpt>
      <trkpt lat="47.627309" lon="7.949824">
        <ele>851.852854</ele>
        <time>2021-11-13T17:26:56.691Z</time>
      </trkpt>
      <trkpt lat="47.627208" lon="7.949813">
        <ele>851.494625</ele>
        <time>2021-11-13T17:26:57.667Z</time>
      </trkpt>
      <trkpt lat="47.627110" lon="7.949777">
        <ele>851.137502</ele>
        <time>2021-11-13T17:26:58.842Z</time>
      </trkpt>
      <trkpt lat="47.626859" lon="7.949688">
        <ele>850.224637</ele>
        <time>2021-11-13T17:27:01.509Z</time>
      </trkpt>
      <trkpt lat="47.626752" lon="7.949657">
        <ele>849.838997</ele>
        <time>2021-11-13T17:27:02.689Z</time>
      </trkpt>
      <trkpt lat="47.626683" lon="7.949637">
        <ele>849.590309</ele>
        <time>2021-11-13T17:27:03.356Z</time>
      </trkpt>
      <trkpt lat="47.626401" lon="7.949689">
        <ele>848.365881</ele>
        <time>2021-11-13T17:27:06.129Z</time>
      </trkpt>
      <trkpt lat="47.626137" lon="7.949956">
        <ele>846.960959</ele>
        <time>2021-11-13T17:27:09.207Z</time>
      </trkpt>
      <trkpt lat="47.626078" lon="7.950083">
        <ele>846.503823</ele>
        <time>2021-11-13T17:27:10.301Z</time>
      </trkpt>
      <trkpt lat="47.626026" lon="7.950244">
        <ele>845.974716</ele>
        <time>2021-11-13T17:27:11.407Z</time>
      </trkpt>
      <trkpt lat="47.625896" lon="7.950889">
        <ele>843.979518</ele>
        <time>2021-11-13T17:27:15.928Z</time>
      </trkpt>
      <trkpt lat="47.625850" lon="7.951040">
        <ele>843.488415</ele>
        <time>2021-11-13T17:27:16.941Z</time>
      </trkpt>
      <trkpt lat="47.625812" lon="7.951163">
        <ele>843.087412</ele>
        <time>2021-11-13T17:27:17.762Z</time>
      </trkpt>
      <trkpt lat="47.625460" lon="7.951852">
        <ele>840.685253</ele>
        <time>2021-11-13T17:27:23.181Z</time>
      </trkpt>
      <trkpt lat="47.625338" lon="7.952002">
        <ele>840.094541</ele>
        <time>2021-11-13T17:27:24.686Z</time>
      </trkpt>
      <trkpt lat="47.625089" lon="7.952131">
        <ele>839.111254</ele>
        <time>2021-11-13T17:27:27.162Z</time>
      </trkpt>
      <trkpt lat="47.624864" lon="7.952108">
        <ele>838.270418</ele>
        <time>2021-11-13T17:27:29.439Z</time>
      </trkpt>
      <trkpt lat="47.624794" lon="7.952070">
        <ele>837.992524</ele>
        <time>2021-11-13T17:27:30.071Z</time>
      </trkpt>
      <trkpt lat="47.624692" lon="7.951963">
        <ele>837.526800</ele>
        <time>2021-11-13T17:27:31.289Z</time>
      </trkpt>
      <trkpt lat="47.624014" lon="7.951018">
        <ele>835.129156</ele>
        <time>2021-11-13T17:27:41.469Z</time>
      </trkpt>
      <trkpt lat="47.623553" lon="7.950603">
        <ele>835.764978</ele>
        <time>2021-11-13T17:27:49.809Z</time>
      </trkpt>
      <trkpt lat="47.623105" lon="7.950303">
        <ele>836.344552</ele>
        <time>2021-11-13T17:28:01.847Z</time>
      </trkpt>
      <trkpt lat="47.622946" lon="7.950255">
        <ele>836.535879</ele>
        <time>2021-11-13T17:28:06.345Z</time>
      </trkpt>
      <trkpt lat="47.622642" lon="7.950331">
        <ele>836.899395</ele>
        <time>2021-11-13T17:28:14.290Z</time>
      </trkpt>
      <trkpt lat="47.622427" lon="7.950567">
        <ele>837.661167</ele>
        <time>2021-11-13T17:28:21.141Z</time>
      </trkpt>
      <trkpt lat="47.622278" lon="7.951027">
        <ele>838.882637</ele>
        <time>2021-11-13T17:28:29.922Z</time>
      </trkpt>
      <trkpt lat="47.622272" lon="7.951112">
        <ele>839.087184</ele>
        <time>2021-11-13T17:28:31.892Z</time>
      </trkpt>
      <trkpt lat="47.622265" lon="7.951206">
        <ele>839.313528</ele>
        <time>2021-11-13T17:28:33.255Z</time>
      </trkpt>
      <trkpt lat="47.622261" lon="7.951375">
        <ele>839.718253</ele>
        <time>2021-11-13T17:28:36.456Z</time>
      </trkpt>
      <trkpt lat="47.622276" lon="7.952166">
        <ele>841.612138</ele>
        <time>2021-11-13T17:28:51.884Z</time>
      </trkpt>
      <trkpt lat="47.622251" lon="7.952351">
        <ele>842.063719</ele>
        <time>2021-11-13T17:28:56.653Z</time>
      </trkpt>
      <trkpt lat="47.622136" lon="7.952635">
        <ele>842.856661</ele>
        <time>2021-11-13T17:29:02.671Z</time>
      </trkpt>
      <trkpt lat="47.621968" lon="7.952806">
        <ele>843.615274</ele>
        <time>2021-11-13T17:29:09.793Z</time>
      </trkpt>
      <trkpt lat="47.621882" lon="7.952893">
        <ele>844.049713</ele>
        <time>2021-11-13T17:29:12.882Z</time>
      </trkpt>
      <trkpt lat="47.621500" lon="7.952932">
        <ele>845.647838</ele>
        <time>2021-11-13T17:29:26.911Z</time>
      </trkpt>
      <trkpt lat="47.621408" lon="7.952896">
        <ele>846.044949</ele>
        <time>2021-11-13T17:29:29.970Z</time>
      </trkpt>
      <trkpt lat="47.621374" lon="7.952883">
        <ele>846.191492</ele>
        <time>2021-11-13T17:29:32.121Z</time>
      </trkpt>
      <trkpt lat="47.620544" lon="7.952585">
        <ele>849.755661</ele>
        <time>2021-11-13T17:29:57.714Z</time>
      </trkpt>
      <trkpt lat="47.620395" lon="7.952576">
        <ele>850.378058</ele>
        <time>2021-11-13T17:30:02.346Z</time>
      </trkpt>
      <trkpt lat="47.620168" lon="7.952606">
        <ele>850.936310</ele>
        <time>2021-11-13T17:30:08.946Z</time>
      </trkpt>
      <trkpt lat="47.619933" lon="7.952707">
        <ele>851.051040</ele>
        <time>2021-11-13T17:30:16.615Z</time>
      </trkpt>
      <trkpt lat="47.619515" lon="7.953035">
        <ele>851.272783</ele>
        <time>2021-11-13T17:30:27.144Z</time>
      </trkpt>
      <trkpt lat="47.618866" lon="7.953794">
        <ele>851.660311</ele>
        <time>2021-11-13T17:30:38.852Z</time>
      </trkpt>
      <trkpt lat="47.618375" lon="7.954525">
        <ele>848.289338</ele>
        <time>2021-11-13T17:30:45.551Z</time>
      </trkpt>
      <trkpt lat="47.618328" lon="7.954588">
        <ele>847.890875</ele>
        <time>2021-11-13T17:30:46.129Z</time>
      </trkpt>
      <trkpt lat="47.618208" lon="7.954752">
        <ele>846.864522</ele>
        <time>2021-11-13T17:30:47.595Z</time>
      </trkpt>
      <trkpt lat="47.617828" lon="7.954964">
        <ele>844.310680</ele>
        <time>2021-11-13T17:30:51.249Z</time>
      </trkpt>
      <trkpt lat="47.617721" lon="7.954960">
        <ele>843.637379</ele>
        <time>2021-11-13T17:30:52.205Z</time>
      </trkpt>
      <trkpt lat="47.617621" lon="7.954956">
        <ele>843.008098</ele>
        <time>2021-11-13T17:30:53.076Z</time>
      </trkpt>
      <trkpt lat="47.617283" lon="7.954886">
        <ele>840.861279</ele>
        <time>2021-11-13T17:30:56.091Z</time>
      </trkpt>
      <trkpt lat="47.617229" lon="7.954869">
        <ele>840.514026</ele>
        <time>2021-11-13T17:30:56.557Z</time>
      </trkpt>
      <trkpt lat="47.617066" lon="7.954812">
        <ele>839.107100</ele>
        <time>2021-11-13T17:30:58.042Z</time>
      </trkpt>
      <trkpt lat="47.616890" lon="7.954760">
        <ele>837.560410</ele>
        <time>2021-11-13T17:30:59.594Z</time>
      </trkpt>
      <trkpt lat="47.616560" lon="7.954678">
        <ele>834.676604</ele>
        <time>2021-11-13T17:31:02.508Z</time>
      </trkpt>
      <trkpt lat="47.616312" lon="7.954710">
        <ele>832.531086</ele>
        <time>2021-11-13T17:31:04.657Z</time>
      </trkpt>
      <trkpt lat="47.615954" lon="7.954858">
        <ele>829.328007</ele>
        <time>2021-11-13T17:31:07.892Z</time>
      </trkpt>
      <trkpt lat="47.615567" lon="7.955253">
        <ele>825.279324</ele>
        <time>2021-11-13T17:31:12.052Z</time>
      </trkpt>
      <trkpt lat="47.615290" lon="7.955684">
        <ele>822.347690</ele>
        <time>2021-11-13T17:31:15.607Z</time>
      </trkpt>
      <trkpt lat="47.615069" lon="7.955940">
        <ele>820.343549</ele>
        <time>2021-11-13T17:31:18.123Z</time>
      </trkpt>
      <trkpt lat="47.614839" lon="7.956151">
        <ele>818.410652</ele>
        <time>2021-11-13T17:31:20.573Z</time>
      </trkpt>
      <trkpt lat="47.614413" lon="7.956465">
        <ele>815.010639</ele>
        <time>2021-11-13T17:31:24.843Z</time>
      </trkpt>
      <trkpt lat="47.614150" lon="7.956743">
        <ele>812.702419</ele>
        <time>2021-11-13T17:31:27.710Z</time>
      </trkpt>
      <trkpt lat="47.613975" lon="7.956945">
        <ele>811.297048</ele>
        <time>2021-11-13T17:31:29.709Z</time>
      </trkpt>
      <trkpt lat="47.613817" lon="7.957293">
        <ele>809.661444</ele>
        <time>2021-11-13T17:31:32.329Z</time>
      </trkpt>
      <trkpt lat="47.613747" lon="7.957547">
        <ele>808.591725</ele>
        <time>2021-11-13T17:31:34.009Z</time>
      </trkpt>
      <trkpt lat="47.613637" lon="7.957858">
        <ele>807.222604</ele>
        <time>2021-11-13T17:31:36.197Z</time>
      </trkpt>
      <trkpt lat="47.613498" lon="7.958176">
        <ele>805.745146</ele>
        <time>2021-11-13T17:31:38.625Z</time>
      </trkpt>
      <trkpt lat="47.613441" lon="7.958296">
        <ele>805.172883</ele>
        <time>2021-11-13T17:31:39.506Z</time>
      </trkpt>
      <trkpt lat="47.613253" lon="7.958684">
        <ele>803.310155</ele>
        <time>2021-11-13T17:31:42.502Z</time>
      </trkpt>
      <trkpt lat="47.613156" lon="7.958910">
        <ele>802.265715</ele>
        <time>2021-11-13T17:31:44.198Z</time>
      </trkpt>
      <trkpt lat="47.613134" lon="7.959507">
        <ele>800.169408</ele>
        <time>2021-11-13T17:31:47.985Z</time>
      </trkpt>
      <trkpt lat="47.613020" lon="7.960049">
        <ele>798.257507</ele>
        <time>2021-11-13T17:31:51.669Z</time>
      </trkpt>
      <trkpt lat="47.612881" lon="7.960311">
        <ele>797.134801</ele>
        <time>2021-11-13T17:31:53.780Z</time>
      </trkpt>
      <trkpt lat="47.612693" lon="7.960527">
        <ele>795.946971</ele>
        <time>2021-11-13T17:31:56.016Z</time>
      </trkpt>
      <trkpt lat="47.612484" lon="7.960712">
        <ele>794.731240</ele>
        <time>2021-11-13T17:31:58.366Z</time>
      </trkpt>
      <trkpt lat="47.612311" lon="7.961103">
        <ele>793.156314</ele>
        <time>2021-11-13T17:32:01.376Z</time>
      </trkpt>
      <trkpt lat="47.612099" lon="7.961419">
        <ele>791.394863</ele>
        <time>2021-11-13T17:32:04.181Z</time>
      </trkpt>
      <trkpt lat="47.611917" lon="7.961735">
        <ele>789.637186</ele>
        <time>2021-11-13T17:32:06.732Z</time>
      </trkpt>
      <trkpt lat="47.611648" lon="7.962205">
        <ele>787.029813</ele>
        <time>2021-11-13T17:32:10.508Z</time>
      </trkpt>
      <trkpt lat="47.611356" lon="7.962756">
        <ele>784.065808</ele>
        <time>2021-11-13T17:32:14.823Z</time>
      </trkpt>
      <trkpt lat="47.611128" lon="7.963082">
        <ele>782.079229</ele>
        <time>2021-11-13T17:32:17.679Z</time>
      </trkpt>
      <trkpt lat="47.610758" lon="7.963604">
        <ele>778.230868</ele>
        <time>2021-11-13T17:32:22.283Z</time>
      </trkpt>
      <trkpt lat="47.609733" lon="7.965333">
        <ele>765.961480</ele>
        <time>2021-11-13T17:32:35.929Z</time>
      </trkpt>
      <trkpt lat="47.609436" lon="7.965776">
        <ele>762.552327</ele>
        <time>2021-11-13T17:32:39.634Z</time>
      </trkpt>
      <trkpt lat="47.609398" lon="7.965823">
        <ele>762.151858</ele>
        <time>2021-11-13T17:32:40.255Z</time>
      </trkpt>
      <trkpt lat="47.609371" lon="7.965858">
        <ele>761.861626</ele>
        <time>2021-11-13T17:32:40.571Z</time>
      </trkpt>
      <trkpt lat="47.609221" lon="7.966057">
        <ele>760.232759</ele>
        <time>2021-11-13T17:32:42.369Z</time>
      </trkpt>
      <trkpt lat="47.609045" lon="7.966175">
        <ele>758.669457</ele>
        <time>2021-11-13T17:32:44.063Z</time>
      </trkpt>
      <trkpt lat="47.607658" lon="7.967106">
        <ele>746.969453</ele>
        <time>2021-11-13T17:32:57.495Z</time>
      </trkpt>
      <trkpt lat="47.607095" lon="7.967514">
        <ele>742.398432</ele>
        <time>2021-11-13T17:33:03.248Z</time>
      </trkpt>
      <trkpt lat="47.606870" lon="7.967721">
        <ele>740.466975</ele>
        <time>2021-11-13T17:33:05.613Z</time>
      </trkpt>
      <trkpt lat="47.606364" lon="7.968338">
        <ele>735.813454</ele>
        <time>2021-11-13T17:33:11.426Z</time>
      </trkpt>
      <trkpt lat="47.606108" lon="7.968738">
        <ele>733.189132</ele>
        <time>2021-11-13T17:33:14.733Z</time>
      </trkpt>
      <trkpt lat="47.605817" lon="7.969371">
        <ele>729.543520</ele>
        <time>2021-11-13T17:33:19.355Z</time>
      </trkpt>
      <trkpt lat="47.605616" lon="7.969840">
        <ele>726.899120</ele>
        <time>2021-11-13T17:33:22.798Z</time>
      </trkpt>
      <trkpt lat="47.605394" lon="7.970424">
        <ele>724.597170</ele>
        <time>2021-11-13T17:33:26.930Z</time>
      </trkpt>
      <trkpt lat="47.605334" lon="7.970757">
        <ele>723.422889</ele>
        <time>2021-11-13T17:33:29.046Z</time>
      </trkpt>
      <trkpt lat="47.605293" lon="7.971142">
        <ele>722.095003</ele>
        <time>2021-11-13T17:33:31.461Z</time>
      </trkpt>
      <trkpt lat="47.605285" lon="7.971687">
        <ele>720.237846</ele>
        <time>2021-11-13T17:33:34.934Z</time>
      </trkpt>
      <trkpt lat="47.605294" lon="7.972024">
        <ele>719.088847</ele>
        <time>2021-11-13T17:33:37.127Z</time>
      </trkpt>
      <trkpt lat="47.605277" lon="7.972254">
        <ele>718.300583</ele>
        <time>2021-11-13T17:33:38.715Z</time>
      </trkpt>
      <trkpt lat="47.605261" lon="7.972326">
        <ele>718.042312</ele>
        <time>2021-11-13T17:33:39.233Z</time>
      </trkpt>
      <trkpt lat="47.605224" lon="7.972488">
        <ele>717.716674</ele>
        <time>2021-11-13T17:33:40.412Z</time>
      </trkpt>
      <trkpt lat="47.605056" lon="7.972376">
        <ele>717.616596</ele>
        <time>2021-11-13T17:33:42.375Z</time>
      </trkpt>
      <trkpt lat="47.604922" lon="7.972287">
        <ele>717.536821</ele>
        <time>2021-11-13T17:33:43.913Z</time>
      </trkpt>
      <trkpt lat="47.604739" lon="7.972027">
        <ele>717.399131</ele>
        <time>2021-11-13T17:33:46.738Z</time>
      </trkpt>
      <trkpt lat="47.604528" lon="7.971728">
        <ele>717.240570</ele>
        <time>2021-11-13T17:33:50.565Z</time>
      </trkpt>
      <trkpt lat="47.604419" lon="7.971600">
        <ele>717.165030</ele>
        <time>2021-11-13T17:33:52.271Z</time>
      </trkpt>
      <trkpt lat="47.604366" lon="7.971555">
        <ele>717.131848</ele>
        <time>2021-11-13T17:33:53.244Z</time>
      </trkpt>
      <trkpt lat="47.604294" lon="7.971507">
        <ele>717.088957</ele>
        <time>2021-11-13T17:33:54.671Z</time>
      </trkpt>
      <trkpt lat="47.604261" lon="7.971490">
        <ele>717.069976</ele>
        <time>2021-11-13T17:33:55.275Z</time>
      </trkpt>
      <trkpt lat="47.604163" lon="7.971460">
        <ele>717.015607</ele>
        <time>2021-11-13T17:33:56.729Z</time>
      </trkpt>
      <trkpt lat="47.604023" lon="7.971466">
        <ele>716.939508</ele>
        <time>2021-11-13T17:33:58.879Z</time>
      </trkpt>
      <trkpt lat="47.603588" lon="7.971607">
        <ele>717.518944</ele>
        <time>2021-11-13T17:34:08.924Z</time>
      </trkpt>
      <trkpt lat="47.603305" lon="7.971596">
        <ele>719.100586</ele>
        <time>2021-11-13T17:34:16.419Z</time>
      </trkpt>
      <trkpt lat="47.603054" lon="7.971469">
        <ele>720.582266</ele>
        <time>2021-11-13T17:34:24.474Z</time>
      </trkpt>
      <trkpt lat="47.602252" lon="7.970803">
        <ele>725.717560</ele>
        <time>2021-11-13T17:35:03.121Z</time>
      </trkpt>
      <trkpt lat="47.601859" lon="7.970629">
        <ele>728.675795</ele>
        <time>2021-11-13T17:35:23.642Z</time>
      </trkpt>
      <trkpt lat="47.601648" lon="7.970592">
        <ele>730.528174</ele>
        <time>2021-11-13T17:35:35.368Z</time>
      </trkpt>
      <trkpt lat="47.601402" lon="7.970556">
        <ele>732.683296</ele>
        <time>2021-11-13T17:35:48.372Z</time>
      </trkpt>
      <trkpt lat="47.601180" lon="7.970508">
        <ele>734.639224</ele>
        <time>2021-11-13T17:35:59.031Z</time>
      </trkpt>
      <trkpt lat="47.600971" lon="7.970428">
        <ele>736.521065</ele>
        <time>2021-11-13T17:36:11.188Z</time>
      </trkpt>
      <trkpt lat="47.600336" lon="7.970065">
        <ele>742.454242</ele>
        <time>2021-11-13T17:36:45.937Z</time>
      </trkpt>
      <trkpt lat="47.599718" lon="7.969767">
        <ele>745.331832</ele>
        <time>2021-11-13T17:37:13.736Z</time>
      </trkpt>
      <trkpt lat="47.599352" lon="7.969493">
        <ele>747.132865</ele>
        <time>2021-11-13T17:37:27.533Z</time>
      </trkpt>
      <trkpt lat="47.598765" lon="7.968887">
        <ele>750.274763</ele>
        <time>2021-11-13T17:37:43.475Z</time>
      </trkpt>
      <trkpt lat="47.598343" lon="7.968578">
        <ele>749.915996</ele>
        <time>2021-11-13T17:37:50.860Z</time>
      </trkpt>
      <trkpt lat="47.597978" lon="7.968440">
        <ele>749.501951</ele>
        <time>2021-11-13T17:37:55.722Z</time>
      </trkpt>
      <trkpt lat="47.597103" lon="7.968192">
        <ele>748.522734</ele>
        <time>2021-11-13T17:38:05.510Z</time>
      </trkpt>
      <trkpt lat="47.596111" lon="7.968029">
        <ele>745.808126</ele>
        <time>2021-11-13T17:38:15.659Z</time>
      </trkpt>
      <trkpt lat="47.595897" lon="7.967970">
        <ele>745.181413</ele>
        <time>2021-11-13T17:38:17.895Z</time>
      </trkpt>
      <trkpt lat="47.595731" lon="7.967840">
        <ele>744.640905</ele>
        <time>2021-11-13T17:38:19.849Z</time>
      </trkpt>
      <trkpt lat="47.595487" lon="7.967606">
        <ele>743.804258</ele>
        <time>2021-11-13T17:38:22.792Z</time>
      </trkpt>
      <trkpt lat="47.595222" lon="7.967319">
        <ele>743.089027</ele>
        <time>2021-11-13T17:38:26.147Z</time>
      </trkpt>
      <trkpt lat="47.594433" lon="7.966488">
        <ele>741.958390</ele>
        <time>2021-11-13T17:38:36.635Z</time>
      </trkpt>
      <trkpt lat="47.594369" lon="7.966419">
        <ele>741.865945</ele>
        <time>2021-11-13T17:38:37.528Z</time>
      </trkpt>
      <trkpt lat="47.593845" lon="7.965844">
        <ele>741.207399</ele>
        <time>2021-11-13T17:38:49.251Z</time>
      </trkpt>
      <trkpt lat="47.593572" lon="7.965514">
        <ele>741.853471</ele>
        <time>2021-11-13T17:38:56.437Z</time>
      </trkpt>
      <trkpt lat="47.593274" lon="7.965197">
        <ele>742.526206</ele>
        <time>2021-11-13T17:39:04.382Z</time>
      </trkpt>
      <trkpt lat="47.592819" lon="7.964868">
        <ele>743.454761</ele>
        <time>2021-11-13T17:39:16.751Z</time>
      </trkpt>
      <trkpt lat="47.592518" lon="7.964704">
        <ele>744.042981</ele>
        <time>2021-11-13T17:39:25.324Z</time>
      </trkpt>
      <trkpt lat="47.591169" lon="7.964077">
        <ele>744.527595</ele>
        <time>2021-11-13T17:39:55.661Z</time>
      </trkpt>
      <trkpt lat="47.590665" lon="7.963794">
        <ele>744.565413</ele>
        <time>2021-11-13T17:40:01.504Z</time>
      </trkpt>
      <trkpt lat="47.590624" lon="7.963772">
        <ele>744.568473</ele>
        <time>2021-11-13T17:40:01.962Z</time>
      </trkpt>
      <trkpt lat="47.590227" lon="7.963517">
        <ele>742.284130</ele>
        <time>2021-11-13T17:40:06.154Z</time>
      </trkpt>
      <trkpt lat="47.589112" lon="7.962950">
        <ele>735.740952</ele>
        <time>2021-11-13T17:40:16.926Z</time>
      </trkpt>
      <trkpt lat="47.588758" lon="7.962844">
        <ele>733.598383</ele>
        <time>2021-11-13T17:40:20.128Z</time>
      </trkpt>
      <trkpt lat="47.588243" lon="7.962855">
        <ele>730.275377</ele>
        <time>2021-11-13T17:40:24.809Z</time>
      </trkpt>
      <trkpt lat="47.587999" lon="7.962882">
        <ele>728.696767</ele>
        <time>2021-11-13T17:40:27.027Z</time>
      </trkpt>
      <trkpt lat="47.587762" lon="7.962890">
        <ele>727.167302</ele>
        <time>2021-11-13T17:40:29.174Z</time>
      </trkpt>
      <trkpt lat="47.587593" lon="7.962854">
        <ele>726.065757</ele>
        <time>2021-11-13T17:40:30.738Z</time>
      </trkpt>
      <trkpt lat="47.587527" lon="7.962835">
        <ele>725.631988</ele>
        <time>2021-11-13T17:40:31.358Z</time>
      </trkpt>
      <trkpt lat="47.587299" lon="7.962810">
        <ele>724.156968</ele>
        <time>2021-11-13T17:40:33.465Z</time>
      </trkpt>
      <trkpt lat="47.587114" lon="7.962708">
        <ele>722.882091</ele>
        <time>2021-11-13T17:40:35.293Z</time>
      </trkpt>
      <trkpt lat="47.586786" lon="7.962503">
        <ele>720.551684</ele>
        <time>2021-11-13T17:40:38.527Z</time>
      </trkpt>
      <trkpt lat="47.586624" lon="7.962373">
        <ele>719.345688</ele>
        <time>2021-11-13T17:40:40.184Z</time>
      </trkpt>
      <trkpt lat="47.586491" lon="7.962168">
        <ele>718.089642</ele>
        <time>2021-11-13T17:40:41.933Z</time>
      </trkpt>
      <trkpt lat="47.586296" lon="7.961772">
        <ele>715.924544</ele>
        <time>2021-11-13T17:40:44.919Z</time>
      </trkpt>
      <trkpt lat="47.586005" lon="7.961489">
        <ele>713.646089</ele>
        <time>2021-11-13T17:40:48.052Z</time>
      </trkpt>
      <trkpt lat="47.585805" lon="7.961386">
        <ele>712.259948</ele>
        <time>2021-11-13T17:40:49.941Z</time>
      </trkpt>
      <trkpt lat="47.585514" lon="7.961317">
        <ele>710.464046</ele>
        <time>2021-11-13T17:40:52.611Z</time>
      </trkpt>
      <trkpt lat="47.585281" lon="7.961295">
        <ele>709.168651</ele>
        <time>2021-11-13T17:40:54.789Z</time>
      </trkpt>
      <trkpt lat="47.585149" lon="7.961311">
        <ele>708.433820</ele>
        <time>2021-11-13T17:40:55.965Z</time>
      </trkpt>
      <trkpt lat="47.585078" lon="7.961320">
        <ele>708.038447</ele>
        <time>2021-11-13T17:40:56.635Z</time>
      </trkpt>
      <trkpt lat="47.584845" lon="7.961410">
        <ele>706.702516</ele>
        <time>2021-11-13T17:40:58.900Z</time>
      </trkpt>
      <trkpt lat="47.584506" lon="7.961629">
        <ele>704.650804</ele>
        <time>2021-11-13T17:41:02.296Z</time>
      </trkpt>
      <trkpt lat="47.583450" lon="7.962220">
        <ele>699.623850</ele>
        <time>2021-11-13T17:41:13.019Z</time>
      </trkpt>
      <trkpt lat="47.583243" lon="7.962307">
        <ele>698.949869</ele>
        <time>2021-11-13T17:41:15.155Z</time>
      </trkpt>
      <trkpt lat="47.583134" lon="7.962356">
        <ele>698.593075</ele>
        <time>2021-11-13T17:41:16.331Z</time>
      </trkpt>
      <trkpt lat="47.582968" lon="7.962415">
        <ele>698.058345</ele>
        <time>2021-11-13T17:41:18.106Z</time>
      </trkpt>
      <trkpt lat="47.582545" lon="7.962501">
        <ele>696.720896</ele>
        <time>2021-11-13T17:41:22.633Z</time>
      </trkpt>
      <trkpt lat="47.582180" lon="7.962548">
        <ele>695.590212</ele>
        <time>2021-11-13T17:41:26.654Z</time>
      </trkpt>
      <trkpt lat="47.581514" lon="7.962514">
        <ele>695.405694</ele>
        <time>2021-11-13T17:41:34.534Z</time>
      </trkpt>
      <trkpt lat="47.580893" lon="7.962449">
        <ele>695.233318</ele>
        <time>2021-11-13T17:41:43.830Z</time>
      </trkpt>
      <trkpt lat="47.580131" lon="7.962271">
        <ele>695.386077</ele>
        <time>2021-11-13T17:41:58.322Z</time>
      </trkpt>
      <trkpt lat="47.579759" lon="7.962106">
        <ele>695.810056</ele>
        <time>2021-11-13T17:42:06.208Z</time>
      </trkpt>
      <trkpt lat="47.579169" lon="7.961638">
        <ele>696.540704</ele>
        <time>2021-11-13T17:42:19.091Z</time>
      </trkpt>
      <trkpt lat="47.578838" lon="7.961180">
        <ele>697.035100</ele>
        <time>2021-11-13T17:42:27.842Z</time>
      </trkpt>
      <trkpt lat="47.578655" lon="7.960775">
        <ele>697.195246</ele>
        <time>2021-11-13T17:42:34.080Z</time>
      </trkpt>
      <trkpt lat="47.578614" lon="7.960661">
        <ele>697.234136</ele>
        <time>2021-11-13T17:42:35.545Z</time>
      </trkpt>
      <trkpt lat="47.578556" lon="7.960464">
        <ele>697.298840</ele>
        <time>2021-11-13T17:42:38.152Z</time>
      </trkpt>
      <trkpt lat="47.578451" lon="7.959921">
        <ele>697.468881</ele>
        <time>2021-11-13T17:42:44.710Z</time>
      </trkpt>
      <trkpt lat="47.578433" lon="7.959542">
        <ele>697.583254</ele>
        <time>2021-11-13T17:42:48.867Z</time>
      </trkpt>
      <trkpt lat="47.578428" lon="7.959421">
        <ele>697.619746</ele>
        <time>2021-11-13T17:42:50.201Z</time>
      </trkpt>
      <trkpt lat="47.578453" lon="7.959023">
        <ele>697.740074</ele>
        <time>2021-11-13T17:42:54.338Z</time>
      </trkpt>
      <trkpt lat="47.578554" lon="7.958491">
        <ele>697.731751</ele>
        <time>2021-11-13T17:42:59.803Z</time>
      </trkpt>
      <trkpt lat="47.578723" lon="7.958003">
        <ele>697.270219</ele>
        <time>2021-11-13T17:43:05.083Z</time>
      </trkpt>
      <trkpt lat="47.579019" lon="7.957379">
        <ele>696.628398</ele>
        <time>2021-11-13T17:43:11.379Z</time>
      </trkpt>
      <trkpt lat="47.579581" lon="7.956485">
        <ele>695.571405</ele>
        <time>2021-11-13T17:43:20.500Z</time>
      </trkpt>
      <trkpt lat="47.579879" lon="7.956035">
        <ele>694.130534</ele>
        <time>2021-11-13T17:43:24.921Z</time>
      </trkpt>
      <trkpt lat="47.580034" lon="7.955780">
        <ele>693.346231</ele>
        <time>2021-11-13T17:43:27.271Z</time>
      </trkpt>
      <trkpt lat="47.580265" lon="7.955293">
        <ele>691.985924</ele>
        <time>2021-11-13T17:43:31.360Z</time>
      </trkpt>
      <trkpt lat="47.580339" lon="7.955104">
        <ele>691.486607</ele>
        <time>2021-11-13T17:43:32.834Z</time>
      </trkpt>
      <trkpt lat="47.580388" lon="7.954967">
        <ele>691.132297</ele>
        <time>2021-11-13T17:43:33.792Z</time>
      </trkpt>
      <trkpt lat="47.580536" lon="7.954398">
        <ele>689.738895</ele>
        <time>2021-11-13T17:43:37.722Z</time>
      </trkpt>
      <trkpt lat="47.580783" lon="7.953015">
        <ele>685.031978</ele>
        <time>2021-11-13T17:43:47.247Z</time>
      </trkpt>
      <trkpt lat="47.580801" lon="7.952840">
        <ele>684.437083</ele>
        <time>2021-11-13T17:43:48.337Z</time>
      </trkpt>
      <trkpt lat="47.580789" lon="7.952623">
        <ele>683.705395</ele>
        <time>2021-11-13T17:43:49.929Z</time>
      </trkpt>
      <trkpt lat="47.580514" lon="7.951308">
        <ele>677.787813</ele>
        <time>2021-11-13T17:43:58.352Z</time>
      </trkpt>
      <trkpt lat="47.580578" lon="7.950534">
        <ele>672.889382</ele>
        <time>2021-11-13T17:44:02.988Z</time>
      </trkpt>
      <trkpt lat="47.580705" lon="7.949917">
        <ele>668.837152</ele>
        <time>2021-11-13T17:44:06.761Z</time>
      </trkpt>
      <trkpt lat="47.580743" lon="7.949656">
        <ele>667.159878</ele>
        <time>2021-11-13T17:44:08.285Z</time>
      </trkpt>
      <trkpt lat="47.580939" lon="7.948093">
        <ele>656.335574</ele>
        <time>2021-11-13T17:44:17.334Z</time>
      </trkpt>
      <trkpt lat="47.580865" lon="7.947817">
        <ele>654.234518</ele>
        <time>2021-11-13T17:44:19.042Z</time>
      </trkpt>
      <trkpt lat="47.580562" lon="7.947489">
        <ele>650.299870</ele>
        <time>2021-11-13T17:44:22.227Z</time>
      </trkpt>
      <trkpt lat="47.580077" lon="7.947070">
        <ele>644.615636</ele>
        <time>2021-11-13T17:44:27.158Z</time>
      </trkpt>
      <trkpt lat="47.579781" lon="7.947052">
        <ele>642.678761</ele>
        <time>2021-11-13T17:44:29.833Z</time>
      </trkpt>
      <trkpt lat="47.579396" lon="7.946888">
        <ele>640.059774</ele>
        <time>2021-11-13T17:44:33.525Z</time>
      </trkpt>
      <trkpt lat="47.578644" lon="7.947268">
        <ele>634.865406</ele>
        <time>2021-11-13T17:44:40.885Z</time>
      </trkpt>
      <trkpt lat="47.578396" lon="7.947244">
        <ele>633.240531</ele>
        <time>2021-11-13T17:44:43.098Z</time>
      </trkpt>
      <trkpt lat="47.578328" lon="7.947192">
        <ele>632.453608</ele>
        <time>2021-11-13T17:44:44.857Z</time>
      </trkpt>
      <trkpt lat="47.578220" lon="7.946989">
        <ele>630.589406</ele>
        <time>2021-11-13T17:44:46.360Z</time>
      </trkpt>
      <trkpt lat="47.578055" lon="7.946424">
        <ele>626.150020</ele>
        <time>2021-11-13T17:44:50.087Z</time>
      </trkpt>
      <trkpt lat="47.577848" lon="7.945352">
        <ele>618.109748</ele>
        <time>2021-11-13T17:44:56.497Z</time>
      </trkpt>
      <trkpt lat="47.577504" lon="7.944765">
        <ele>611.415910</ele>
        <time>2021-11-13T17:45:00.862Z</time>
      </trkpt>
      <trkpt lat="47.576917" lon="7.944153">
        <ele>598.045720</ele>
        <time>2021-11-13T17:45:06.762Z</time>
      </trkpt>
      <trkpt lat="47.576848" lon="7.944056">
        <ele>596.274058</ele>
        <time>2021-11-13T17:45:07.545Z</time>
      </trkpt>
      <trkpt lat="47.576803" lon="7.944012">
        <ele>595.269723</ele>
        <time>2021-11-13T17:45:07.997Z</time>
      </trkpt>
      <trkpt lat="47.576670" lon="7.943775">
        <ele>591.395146</ele>
        <time>2021-11-13T17:45:09.720Z</time>
      </trkpt>
      <trkpt lat="47.576415" lon="7.943598">
        <ele>586.149295</ele>
        <time>2021-11-13T17:45:12.016Z</time>
      </trkpt>
      <trkpt lat="47.575978" lon="7.943401">
        <ele>577.426109</ele>
        <time>2021-11-13T17:45:15.747Z</time>
      </trkpt>
      <trkpt lat="47.575613" lon="7.943320">
        <ele>570.029104</ele>
        <time>2021-11-13T17:45:18.756Z</time>
      </trkpt>
      <trkpt lat="47.574655" lon="7.943625">
        <ele>550.390601</ele>
        <time>2021-11-13T17:45:26.770Z</time>
      </trkpt>
      <trkpt lat="47.574394" lon="7.943856">
        <ele>544.330021</ele>
        <time>2021-11-13T17:45:29.257Z</time>
      </trkpt>
      <trkpt lat="47.574153" lon="7.944610">
        <ele>536.358717</ele>
        <time>2021-11-13T17:45:33.900Z</time>
      </trkpt>
      <trkpt lat="47.573532" lon="7.946081">
        <ele>519.779895</ele>
        <time>2021-11-13T17:45:43.712Z</time>
      </trkpt>
      <trkpt lat="47.573421" lon="7.946607">
        <ele>516.979674</ele>
        <time>2021-11-13T17:45:46.942Z</time>
      </trkpt>
      <trkpt lat="47.573457" lon="7.946845">
        <ele>515.948869</ele>
        <time>2021-11-13T17:45:48.410Z</time>
      </trkpt>
      <trkpt lat="47.573702" lon="7.947589">
        <ele>512.450014</ele>
        <time>2021-11-13T17:45:53.544Z</time>
      </trkpt>
      <trkpt lat="47.573779" lon="7.948382">
        <ele>509.064127</ele>
        <time>2021-11-13T17:45:58.792Z</time>
      </trkpt>
      <trkpt lat="47.573841" lon="7.949945">
        <ele>504.077961</ele>
        <time>2021-11-13T17:46:09.450Z</time>
      </trkpt>
      <trkpt lat="47.573833" lon="7.950164">
        <ele>503.440596</ele>
        <time>2021-11-13T17:46:11.004Z</time>
      </trkpt>
      <trkpt lat="47.573830" lon="7.950662">
        <ele>501.993308</ele>
        <time>2021-11-13T17:46:14.176Z</time>
      </trkpt>
      <trkpt lat="47.573809" lon="7.950963">
        <ele>501.113911</ele>
        <time>2021-11-13T17:46:16.124Z</time>
      </trkpt>
      <trkpt lat="47.573543" lon="7.952446">
        <ele>494.537593</ele>
        <time>2021-11-13T17:46:25.583Z</time>
      </trkpt>
      <trkpt lat="47.573526" lon="7.952563">
        <ele>493.964324</ele>
        <time>2021-11-13T17:46:26.282Z</time>
      </trkpt>
      <trkpt lat="47.573508" lon="7.952785">
        <ele>492.893313</ele>
        <time>2021-11-13T17:46:27.628Z</time>
      </trkpt>
      <trkpt lat="47.573460" lon="7.953097">
        <ele>491.360496</ele>
        <time>2021-11-13T17:46:29.587Z</time>
      </trkpt>
      <trkpt lat="47.573085" lon="7.954089">
        <ele>485.882154</ele>
        <time>2021-11-13T17:46:36.331Z</time>
      </trkpt>
      <trkpt lat="47.572895" lon="7.955000">
        <ele>481.197821</ele>
        <time>2021-11-13T17:46:42.005Z</time>
      </trkpt>
      <trkpt lat="47.572816" lon="7.955144">
        <ele>480.286038</ele>
        <time>2021-11-13T17:46:43.206Z</time>
      </trkpt>
      <trkpt lat="47.572732" lon="7.955226">
        <ele>479.553643</ele>
        <time>2021-11-13T17:46:44.083Z</time>
      </trkpt>
      <trkpt lat="47.572685" lon="7.955235">
        <ele>479.208561</ele>
        <time>2021-11-13T17:46:44.493Z</time>
      </trkpt>
      <trkpt lat="47.572561" lon="7.955012">
        <ele>477.788904</ele>
        <time>2021-11-13T17:46:46.381Z</time>
      </trkpt>
      <trkpt lat="47.572493" lon="7.953580">
        <ele>471.133332</ele>
        <time>2021-11-13T17:46:55.070Z</time>
      </trkpt>
      <trkpt lat="47.572431" lon="7.953273">
        <ele>469.747365</ele>
        <time>2021-11-13T17:46:57.025Z</time>
      </trkpt>
      <trkpt lat="47.572136" lon="7.952448">
        <ele>465.709106</ele>
        <time>2021-11-13T17:47:02.786Z</time>
      </trkpt>
      <trkpt lat="47.572063" lon="7.952158">
        <ele>464.370407</ele>
        <time>2021-11-13T17:47:04.751Z</time>
      </trkpt>
      <trkpt lat="47.572029" lon="7.952049">
        <ele>463.851037</ele>
        <time>2021-11-13T17:47:05.468Z</time>
      </trkpt>
      <trkpt lat="47.571881" lon="7.951642">
        <ele>461.815433</ele>
        <time>2021-11-13T17:47:08.345Z</time>
      </trkpt>
      <trkpt lat="47.571580" lon="7.951400">
        <ele>459.502727</ele>
        <time>2021-11-13T17:47:11.475Z</time>
      </trkpt>
      <trkpt lat="47.571432" lon="7.951352">
        <ele>458.479513</ele>
        <time>2021-11-13T17:47:12.812Z</time>
      </trkpt>
      <trkpt lat="47.571372" lon="7.951351">
        <ele>458.074258</ele>
        <time>2021-11-13T17:47:13.358Z</time>
      </trkpt>
      <trkpt lat="47.571274" lon="7.951357">
        <ele>457.411820</ele>
        <time>2021-11-13T17:47:14.274Z</time>
      </trkpt>
      <trkpt lat="47.571169" lon="7.951380">
        <ele>456.694967</ele>
        <time>2021-11-13T17:47:15.214Z</time>
      </trkpt>
      <trkpt lat="47.571014" lon="7.951483">
        <ele>455.547730</ele>
        <time>2021-11-13T17:47:16.729Z</time>
      </trkpt>
      <trkpt lat="47.570777" lon="7.951728">
        <ele>453.596219</ele>
        <time>2021-11-13T17:47:19.306Z</time>
      </trkpt>
      <trkpt lat="47.570624" lon="7.952436">
        <ele>450.172803</ele>
        <time>2021-11-13T17:47:23.898Z</time>
      </trkpt>
      <trkpt lat="47.570406" lon="7.952888">
        <ele>447.094631</ele>
        <time>2021-11-13T17:47:27.241Z</time>
      </trkpt>
      <trkpt lat="47.570258" lon="7.953004">
        <ele>445.719876</ele>
        <time>2021-11-13T17:47:28.733Z</time>
      </trkpt>
      <trkpt lat="47.569469" lon="7.953110">
        <ele>439.214478</ele>
        <time>2021-11-13T17:47:35.706Z</time>
      </trkpt>
      <trkpt lat="47.568801" lon="7.953205">
        <ele>433.175297</ele>
        <time>2021-11-13T17:47:41.520Z</time>
      </trkpt>
      <trkpt lat="47.568529" lon="7.953233">
        <ele>430.313760</ele>
        <time>2021-11-13T17:47:43.873Z</time>
      </trkpt>
      <trkpt lat="47.568322" lon="7.953261">
        <ele>428.132251</ele>
        <time>2021-11-13T17:47:45.656Z</time>
      </trkpt>
      <trkpt lat="47.568036" lon="7.953298">
        <ele>425.119247</ele>
        <time>2021-11-13T17:47:48.095Z</time>
      </trkpt>
      <trkpt lat="47.567660" lon="7.953207">
        <ele>421.120833</ele>
        <time>2021-11-13T17:47:51.343Z</time>
      </trkpt>
      <trkpt lat="47.567503" lon="7.953060">
        <ele>419.171843</ele>
        <time>2021-11-13T17:47:52.947Z</time>
      </trkpt>
      <trkpt lat="47.567451" lon="7.952996">
        <ele>418.462458</ele>
        <time>2021-11-13T17:47:53.504Z</time>
      </trkpt>
      <trkpt lat="47.567312" lon="7.952728">
        <ele>416.106821</ele>
        <time>2021-11-13T17:47:55.471Z</time>
      </trkpt>
      <trkpt lat="47.567222" lon="7.952062">
        <ele>411.574438</ele>
        <time>2021-11-13T17:47:59.370Z</time>
      </trkpt>
      <trkpt lat="47.567206" lon="7.950456">
        <ele>400.856645</ele>
        <time>2021-11-13T17:48:08.702Z</time>
      </trkpt>
      <trkpt lat="47.567150" lon="7.950174">
        <ele>398.907199</ele>
        <time>2021-11-13T17:48:10.447Z</time>
      </trkpt>
      <trkpt lat="47.566740" lon="7.949245">
        <ele>393.487418</ele>
        <time>2021-11-13T17:48:17.142Z</time>
      </trkpt>
      <trkpt lat="47.566807" lon="7.948128">
        <ele>388.012336</ele>
        <time>2021-11-13T17:48:24.033Z</time>
      </trkpt>
      <trkpt lat="47.566739" lon="7.947778">
        <ele>386.234086</ele>
        <time>2021-11-13T17:48:26.237Z</time>
      </trkpt>
      <trkpt lat="47.566559" lon="7.947459">
        <ele>384.153601</ele>
        <time>2021-11-13T17:48:28.709Z</time>
      </trkpt>
      <trkpt lat="47.566361" lon="7.947197">
        <ele>382.176942</ele>
        <time>2021-11-13T17:48:31.062Z</time>
      </trkpt>
      <trkpt lat="47.566181" lon="7.947137">
        <ele>380.803018</ele>
        <time>2021-11-13T17:48:32.750Z</time>
      </trkpt>
      <trkpt lat="47.566104" lon="7.947141">
        <ele>380.229255</ele>
        <time>2021-11-13T17:48:33.444Z</time>
      </trkpt>
      <trkpt lat="47.566041" lon="7.947154">
        <ele>379.755576</ele>
        <time>2021-11-13T17:48:33.995Z</time>
      </trkpt>
      <trkpt lat="47.566020" lon="7.947169">
        <ele>379.581976</ele>
        <time>2021-11-13T17:48:34.200Z</time>
      </trkpt>
      <trkpt lat="47.565946" lon="7.947239">
        <ele>378.928224</ele>
        <time>2021-11-13T17:48:35.005Z</time>
      </trkpt>
      <trkpt lat="47.565560" lon="7.947737">
        <ele>375.117142</ele>
        <time>2021-11-13T17:48:39.619Z</time>
      </trkpt>
      <trkpt lat="47.565487" lon="7.947832">
        <ele>374.393684</ele>
        <time>2021-11-13T17:48:40.460Z</time>
      </trkpt>
      <trkpt lat="47.565349" lon="7.947927">
        <ele>373.260559</ele>
        <time>2021-11-13T17:48:41.830Z</time>
      </trkpt>
      <trkpt lat="47.565219" lon="7.948009">
        <ele>372.147550</ele>
        <time>2021-11-13T17:48:43.076Z</time>
      </trkpt>
      <trkpt lat="47.565100" lon="7.948048">
        <ele>371.068657</ele>
        <time>2021-11-13T17:48:44.147Z</time>
      </trkpt>
      <trkpt lat="47.565021" lon="7.948043">
        <ele>370.368676</ele>
        <time>2021-11-13T17:48:44.840Z</time>
      </trkpt>
      <trkpt lat="47.564900" lon="7.948021">
        <ele>369.289498</ele>
        <time>2021-11-13T17:48:45.908Z</time>
      </trkpt>
      <trkpt lat="47.564785" lon="7.947966">
        <ele>368.219769</ele>
        <time>2021-11-13T17:48:46.938Z</time>
      </trkpt>
      <trkpt lat="47.564750" lon="7.947944">
        <ele>367.883217</ele>
        <time>2021-11-13T17:48:47.276Z</time>
      </trkpt>
      <trkpt lat="47.564704" lon="7.947878">
        <ele>367.316433</ele>
        <time>2021-11-13T17:48:47.839Z</time>
      </trkpt>
      <trkpt lat="47.564636" lon="7.947804">
        <ele>366.569609</ele>
        <time>2021-11-13T17:48:48.575Z</time>
      </trkpt>
      <trkpt lat="47.564602" lon="7.947749">
        <ele>366.124050</ele>
        <time>2021-11-13T17:48:49.010Z</time>
      </trkpt>
      <trkpt lat="47.564466" lon="7.947344">
        <ele>363.421852</ele>
        <time>2021-11-13T17:48:51.658Z</time>
      </trkpt>
      <trkpt lat="47.564404" lon="7.946994">
        <ele>361.260357</ele>
        <time>2021-11-13T17:48:53.775Z</time>
      </trkpt>
      <trkpt lat="47.564365" lon="7.946824">
        <ele>360.187811</ele>
        <time>2021-11-13T17:48:54.835Z</time>
      </trkpt>
      <trkpt lat="47.564271" lon="7.946559">
        <ele>358.399490</ele>
        <time>2021-11-13T17:48:56.601Z</time>
      </trkpt>
      <trkpt lat="47.564141" lon="7.946291">
        <ele>356.431796</ele>
        <time>2021-11-13T17:48:58.554Z</time>
      </trkpt>
      <trkpt lat="47.564119" lon="7.946229">
        <ele>356.022347</ele>
        <time>2021-11-13T17:48:58.956Z</time>
      </trkpt>
      <trkpt lat="47.564025" lon="7.945964">
        <ele>354.272413</ele>
        <time>2021-11-13T17:49:00.767Z</time>
      </trkpt>
      <trkpt lat="47.563874" lon="7.945541">
        <ele>351.475258</ele>
        <time>2021-11-13T17:49:03.546Z</time>
      </trkpt>
      <trkpt lat="47.563855" lon="7.945417">
        <ele>350.732012</ele>
        <time>2021-11-13T17:49:04.288Z</time>
      </trkpt>
      <trkpt lat="47.563798" lon="7.945261">
        <ele>349.695072</ele>
        <time>2021-11-13T17:49:05.300Z</time>
      </trkpt>
      <trkpt lat="47.563725" lon="7.945071">
        <ele>348.417087</ele>
        <time>2021-11-13T17:49:06.612Z</time>
      </trkpt>
      <trkpt lat="47.563643" lon="7.944887">
        <ele>347.128189</ele>
        <time>2021-11-13T17:49:07.902Z</time>
      </trkpt>
      <trkpt lat="47.563617" lon="7.944825">
        <ele>346.701506</ele>
        <time>2021-11-13T17:49:08.315Z</time>
      </trkpt>
      <trkpt lat="47.563376" lon="7.944323">
        <ele>343.100373</ele>
        <time>2021-11-13T17:49:11.961Z</time>
      </trkpt>
      <trkpt lat="47.563250" lon="7.944210">
        <ele>341.824616</ele>
        <time>2021-11-13T17:49:13.320Z</time>
      </trkpt>
      <trkpt lat="47.563121" lon="7.944175">
        <ele>340.770899</ele>
        <time>2021-11-13T17:49:14.465Z</time>
      </trkpt>
      <trkpt lat="47.562993" lon="7.944148">
        <ele>339.922530</ele>
        <time>2021-11-13T17:49:15.627Z</time>
      </trkpt>
      <trkpt lat="47.562431" lon="7.944285">
        <ele>336.185272</ele>
        <time>2021-11-13T17:49:20.837Z</time>
      </trkpt>
      <trkpt lat="47.562104" lon="7.944442">
        <ele>333.929782</ele>
        <time>2021-11-13T17:49:23.994Z</time>
      </trkpt>
      <trkpt lat="47.561884" lon="7.944575">
        <ele>332.370700</ele>
        <time>2021-11-13T17:49:26.191Z</time>
      </trkpt>
      <trkpt lat="47.561590" lon="7.944808">
        <ele>330.183006</ele>
        <time>2021-11-13T17:49:29.183Z</time>
      </trkpt>
      <trkpt lat="47.561549" lon="7.944844">
        <ele>329.870297</ele>
        <time>2021-11-13T17:49:29.656Z</time>
      </trkpt>
      <trkpt lat="47.561253" lon="7.945105">
        <ele>327.278536</ele>
        <time>2021-11-13T17:49:32.774Z</time>
      </trkpt>
      <trkpt lat="47.561051" lon="7.945242">
        <ele>325.521583</ele>
        <time>2021-11-13T17:49:34.750Z</time>
      </trkpt>
      <trkpt lat="47.560884" lon="7.945275">
        <ele>324.189113</ele>
        <time>2021-11-13T17:49:36.258Z</time>
      </trkpt>
      <trkpt lat="47.560748" lon="7.945268">
        <ele>323.112860</ele>
        <time>2021-11-13T17:49:37.480Z</time>
      </trkpt>
      <trkpt lat="47.560632" lon="7.945223">
        <ele>322.164519</ele>
        <time>2021-11-13T17:49:38.523Z</time>
      </trkpt>
      <trkpt lat="47.560464" lon="7.945085">
        <ele>320.645359</ele>
        <time>2021-11-13T17:49:40.229Z</time>
      </trkpt>
      <trkpt lat="47.560288" lon="7.944850">
        <ele>318.771712</ele>
        <time>2021-11-13T17:49:42.298Z</time>
      </trkpt>
      <trkpt lat="47.560144" lon="7.944665">
        <ele>317.264432</ele>
        <time>2021-11-13T17:49:43.949Z</time>
      </trkpt>
      <trkpt lat="47.560106" lon="7.944624">
        <ele>316.892674</ele>
        <time>2021-11-13T17:49:44.346Z</time>
      </trkpt>
      <trkpt lat="47.559855" lon="7.944533">
        <ele>314.871202</ele>
        <time>2021-11-13T17:49:46.607Z</time>
      </trkpt>
      <trkpt lat="47.559774" lon="7.944500">
        <ele>314.304133</ele>
        <time>2021-11-13T17:49:47.336Z</time>
      </trkpt>
      <trkpt lat="47.559609" lon="7.944534">
        <ele>313.179603</ele>
        <time>2021-11-13T17:49:48.812Z</time>
      </trkpt>
      <trkpt lat="47.559263" lon="7.944710">
        <ele>310.710197</ele>
        <time>2021-11-13T17:49:52.021Z</time>
      </trkpt>
      <trkpt lat="47.559249" lon="7.944727">
        <ele>310.588015</ele>
        <time>2021-11-13T17:49:52.171Z</time>
      </trkpt>
      <trkpt lat="47.558967" lon="7.945068">
        <ele>308.131045</ele>
        <time>2021-11-13T17:49:55.443Z</time>
      </trkpt>
      <trkpt lat="47.558781" lon="7.945419">
        <ele>306.098052</ele>
        <time>2021-11-13T17:49:58.241Z</time>
      </trkpt>
      <trkpt lat="47.558676" lon="7.945591">
        <ele>305.041502</ele>
        <time>2021-11-13T17:49:59.682Z</time>
      </trkpt>
      <trkpt lat="47.558644" lon="7.945668">
        <ele>304.629558</ele>
        <time>2021-11-13T17:50:00.272Z</time>
      </trkpt>
      <trkpt lat="47.558608" lon="7.945765">
        <ele>304.125269</ele>
        <time>2021-11-13T17:50:00.989Z</time>
      </trkpt>
      <trkpt lat="47.558540" lon="7.945722">
        <ele>303.626195</ele>
        <time>2021-11-13T17:50:01.699Z</time>
      </trkpt>
      <trkpt lat="47.558415" lon="7.945666">
        <ele>302.806755</ele>
        <time>2021-11-13T17:50:02.912Z</time>
      </trkpt>
      <trkpt lat="47.558161" lon="7.945614">
        <ele>302.015615</ele>
        <time>2021-11-13T17:50:05.545Z</time>
      </trkpt>
      <trkpt lat="47.558102" lon="7.945615">
        <ele>301.833564</ele>
        <time>2021-11-13T17:50:06.066Z</time>
      </trkpt>
      <trkpt lat="47.558009" lon="7.945617">
        <ele>301.546590</ele>
        <time>2021-11-13T17:50:06.999Z</time>
      </trkpt>
      <trkpt lat="47.557910" lon="7.945625">
        <ele>301.240680</ele>
        <time>2021-11-13T17:50:08.008Z</time>
      </trkpt>
      <trkpt lat="47.557744" lon="7.945674">
        <ele>300.718438</ele>
        <time>2021-11-13T17:50:09.727Z</time>
      </trkpt>
      <trkpt lat="47.557613" lon="7.945697">
        <ele>300.311421</ele>
        <time>2021-11-13T17:50:11.112Z</time>
      </trkpt>
      <trkpt lat="47.557529" lon="7.945747">
        <ele>300.032117</ele>
        <time>2021-11-13T17:50:12.062Z</time>
      </trkpt>
      <trkpt lat="47.557446" lon="7.945795">
        <ele>299.757216</ele>
        <time>2021-11-13T17:50:13.010Z</time>
      </trkpt>
      <trkpt lat="47.557361" lon="7.945867">
        <ele>299.455130</ele>
        <time>2021-11-13T17:50:14.043Z</time>
      </trkpt>
      <trkpt lat="47.557315" lon="7.945902">
        <ele>299.295584</ele>
        <time>2021-11-13T17:50:14.575Z</time>
      </trkpt>
      <trkpt lat="47.557212" lon="7.946010">
        <ele>298.906269</ele>
        <time>2021-11-13T17:50:15.904Z</time>
      </trkpt>
      <trkpt lat="47.557111" lon="7.946129">
        <ele>298.508139</ele>
        <time>2021-11-13T17:50:17.292Z</time>
      </trkpt>
      <trkpt lat="47.557079" lon="7.946167">
        <ele>298.381613</ele>
        <time>2021-11-13T17:50:17.741Z</time>
      </trkpt>
      <trkpt lat="47.557026" lon="7.946287">
        <ele>298.082993</ele>
        <time>2021-11-13T17:50:18.749Z</time>
      </trkpt>
      <trkpt lat="47.556890" lon="7.946422">
        <ele>297.577924</ele>
        <time>2021-11-13T17:50:20.514Z</time>
      </trkpt>
      <trkpt lat="47.556716" lon="7.946585">
        <ele>297.046636</ele>
        <time>2021-11-13T17:50:22.688Z</time>
      </trkpt>
      <trkpt lat="47.556160" lon="7.947027">
        <ele>295.651277</ele>
        <time>2021-11-13T17:50:29.526Z</time>
      </trkpt>
      <trkpt lat="47.556050" lon="7.947125">
        <ele>295.367430</ele>
        <time>2021-11-13T17:50:30.853Z</time>
      </trkpt>
      <trkpt lat="47.556009" lon="7.947161">
        <ele>295.262036</ele>
        <time>2021-11-13T17:50:31.370Z</time>
      </trkpt>
      <trkpt lat="47.555912" lon="7.947254">
        <ele>295.006534</ele>
        <time>2021-11-13T17:50:32.674Z</time>
      </trkpt>
      <trkpt lat="47.555846" lon="7.947320">
        <ele>294.830448</ele>
        <time>2021-11-13T17:50:33.562Z</time>
      </trkpt>
      <trkpt lat="47.555751" lon="7.947427">
        <ele>294.566554</ele>
        <time>2021-11-13T17:50:34.788Z</time>
      </trkpt>
      <trkpt lat="47.555636" lon="7.947544">
        <ele>294.258057</ele>
        <time>2021-11-13T17:50:36.325Z</time>
      </trkpt>
      <trkpt lat="47.555582" lon="7.947589">
        <ele>294.121047</ele>
        <time>2021-11-13T17:50:37.015Z</time>
      </trkpt>
      <trkpt lat="47.555417" lon="7.947683">
        <ele>293.730112</ele>
        <time>2021-11-13T17:50:38.863Z</time>
      </trkpt>
      <trkpt lat="47.555379" lon="7.947702">
        <ele>293.641421</ele>
        <time>2021-11-13T17:50:39.316Z</time>
      </trkpt>
      <trkpt lat="47.555306" lon="7.947738">
        <ele>293.471276</ele>
        <time>2021-11-13T17:50:40.187Z</time>
      </trkpt>
      <trkpt lat="47.555286" lon="7.947750">
        <ele>293.423558</ele>
        <time>2021-11-13T17:50:40.427Z</time>
      </trkpt>
      <trkpt lat="47.554903" lon="7.947916">
        <ele>292.915921</ele>
        <time>2021-11-13T17:50:44.823Z</time>
      </trkpt>
      <trkpt lat="47.554810" lon="7.947963">
        <ele>292.801634</ele>
        <time>2021-11-13T17:50:45.899Z</time>
      </trkpt>
      <trkpt lat="47.554749" lon="7.947993">
        <ele>292.726879</ele>
        <time>2021-11-13T17:50:46.572Z</time>
      </trkpt>
      <trkpt lat="47.554731" lon="7.947945">
        <ele>292.683775</ele>
        <time>2021-11-13T17:50:46.977Z</time>
      </trkpt>
      <trkpt lat="47.554614" lon="7.947707">
        <ele>292.452646</ele>
        <time>2021-11-13T17:50:49.412Z</time>
      </trkpt>
      <trkpt lat="47.554563" lon="7.947632">
        <ele>292.369073</ele>
        <time>2021-11-13T17:50:50.259Z</time>
      </trkpt>
      <trkpt lat="47.554517" lon="7.947576">
        <ele>292.299828</ele>
        <time>2021-11-13T17:50:50.933Z</time>
      </trkpt>
      <trkpt lat="47.554475" lon="7.947529">
        <ele>292.238611</ele>
        <time>2021-11-13T17:50:51.545Z</time>
      </trkpt>
      <trkpt lat="47.554446" lon="7.947485">
        <ele>292.190335</ele>
        <time>2021-11-13T17:50:52.117Z</time>
      </trkpt>
      <trkpt lat="47.554411" lon="7.947434">
        <ele>292.133240</ele>
        <time>2021-11-13T17:50:52.751Z</time>
      </trkpt>
      <trkpt lat="47.554335" lon="7.947299">
        <ele>291.995242</ele>
        <time>2021-11-13T17:50:54.259Z</time>
      </trkpt>
      <trkpt lat="47.554307" lon="7.947234">
        <ele>291.934711</ele>
        <time>2021-11-13T17:50:54.880Z</time>
      </trkpt>
      <trkpt lat="47.554239" lon="7.947057">
        <ele>291.774838</ele>
        <time>2021-11-13T17:50:56.653Z</time>
      </trkpt>
      <trkpt lat="47.554191" lon="7.946913">
        <ele>291.648767</ele>
        <time>2021-11-13T17:50:58.139Z</time>
      </trkpt>
      <trkpt lat="47.554125" lon="7.946712">
        <ele>291.473305</ele>
        <time>2021-11-13T17:51:00.035Z</time>
      </trkpt>
      <trkpt lat="47.554096" lon="7.946611">
        <ele>291.387147</ele>
        <time>2021-11-13T17:51:00.988Z</time>
      </trkpt>
      <trkpt lat="47.554047" lon="7.946318">
        <ele>291.255219</ele>
        <time>2021-11-13T17:51:03.902Z</time>
      </trkpt>
      <trkpt lat="47.554024" lon="7.946113">
        <ele>291.283317</ele>
        <time>2021-11-13T17:51:05.706Z</time>
      </trkpt>
      <trkpt lat="47.554016" lon="7.946027">
        <ele>291.295054</ele>
        <time>2021-11-13T17:51:06.728Z</time>
      </trkpt>
      <trkpt lat="47.553951" lon="7.945209">
        <ele>291.406417</ele>
        <time>2021-11-13T17:51:14.964Z</time>
      </trkpt>
      <trkpt lat="47.553938" lon="7.945102">
        <ele>291.421116</ele>
        <time>2021-11-13T17:51:16.082Z</time>
      </trkpt>
      <trkpt lat="47.553910" lon="7.944904">
        <ele>291.448469</ele>
        <time>2021-11-13T17:51:18.468Z</time>
      </trkpt>
      <trkpt lat="47.553897" lon="7.944841">
        <ele>291.457376</ele>
        <time>2021-11-13T17:51:19.195Z</time>
      </trkpt>
      <trkpt lat="47.553823" lon="7.944597">
        <ele>291.493544</ele>
        <time>2021-11-13T17:51:21.980Z</time>
      </trkpt>
      <trkpt lat="47.553760" lon="7.944488">
        <ele>291.512947</ele>
        <time>2021-11-13T17:51:23.738Z</time>
      </trkpt>
      <trkpt lat="47.553682" lon="7.944376">
        <ele>291.534707</ele>
        <time>2021-11-13T17:51:25.619Z</time>
      </trkpt>
      <trkpt lat="47.553563" lon="7.944220">
        <ele>291.566539</ele>
        <time>2021-11-13T17:51:28.237Z</time>
      </trkpt>
      <trkpt lat="47.553453" lon="7.944106">
        <ele>291.593431</ele>
        <time>2021-11-13T17:51:30.767Z</time>
      </trkpt>
      <trkpt lat="47.552727" lon="7.943506">
        <ele>291.885510</ele>
        <time>2021-11-13T17:51:45.327Z</time>
      </trkpt>
      <trkpt lat="47.552150" lon="7.942963">
        <ele>292.129996</ele>
        <time>2021-11-13T17:51:56.651Z</time>
      </trkpt>
      <trkpt lat="47.551778" lon="7.942684">
        <ele>292.146763</ele>
        <time>2021-11-13T17:52:02.636Z</time>
      </trkpt>
      <trkpt lat="47.551689" lon="7.942595">
        <ele>292.042691</ele>
        <time>2021-11-13T17:52:04.123Z</time>
      </trkpt>
      <trkpt lat="47.551345" lon="7.942294">
        <ele>291.655471</ele>
        <time>2021-11-13T17:52:09.403Z</time>
      </trkpt>
      <trkpt lat="47.551021" lon="7.942011">
        <ele>291.290928</ele>
        <time>2021-11-13T17:52:14.152Z</time>
      </trkpt>
      <trkpt lat="47.550810" lon="7.941838">
        <ele>291.057193</ele>
        <time>2021-11-13T17:52:17.074Z</time>
      </trkpt>
      <trkpt lat="47.550734" lon="7.941776">
        <ele>290.973102</ele>
        <time>2021-11-13T17:52:18.044Z</time>
      </trkpt>
      <trkpt lat="47.550392" lon="7.941462">
        <ele>290.583136</ele>
        <time>2021-11-13T17:52:22.675Z</time>
      </trkpt>
      <trkpt lat="47.550283" lon="7.941362">
        <ele>290.413536</ele>
        <time>2021-11-13T17:52:24.108Z</time>
      </trkpt>
      <trkpt lat="47.550265" lon="7.941346">
        <ele>290.370830</ele>
        <time>2021-11-13T17:52:24.338Z</time>
      </trkpt>
      <trkpt lat="47.549622" lon="7.940782">
        <ele>288.850574</ele>
        <time>2021-11-13T17:52:32.335Z</time>
      </trkpt>
      <trkpt lat="47.549495" lon="7.940673">
        <ele>288.551968</ele>
        <time>2021-11-13T17:52:33.890Z</time>
      </trkpt>
      <trkpt lat="47.549121" lon="7.940344">
        <ele>287.667045</ele>
        <time>2021-11-13T17:52:38.621Z</time>
      </trkpt>
      <trkpt lat="47.549016" lon="7.940247">
        <ele>287.415296</ele>
        <time>2021-11-13T17:52:39.952Z</time>
      </trkpt>
      <trkpt lat="47.548784" lon="7.940080">
        <ele>286.890528</ele>
        <time>2021-11-13T17:52:42.814Z</time>
      </trkpt>
      <trkpt lat="47.548673" lon="7.939890">
        <ele>286.743066</ele>
        <time>2021-11-13T17:52:44.707Z</time>
      </trkpt>
      <trkpt lat="47.548643" lon="7.939810">
        <ele>286.701488</ele>
        <time>2021-11-13T17:52:45.411Z</time>
      </trkpt>
      <trkpt lat="47.548614" lon="7.939778">
        <ele>286.677149</ele>
        <time>2021-11-13T17:52:45.826Z</time>
      </trkpt>
      <trkpt lat="47.548563" lon="7.939753">
        <ele>286.640991</ele>
        <time>2021-11-13T17:52:46.449Z</time>
      </trkpt>
      <trkpt lat="47.548509" lon="7.939765">
        <ele>286.604238</ele>
        <time>2021-11-13T17:52:47.060Z</time>
      </trkpt>
      <trkpt lat="47.548479" lon="7.939789">
        <ele>286.581289</ele>
        <time>2021-11-13T17:52:47.443Z</time>
      </trkpt>
      <trkpt lat="47.548455" lon="7.939823">
        <ele>286.558938</ele>
        <time>2021-11-13T17:52:47.828Z</time>
      </trkpt>
      <trkpt lat="47.548437" lon="7.939866">
        <ele>286.535951</ele>
        <time>2021-11-13T17:52:48.226Z</time>
      </trkpt>
      <trkpt lat="47.548426" lon="7.939924">
        <ele>286.508580</ele>
        <time>2021-11-13T17:52:48.694Z</time>
      </trkpt>
      <trkpt lat="47.548427" lon="7.939957">
        <ele>286.493572</ele>
        <time>2021-11-13T17:52:48.967Z</time>
      </trkpt>
      <trkpt lat="47.548446" lon="7.940038">
        <ele>286.454614</ele>
        <time>2021-11-13T17:52:49.638Z</time>
      </trkpt>
      <trkpt lat="47.548468" lon="7.940081">
        <ele>286.430100</ele>
        <time>2021-11-13T17:52:50.077Z</time>
      </trkpt>
      <trkpt lat="47.548420" lon="7.940256">
        <ele>286.344281</ele>
        <time>2021-11-13T17:52:51.595Z</time>
      </trkpt>
      <trkpt lat="47.548303" lon="7.940599">
        <ele>286.169681</ele>
        <time>2021-11-13T17:52:55.025Z</time>
      </trkpt>
      <trkpt lat="47.548195" lon="7.940950">
        <ele>285.994428</ele>
        <time>2021-11-13T17:52:58.587Z</time>
      </trkpt>
      <trkpt lat="47.547852" lon="7.942144">
        <ele>285.781652</ele>
        <time>2021-11-13T17:53:12.687Z</time>
      </trkpt>
      <trkpt lat="47.547772" lon="7.942416">
        <ele>285.872350</ele>
        <time>2021-11-13T17:53:16.304Z</time>
      </trkpt>
      <trkpt lat="47.547436" lon="7.943731">
        <ele>286.302170</ele>
        <time>2021-11-13T17:53:32.535Z</time>
      </trkpt>
      <trkpt lat="47.547297" lon="7.944159">
        <ele>286.447441</ele>
        <time>2021-11-13T17:53:37.848Z</time>
      </trkpt>
      <trkpt lat="47.547246" lon="7.944330">
        <ele>286.506265</ele>
        <time>2021-11-13T17:53:40.030Z</time>
      </trkpt>
      <trkpt lat="47.547178" lon="7.944456">
        <ele>286.557026</ele>
        <time>2021-11-13T17:53:41.813Z</time>
      </trkpt>
      <trkpt lat="47.547134" lon="7.944545">
        <ele>286.591738</ele>
        <time>2021-11-13T17:53:42.881Z</time>
      </trkpt>
      <trkpt lat="47.546764" lon="7.945239">
        <ele>286.870009</ele>
        <time>2021-11-13T17:53:51.742Z</time>
      </trkpt>
      <trkpt lat="47.546516" lon="7.946289">
        <ele>287.220041</ele>
        <time>2021-11-13T17:54:03.713Z</time>
      </trkpt>
      <trkpt lat="47.546519" lon="7.946567">
        <ele>287.443074</ele>
        <time>2021-11-13T17:54:07.244Z</time>
      </trkpt>
      <trkpt lat="47.546565" lon="7.946721">
        <ele>287.790809</ele>
        <time>2021-11-13T17:54:09.756Z</time>
      </trkpt>
      <trkpt lat="47.546592" lon="7.946809">
        <ele>287.990409</ele>
        <time>2021-11-13T17:54:11.133Z</time>
      </trkpt>
      <trkpt lat="47.546633" lon="7.946946">
        <ele>288.299855</ele>
        <time>2021-11-13T17:54:13.386Z</time>
      </trkpt>
      <trkpt lat="47.546648" lon="7.947009">
        <ele>288.437797</ele>
        <time>2021-11-13T17:54:14.352Z</time>
      </trkpt>
      <trkpt lat="47.546651" lon="7.947115">
        <ele>288.656866</ele>
        <time>2021-11-13T17:54:16.140Z</time>
      </trkpt>
      <trkpt lat="47.546572" lon="7.947545">
        <ele>289.577063</ele>
        <time>2021-11-13T17:54:23.555Z</time>
      </trkpt>
      <trkpt lat="47.546159" lon="7.949303">
        <ele>293.430864</ele>
        <time>2021-11-13T17:55:02.321Z</time>
      </trkpt>
      <trkpt lat="47.545949" lon="7.950185">
        <ele>295.392967</ele>
        <time>2021-11-13T17:55:22.593Z</time>
      </trkpt>
      <trkpt lat="47.545884" lon="7.950363">
        <ele>295.817541</ele>
        <time>2021-11-13T17:55:26.525Z</time>
      </trkpt>
      <trkpt lat="47.545822" lon="7.950627">
        <ele>296.403959</ele>
        <time>2021-11-13T17:55:31.828Z</time>
      </trkpt>
      <trkpt lat="47.545810" lon="7.950694">
        <ele>296.549384</ele>
        <time>2021-11-13T17:55:33.059Z</time>
      </trkpt>
      <trkpt lat="47.545763" lon="7.950733">
        <ele>296.716815</ele>
        <time>2021-11-13T17:55:34.567Z</time>
      </trkpt>
      <trkpt lat="47.545659" lon="7.950771">
        <ele>297.049737</ele>
        <time>2021-11-13T17:55:36.988Z</time>
      </trkpt>
      <trkpt lat="47.545625" lon="7.950771">
        <ele>297.155410</ele>
        <time>2021-11-13T17:55:37.886Z</time>
      </trkpt>
      <trkpt lat="47.545567" lon="7.950765">
        <ele>297.336116</ele>
        <time>2021-11-13T17:55:39.299Z</time>
      </trkpt>
      <trkpt lat="47.545494" lon="7.950684">
        <ele>297.619585</ele>
        <time>2021-11-13T17:55:41.436Z</time>
      </trkpt>
      <trkpt lat="47.545434" lon="7.950668">
        <ele>297.809064</ele>
        <time>2021-11-13T17:55:42.915Z</time>
      </trkpt>
      <trkpt lat="47.545166" lon="7.950366">
        <ele>298.427360</ele>
        <time>2021-11-13T17:55:49.686Z</time>
      </trkpt>
      <trkpt lat="47.544901" lon="7.950044">
        <ele>298.542094</ele>
        <time>2021-11-13T17:55:55.322Z</time>
      </trkpt>
      <trkpt lat="47.544521" lon="7.949558">
        <ele>298.710149</ele>
        <time>2021-11-13T17:56:02.019Z</time>
      </trkpt>
      <trkpt lat="47.544239" lon="7.949202">
        <ele>298.834178</ele>
        <time>2021-11-13T17:56:06.981Z</time>
      </trkpt>
      <trkpt lat="47.543864" lon="7.948694">
        <ele>299.124150</ele>
        <time>2021-11-13T17:56:14.945Z</time>
      </trkpt>
      <trkpt lat="47.543760" lon="7.948548">
        <ele>299.389026</ele>
        <time>2021-11-13T17:56:17.187Z</time>
      </trkpt>
      <trkpt lat="47.543579" lon="7.948287">
        <ele>299.855982</ele>
        <time>2021-11-13T17:56:22.904Z</time>
      </trkpt>
      <trkpt lat="47.543532" lon="7.948214">
        <ele>299.981872</ele>
        <time>2021-11-13T17:56:24.031Z</time>
      </trkpt>
      <trkpt lat="47.543435" lon="7.948000">
        <ele>300.303546</ele>
        <time>2021-11-13T17:56:27.092Z</time>
      </trkpt>
      <trkpt lat="47.543407" lon="7.947938">
        <ele>300.396635</ele>
        <time>2021-11-13T17:56:28.950Z</time>
      </trkpt>
      <trkpt lat="47.543280" lon="7.947656">
        <ele>300.819678</ele>
        <time>2021-11-13T17:56:33.436Z</time>
      </trkpt>
      <trkpt lat="47.543142" lon="7.947250">
        <ele>301.386940</ele>
        <time>2021-11-13T17:56:40.900Z</time>
      </trkpt>
      <trkpt lat="47.543086" lon="7.947052">
        <ele>301.654840</ele>
        <time>2021-11-13T17:56:44.330Z</time>
      </trkpt>
      <trkpt lat="47.543056" lon="7.946935">
        <ele>301.811025</ele>
        <time>2021-11-13T17:56:47.171Z</time>
      </trkpt>
      <trkpt lat="47.543045" lon="7.946881">
        <ele>301.881415</ele>
        <time>2021-11-13T17:56:48.328Z</time>
      </trkpt>
      <trkpt lat="47.542982" lon="7.946547">
        <ele>302.317042</ele>
        <time>2021-11-13T17:56:53.728Z</time>
      </trkpt>
      <trkpt lat="47.542974" lon="7.946495">
        <ele>302.400416</ele>
        <time>2021-11-13T17:56:55.369Z</time>
      </trkpt>
      <trkpt lat="47.542960" lon="7.946400">
        <ele>302.552425</ele>
        <time>2021-11-13T17:56:57.434Z</time>
      </trkpt>
      <trkpt lat="47.542916" lon="7.945730">
        <ele>303.604764</ele>
        <time>2021-11-13T17:57:10.100Z</time>
      </trkpt>
      <trkpt lat="47.542913" lon="7.945267">
        <ele>304.328594</ele>
        <time>2021-11-13T17:57:18.595Z</time>
      </trkpt>
      <trkpt lat="47.543007" lon="7.943867">
        <ele>306.468213</ele>
        <time>2021-11-13T17:57:39.762Z</time>
      </trkpt>
      <trkpt lat="47.543161" lon="7.942213">
        <ele>306.466467</ele>
        <time>2021-11-13T17:57:58.168Z</time>
      </trkpt>
      <trkpt lat="47.543435" lon="7.940670">
        <ele>305.786292</ele>
        <time>2021-11-13T17:58:11.116Z</time>
      </trkpt>
      <trkpt lat="47.543826" lon="7.939433">
        <ele>304.334164</ele>
        <time>2021-11-13T17:58:21.517Z</time>
      </trkpt>
      <trkpt lat="47.544472" lon="7.937932">
        <ele>302.283060</ele>
        <time>2021-11-13T17:58:34.841Z</time>
      </trkpt>
      <trkpt lat="47.544705" lon="7.937395">
        <ele>301.514024</ele>
        <time>2021-11-13T17:58:39.681Z</time>
      </trkpt>
      <trkpt lat="47.544903" lon="7.936917">
        <ele>300.838407</ele>
        <time>2021-11-13T17:58:43.941Z</time>
      </trkpt>
      <trkpt lat="47.545074" lon="7.936484">
        <ele>300.291104</ele>
        <time>2021-11-13T17:58:47.772Z</time>
      </trkpt>
      <trkpt lat="47.545457" lon="7.935110">
        <ele>299.041773</ele>
        <time>2021-11-13T17:58:59.141Z</time>
      </trkpt>
      <trkpt lat="47.545674" lon="7.933625">
        <ele>298.432658</ele>
        <time>2021-11-13T17:59:12.221Z</time>
      </trkpt>
      <trkpt lat="47.545702" lon="7.933290">
        <ele>298.601719</ele>
        <time>2021-11-13T17:59:15.801Z</time>
      </trkpt>
      <trkpt lat="47.545724" lon="7.932758">
        <ele>298.868662</ele>
        <time>2021-11-13T17:59:22.068Z</time>
      </trkpt>
      <trkpt lat="47.545721" lon="7.931992">
        <ele>299.252307</ele>
        <time>2021-11-13T17:59:32.107Z</time>
      </trkpt>
      <trkpt lat="47.545696" lon="7.931497">
        <ele>299.500912</ele>
        <time>2021-11-13T17:59:39.313Z</time>
      </trkpt>
      <trkpt lat="47.545661" lon="7.930955">
        <ele>300.143785</ele>
        <time>2021-11-13T17:59:48.008Z</time>
      </trkpt>
      <trkpt lat="47.545563" lon="7.929641">
        <ele>301.764165</ele>
        <time>2021-11-13T18:00:10.347Z</time>
      </trkpt>
      <trkpt lat="47.545475" lon="7.928419">
        <ele>302.393099</ele>
        <time>2021-11-13T18:00:26.650Z</time>
      </trkpt>
      <trkpt lat="47.545421" lon="7.927686">
        <ele>301.667190</ele>
        <time>2021-11-13T18:00:32.754Z</time>
      </trkpt>
      <trkpt lat="47.545406" lon="7.927306">
        <ele>301.292449</ele>
        <time>2021-11-13T18:00:35.657Z</time>
      </trkpt>
      <trkpt lat="47.545407" lon="7.927001">
        <ele>300.992179</ele>
        <time>2021-11-13T18:00:37.944Z</time>
      </trkpt>
      <trkpt lat="47.545409" lon="7.926773">
        <ele>300.767698</ele>
        <time>2021-11-13T18:00:39.573Z</time>
      </trkpt>
      <trkpt lat="47.545417" lon="7.925848">
        <ele>299.367904</ele>
        <time>2021-11-13T18:00:45.908Z</time>
      </trkpt>
      <trkpt lat="47.545446" lon="7.925350">
        <ele>298.083223</ele>
        <time>2021-11-13T18:00:49.200Z</time>
      </trkpt>
      <trkpt lat="47.545466" lon="7.924880">
        <ele>296.872863</ele>
        <time>2021-11-13T18:00:52.253Z</time>
      </trkpt>
      <trkpt lat="47.545481" lon="7.924396">
        <ele>295.627609</ele>
        <time>2021-11-13T18:00:55.337Z</time>
      </trkpt>
      <trkpt lat="47.545521" lon="7.923709">
        <ele>293.855372</ele>
        <time>2021-11-13T18:00:59.862Z</time>
      </trkpt>
      <trkpt lat="47.545536" lon="7.923407">
        <ele>293.208194</ele>
        <time>2021-11-13T18:01:02.010Z</time>
      </trkpt>
      <trkpt lat="47.545553" lon="7.923142">
        <ele>292.905604</ele>
        <time>2021-11-13T18:01:03.841Z</time>
      </trkpt>
      <trkpt lat="47.545587" lon="7.922895">
        <ele>292.619055</ele>
        <time>2021-11-13T18:01:05.775Z</time>
      </trkpt>
      <trkpt lat="47.545641" lon="7.922610">
        <ele>292.282568</ele>
        <time>2021-11-13T18:01:07.920Z</time>
      </trkpt>
      <trkpt lat="47.545690" lon="7.922369">
        <ele>291.996460</ele>
        <time>2021-11-13T18:01:09.927Z</time>
      </trkpt>
      <trkpt lat="47.545699" lon="7.922325">
        <ele>291.944198</ele>
        <time>2021-11-13T18:01:10.221Z</time>
      </trkpt>
      <trkpt lat="47.545714" lon="7.922249">
        <ele>291.854190</ele>
        <time>2021-11-13T18:01:10.811Z</time>
      </trkpt>
      <trkpt lat="47.545778" lon="7.921947">
        <ele>291.494379</ele>
        <time>2021-11-13T18:01:13.514Z</time>
      </trkpt>
      <trkpt lat="47.545810" lon="7.921755">
        <ele>291.269574</ele>
        <time>2021-11-13T18:01:14.994Z</time>
      </trkpt>
      <trkpt lat="47.545881" lon="7.921096">
        <ele>290.510995</ele>
        <time>2021-11-13T18:01:20.456Z</time>
      </trkpt>
      <trkpt lat="47.545913" lon="7.920765">
        <ele>290.255889</ele>
        <time>2021-11-13T18:01:23.349Z</time>
      </trkpt>
      <trkpt lat="47.545973" lon="7.920313">
        <ele>290.162001</ele>
        <time>2021-11-13T18:01:27.819Z</time>
      </trkpt>
      <trkpt lat="47.546128" lon="7.919617">
        <ele>290.012626</ele>
        <time>2021-11-13T18:01:35.060Z</time>
      </trkpt>
      <trkpt lat="47.546262" lon="7.919081">
        <ele>289.896130</ele>
        <time>2021-11-13T18:01:41.108Z</time>
      </trkpt>
      <trkpt lat="47.546821" lon="7.916867">
        <ele>289.125196</ele>
        <time>2021-11-13T18:02:01.776Z</time>
      </trkpt>
      <trkpt lat="47.547032" lon="7.916218">
        <ele>288.848051</ele>
        <time>2021-11-13T18:02:08.084Z</time>
      </trkpt>
      <trkpt lat="47.547091" lon="7.916039">
        <ele>288.771412</ele>
        <time>2021-11-13T18:02:09.858Z</time>
      </trkpt>
      <trkpt lat="47.547113" lon="7.915971">
        <ele>288.742401</ele>
        <time>2021-11-13T18:02:10.448Z</time>
      </trkpt>
      <trkpt lat="47.547423" lon="7.915080">
        <ele>288.765430</ele>
        <time>2021-11-13T18:02:19.935Z</time>
      </trkpt>
      <trkpt lat="47.547994" lon="7.913433">
        <ele>288.936528</ele>
        <time>2021-11-13T18:02:39.639Z</time>
      </trkpt>
      <trkpt lat="47.548027" lon="7.913334">
        <ele>289.008732</ele>
        <time>2021-11-13T18:02:40.999Z</time>
      </trkpt>
      <trkpt lat="47.548412" lon="7.912168">
        <ele>289.857563</ele>
        <time>2021-11-13T18:02:57.402Z</time>
      </trkpt>
      <trkpt lat="47.549012" lon="7.910340">
        <ele>291.363056</ele>
        <time>2021-11-13T18:03:24.313Z</time>
      </trkpt>
      <trkpt lat="47.549102" lon="7.910058">
        <ele>291.628535</ele>
        <time>2021-11-13T18:03:28.409Z</time>
      </trkpt>
      <trkpt lat="47.549195" lon="7.909756">
        <ele>291.911044</ele>
        <time>2021-11-13T18:03:32.757Z</time>
      </trkpt>
      <trkpt lat="47.549329" lon="7.909310">
        <ele>292.326527</ele>
        <time>2021-11-13T18:03:39.064Z</time>
      </trkpt>
      <trkpt lat="47.549404" lon="7.909062">
        <ele>292.557808</ele>
        <time>2021-11-13T18:03:42.540Z</time>
      </trkpt>
      <trkpt lat="47.549520" lon="7.908678">
        <ele>292.948153</ele>
        <time>2021-11-13T18:03:48.028Z</time>
      </trkpt>
      <trkpt lat="47.549539" lon="7.908625">
        <ele>293.035248</ele>
        <time>2021-11-13T18:03:48.750Z</time>
      </trkpt>
      <trkpt lat="47.550497" lon="7.905558">
        <ele>298.642802</ele>
        <time>2021-11-13T18:04:43.699Z</time>
      </trkpt>
      <trkpt lat="47.550283" lon="7.905413">
        <ele>299.444613</ele>
        <time>2021-11-13T18:04:51.865Z</time>
      </trkpt>
      <trkpt lat="47.550067" lon="7.905245">
        <ele>300.275854</ele>
        <time>2021-11-13T18:05:00.551Z</time>
      </trkpt>
      <trkpt lat="47.549867" lon="7.905155">
        <ele>300.988068</ele>
        <time>2021-11-13T18:05:08.180Z</time>
      </trkpt>
      <trkpt lat="47.549868" lon="7.905010">
        <ele>301.321557</ele>
        <time>2021-11-13T18:05:11.585Z</time>
      </trkpt>
      <trkpt lat="47.550025" lon="7.904774">
        <ele>302.083632</ele>
        <time>2021-11-13T18:05:19.736Z</time>
      </trkpt>
      <trkpt lat="47.550302" lon="7.904164">
        <ele>303.851580</ele>
        <time>2021-11-13T18:05:38.035Z</time>
      </trkpt>
      <trkpt lat="47.550498" lon="7.903445">
        <ele>305.786315</ele>
        <time>2021-11-13T18:05:57.607Z</time>
      </trkpt>
      <trkpt lat="47.550688" lon="7.902451">
        <ele>308.363926</ele>
        <time>2021-11-13T18:06:20.155Z</time>
      </trkpt>
      <trkpt lat="47.550757" lon="7.901591">
        <ele>310.656394</ele>
        <time>2021-11-13T18:06:39.952Z</time>
      </trkpt>
      <trkpt lat="47.550769" lon="7.901362">
        <ele>311.304195</ele>
        <time>2021-11-13T18:06:45.859Z</time>
      </trkpt>
      <trkpt lat="47.550801" lon="7.900244">
        <ele>314.460164</ele>
        <time>2021-11-13T18:07:10.257Z</time>
      </trkpt>
      <trkpt lat="47.550819" lon="7.898109">
        <ele>319.734591</ele>
        <time>2021-11-13T18:07:57.297Z</time>
      </trkpt>
      <trkpt lat="47.550648" lon="7.896481">
        <ele>323.092184</ele>
        <time>2021-11-13T18:08:24.952Z</time>
      </trkpt>
      <trkpt lat="47.550639" lon="7.896345">
        <ele>323.206828</ele>
        <time>2021-11-13T18:08:27.327Z</time>
      </trkpt>
      <trkpt lat="47.550660" lon="7.896255">
        <ele>323.286717</ele>
        <time>2021-11-13T18:08:28.128Z</time>
      </trkpt>
      <trkpt lat="47.550838" lon="7.895509">
        <ele>323.950524</ele>
        <time>2021-11-13T18:08:38.296Z</time>
      </trkpt>
      <trkpt lat="47.550878" lon="7.895158">
        <ele>324.249160</ele>
        <time>2021-11-13T18:08:42.358Z</time>
      </trkpt>
      <trkpt lat="47.550908" lon="7.894308">
        <ele>324.963231</ele>
        <time>2021-11-13T18:08:52.830Z</time>
      </trkpt>
      <trkpt lat="47.550892" lon="7.893176">
        <ele>327.134471</ele>
        <time>2021-11-13T18:09:07.548Z</time>
      </trkpt>
      <trkpt lat="47.550904" lon="7.891725">
        <ele>330.312659</ele>
        <time>2021-11-13T18:09:37.310Z</time>
      </trkpt>
      <trkpt lat="47.550915" lon="7.890600">
        <ele>334.348301</ele>
        <time>2021-11-13T18:10:06.150Z</time>
      </trkpt>
      <trkpt lat="47.550833" lon="7.889069">
        <ele>340.672583</ele>
        <time>2021-11-13T18:10:48.784Z</time>
      </trkpt>
      <trkpt lat="47.550831" lon="7.888611">
        <ele>342.538775</ele>
        <time>2021-11-13T18:11:01.354Z</time>
      </trkpt>
      <trkpt lat="47.550789" lon="7.887816">
        <ele>345.712736</ele>
        <time>2021-11-13T18:11:21.966Z</time>
      </trkpt>
      <trkpt lat="47.550758" lon="7.887295">
        <ele>347.794480</ele>
        <time>2021-11-13T18:11:35.787Z</time>
      </trkpt>
      <trkpt lat="47.550677" lon="7.886476">
        <ele>351.089106</ele>
        <time>2021-11-13T18:11:57.276Z</time>
      </trkpt>
      <trkpt lat="47.550548" lon="7.885799">
        <ele>353.619308</ele>
        <time>2021-11-13T18:12:14.479Z</time>
      </trkpt>
      <trkpt lat="47.550391" lon="7.885109">
        <ele>355.923874</ele>
        <time>2021-11-13T18:12:32.116Z</time>
      </trkpt>
      <trkpt lat="47.550332" lon="7.884727">
        <ele>357.164135</ele>
        <time>2021-11-13T18:12:40.807Z</time>
      </trkpt>
      <trkpt lat="47.550234" lon="7.883221">
        <ele>361.713464</ele>
        <time>2021-11-13T18:13:13.638Z</time>
      </trkpt>
      <trkpt lat="47.549927" lon="7.881490">
        <ele>365.946133</ele>
        <time>2021-11-13T18:13:45.902Z</time>
      </trkpt>
      <trkpt lat="47.549726" lon="7.880786">
        <ele>367.848998</ele>
        <time>2021-11-13T18:14:01.879Z</time>
      </trkpt>
      <trkpt lat="47.549327" lon="7.879547">
        <ele>371.789144</ele>
        <time>2021-11-13T18:14:31.663Z</time>
      </trkpt>
      <trkpt lat="47.549318" lon="7.879398">
        <ele>372.218507</ele>
        <time>2021-11-13T18:14:34.851Z</time>
      </trkpt>
      <trkpt lat="47.549140" lon="7.879391">
        <ele>372.975696</ele>
        <time>2021-11-13T18:14:41.721Z</time>
      </trkpt>
      <trkpt lat="47.548718" lon="7.879258">
        <ele>374.810351</ele>
        <time>2021-11-13T18:14:55.392Z</time>
      </trkpt>
      <trkpt lat="47.548422" lon="7.878959">
        <ele>375.604492</ele>
        <time>2021-11-13T18:15:06.039Z</time>
      </trkpt>
      <trkpt lat="47.548234" lon="7.878638">
        <ele>376.178103</ele>
        <time>2021-11-13T18:15:14.471Z</time>
      </trkpt>
      <trkpt lat="47.547992" lon="7.877974">
        <ele>377.196601</ele>
        <time>2021-11-13T18:15:27.568Z</time>
      </trkpt>
      <trkpt lat="47.547574" lon="7.876801">
        <ele>377.952022</ele>
        <time>2021-11-13T18:15:41.332Z</time>
      </trkpt>
      <trkpt lat="47.547126" lon="7.875801">
        <ele>375.701383</ele>
        <time>2021-11-13T18:15:50.114Z</time>
      </trkpt>
      <trkpt lat="47.546309" lon="7.874154">
        <ele>369.853545</ele>
        <time>2021-11-13T18:16:03.303Z</time>
      </trkpt>
      <trkpt lat="47.546135" lon="7.873859">
        <ele>368.242101</ele>
        <time>2021-11-13T18:16:05.685Z</time>
      </trkpt>
      <trkpt lat="47.546077" lon="7.873763">
        <ele>367.712143</ele>
        <time>2021-11-13T18:16:06.496Z</time>
      </trkpt>
      <trkpt lat="47.545934" lon="7.873549">
        <ele>366.473497</ele>
        <time>2021-11-13T18:16:08.300Z</time>
      </trkpt>
      <trkpt lat="47.545746" lon="7.873302">
        <ele>364.942228</ele>
        <time>2021-11-13T18:16:10.588Z</time>
      </trkpt>
      <trkpt lat="47.545515" lon="7.873015">
        <ele>363.105035</ele>
        <time>2021-11-13T18:16:13.287Z</time>
      </trkpt>
      <trkpt lat="47.545478" lon="7.872968">
        <ele>362.808025</ele>
        <time>2021-11-13T18:16:13.729Z</time>
      </trkpt>
      <trkpt lat="47.545375" lon="7.872836">
        <ele>361.912934</ele>
        <time>2021-11-13T18:16:14.922Z</time>
      </trkpt>
      <trkpt lat="47.545131" lon="7.872664">
        <ele>360.092681</ele>
        <time>2021-11-13T18:16:17.381Z</time>
      </trkpt>
      <trkpt lat="47.544883" lon="7.872555">
        <ele>358.350097</ele>
        <time>2021-11-13T18:16:19.704Z</time>
      </trkpt>
      <trkpt lat="47.544390" lon="7.872423">
        <ele>354.975277</ele>
        <time>2021-11-13T18:16:24.168Z</time>
      </trkpt>
      <trkpt lat="47.543332" lon="7.872237">
        <ele>350.479878</ele>
        <time>2021-11-13T18:16:33.935Z</time>
      </trkpt>
      <trkpt lat="47.543251" lon="7.872152">
        <ele>350.479878</ele>
        <time>2021-11-13T18:16:34.858Z</time>
      </trkpt>
      <trkpt lat="47.543233" lon="7.872082">
        <ele>350.479878</ele>
        <time>2021-11-13T18:16:35.281Z</time>
      </trkpt>
      <trkpt lat="47.543013" lon="7.872182">
        <ele>350.479878</ele>
        <time>2021-11-13T18:16:37.534Z</time>
      </trkpt>
      <trkpt lat="47.542919" lon="7.872226">
        <ele>350.479878</ele>
        <time>2021-11-13T18:16:38.442Z</time>
      </trkpt>
      <trkpt lat="47.542814" lon="7.872280">
        <ele>350.479878</ele>
        <time>2021-11-13T18:16:39.512Z</time>
      </trkpt>
      <trkpt lat="47.542714" lon="7.872334">
        <ele>350.479878</ele>
        <time>2021-11-13T18:16:40.600Z</time>
      </trkpt>
      <trkpt lat="47.542537" lon="7.872430">
        <ele>350.479878</ele>
        <time>2021-11-13T18:16:42.329Z</time>
      </trkpt>
      <trkpt lat="47.542436" lon="7.872494">
        <ele>350.479878</ele>
        <time>2021-11-13T18:16:43.698Z</time>
      </trkpt>
      <trkpt lat="47.542394" lon="7.872341">
        <ele>350.479878</ele>
        <time>2021-11-13T18:16:44.784Z</time>
      </trkpt>
      <trkpt lat="47.542218" lon="7.871866">
        <ele>350.479878</ele>
        <time>2021-11-13T18:16:48.456Z</time>
      </trkpt>
      <trkpt lat="47.542194" lon="7.871838">
        <ele>350.479878</ele>
        <time>2021-11-13T18:16:48.741Z</time>
      </trkpt>
      <trkpt lat="47.542091" lon="7.871721">
        <ele>350.479878</ele>
        <time>2021-11-13T18:16:49.972Z</time>
      </trkpt>
      <trkpt lat="47.542067" lon="7.871664">
        <ele>350.479878</ele>
        <time>2021-11-13T18:16:50.700Z</time>
      </trkpt>
      <trkpt lat="47.542039" lon="7.871556">
        <ele>350.479878</ele>
        <time>2021-11-13T18:16:51.599Z</time>
      </trkpt>
      <trkpt lat="47.541953" lon="7.871286">
        <ele>350.479878</ele>
        <time>2021-11-13T18:16:53.763Z</time>
      </trkpt>
      <trkpt lat="47.541796" lon="7.871042">
        <ele>350.479878</ele>
        <time>2021-11-13T18:16:56.337Z</time>
      </trkpt>
      <trkpt lat="47.541782" lon="7.871018">
        <ele>350.479878</ele>
        <time>2021-11-13T18:16:56.561Z</time>
      </trkpt>
    </trkseg>
  </trk>
</gpx>